<?xml version="1.0" encoding="UTF-8"?><gpx version="1.1" creator="Relive" xmlns="http://www.topografix.com/GPX/1/1" xmlns:xsi="http://www.w3.org/2001/XMLSchema-instance" xsi:schemaLocation="http://www.topografix.com/GPX/1/1 http://www.topografix.com/GPX/1/1/gpx.xsd http://www.garmin.com/xmlschemas/TrackPointExtension/v1 http://www.garmin.com/xmlschemas/TrackPointExtensionv1.xsd http://www.garmin.com/xmlschemas/GpxExtensions/v3 http://www.garmin.com/xmlschemas/GpxExtensionsv3.xsd" xmlns:gpxtpx="http://www.garmin.com/xmlschemas/TrackPointExtension/v1" xmlns:gpxx="http://www.garmin.com/xmlschemas/GpxExtensions/v3"><metadata><time>2024-05-01T12:20:01.000Z</time><name>Kostolné traily</name></metadata><trk><trkseg><trkpt lat="48.733734" lon="17.709677"><time>2024-05-01T12:20:01.000Z</time><ele>223</ele></trkpt><trkpt lat="48.73375" lon="17.70969"><time>2024-05-01T12:20:03.000Z</time><ele>223</ele></trkpt><trkpt lat="48.733784" lon="17.709652"><time>2024-05-01T12:20:21.000Z</time><ele>222.7</ele></trkpt><trkpt lat="48.73376" lon="17.709667"><time>2024-05-01T12:20:24.000Z</time><ele>222.8</ele></trkpt><trkpt lat="48.73374" lon="17.709633"><time>2024-05-01T12:20:26.000Z</time><ele>222.6</ele></trkpt><trkpt lat="48.73372" lon="17.709572"><time>2024-05-01T12:20:28.000Z</time><ele>222.4</ele></trkpt><trkpt lat="48.733696" lon="17.709513"><time>2024-05-01T12:20:30.000Z</time><ele>222.2</ele></trkpt><trkpt lat="48.73369" lon="17.709475"><time>2024-05-01T12:20:32.000Z</time><ele>222</ele></trkpt><trkpt lat="48.73369" lon="17.709469"><time>2024-05-01T12:20:33.000Z</time><ele>221.6</ele></trkpt><trkpt lat="48.73369" lon="17.709444"><time>2024-05-01T12:20:41.000Z</time><ele>221.4</ele></trkpt><trkpt lat="48.73369" lon="17.709436"><time>2024-05-01T12:20:42.000Z</time><ele>221.2</ele></trkpt><trkpt lat="48.733692" lon="17.709429"><time>2024-05-01T12:20:47.000Z</time><ele>221</ele></trkpt><trkpt lat="48.73369" lon="17.709423"><time>2024-05-01T12:20:48.000Z</time><ele>220.8</ele></trkpt><trkpt lat="48.733696" lon="17.70942"><time>2024-05-01T12:20:50.000Z</time><ele>220.6</ele></trkpt><trkpt lat="48.733715" lon="17.70936"><time>2024-05-01T12:20:54.000Z</time><ele>220.6</ele></trkpt><trkpt lat="48.733753" lon="17.709309"><time>2024-05-01T12:20:56.000Z</time><ele>220.4</ele></trkpt><trkpt lat="48.733776" lon="17.709288"><time>2024-05-01T12:20:57.000Z</time><ele>220.2</ele></trkpt><trkpt lat="48.733837" lon="17.709255"><time>2024-05-01T12:20:59.000Z</time><ele>220.2</ele></trkpt><trkpt lat="48.73407" lon="17.709097"><time>2024-05-01T12:21:06.000Z</time><ele>219.8</ele></trkpt><trkpt lat="48.734104" lon="17.709066"><time>2024-05-01T12:21:07.000Z</time><ele>219.6</ele></trkpt><trkpt lat="48.734146" lon="17.709028"><time>2024-05-01T12:21:08.000Z</time><ele>219.4</ele></trkpt><trkpt lat="48.73418" lon="17.708994"><time>2024-05-01T12:21:09.000Z</time><ele>219.2</ele></trkpt><trkpt lat="48.734226" lon="17.708963"><time>2024-05-01T12:21:10.000Z</time><ele>219</ele></trkpt><trkpt lat="48.734272" lon="17.708944"><time>2024-05-01T12:21:11.000Z</time><ele>219</ele></trkpt><trkpt lat="48.73431" lon="17.708916"><time>2024-05-01T12:21:12.000Z</time><ele>219</ele></trkpt><trkpt lat="48.734356" lon="17.708887"><time>2024-05-01T12:21:13.000Z</time><ele>219</ele></trkpt><trkpt lat="48.7344" lon="17.70887"><time>2024-05-01T12:21:14.000Z</time><ele>219</ele></trkpt><trkpt lat="48.734436" lon="17.708857"><time>2024-05-01T12:21:15.000Z</time><ele>219</ele></trkpt><trkpt lat="48.734474" lon="17.708836"><time>2024-05-01T12:21:16.000Z</time><ele>219</ele></trkpt><trkpt lat="48.734512" lon="17.708817"><time>2024-05-01T12:21:17.000Z</time><ele>219</ele></trkpt><trkpt lat="48.73455" lon="17.708803"><time>2024-05-01T12:21:18.000Z</time><ele>219</ele></trkpt><trkpt lat="48.734585" lon="17.70878"><time>2024-05-01T12:21:19.000Z</time><ele>218.8</ele></trkpt><trkpt lat="48.73462" lon="17.708755"><time>2024-05-01T12:21:20.000Z</time><ele>218.8</ele></trkpt><trkpt lat="48.734657" lon="17.708733"><time>2024-05-01T12:21:21.000Z</time><ele>218.8</ele></trkpt><trkpt lat="48.73469" lon="17.708712"><time>2024-05-01T12:21:22.000Z</time><ele>218.8</ele></trkpt><trkpt lat="48.73473" lon="17.708704"><time>2024-05-01T12:21:23.000Z</time><ele>219</ele></trkpt><trkpt lat="48.734764" lon="17.708693"><time>2024-05-01T12:21:24.000Z</time><ele>219.4</ele></trkpt><trkpt lat="48.7348" lon="17.708672"><time>2024-05-01T12:21:25.000Z</time><ele>219.6</ele></trkpt><trkpt lat="48.734837" lon="17.708647"><time>2024-05-01T12:21:26.000Z</time><ele>219.8</ele></trkpt><trkpt lat="48.734875" lon="17.708624"><time>2024-05-01T12:21:27.000Z</time><ele>220</ele></trkpt><trkpt lat="48.734913" lon="17.708603"><time>2024-05-01T12:21:28.000Z</time><ele>219.8</ele></trkpt><trkpt lat="48.73495" lon="17.708576"><time>2024-05-01T12:21:29.000Z</time><ele>219.8</ele></trkpt><trkpt lat="48.735" lon="17.708536"><time>2024-05-01T12:21:30.000Z</time><ele>219.8</ele></trkpt><trkpt lat="48.73504" lon="17.708508"><time>2024-05-01T12:21:31.000Z</time><ele>220</ele></trkpt><trkpt lat="48.73508" lon="17.708467"><time>2024-05-01T12:21:32.000Z</time><ele>220.2</ele></trkpt><trkpt lat="48.73512" lon="17.708435"><time>2024-05-01T12:21:33.000Z</time><ele>220.6</ele></trkpt><trkpt lat="48.735165" lon="17.708412"><time>2024-05-01T12:21:34.000Z</time><ele>220.8</ele></trkpt><trkpt lat="48.735207" lon="17.708372"><time>2024-05-01T12:21:35.000Z</time><ele>221</ele></trkpt><trkpt lat="48.735252" lon="17.708332"><time>2024-05-01T12:21:36.000Z</time><ele>221</ele></trkpt><trkpt lat="48.735287" lon="17.708292"><time>2024-05-01T12:21:37.000Z</time><ele>221</ele></trkpt><trkpt lat="48.735325" lon="17.708248"><time>2024-05-01T12:21:38.000Z</time><ele>221</ele></trkpt><trkpt lat="48.73536" lon="17.708197"><time>2024-05-01T12:21:39.000Z</time><ele>221</ele></trkpt><trkpt lat="48.73539" lon="17.708153"><time>2024-05-01T12:21:40.000Z</time><ele>221</ele></trkpt><trkpt lat="48.73542" lon="17.708103"><time>2024-05-01T12:21:41.000Z</time><ele>221</ele></trkpt><trkpt lat="48.735447" lon="17.708063"><time>2024-05-01T12:21:42.000Z</time><ele>220.8</ele></trkpt><trkpt lat="48.73549" lon="17.708023"><time>2024-05-01T12:21:43.000Z</time><ele>220.8</ele></trkpt><trkpt lat="48.735523" lon="17.707996"><time>2024-05-01T12:21:44.000Z</time><ele>220.8</ele></trkpt><trkpt lat="48.735558" lon="17.707964"><time>2024-05-01T12:21:45.000Z</time><ele>220.8</ele></trkpt><trkpt lat="48.735584" lon="17.707935"><time>2024-05-01T12:21:46.000Z</time><ele>220.6</ele></trkpt><trkpt lat="48.735615" lon="17.7079"><time>2024-05-01T12:21:47.000Z</time><ele>220.4</ele></trkpt><trkpt lat="48.735645" lon="17.707865"><time>2024-05-01T12:21:48.000Z</time><ele>220.2</ele></trkpt><trkpt lat="48.735672" lon="17.707834"><time>2024-05-01T12:21:49.000Z</time><ele>220</ele></trkpt><trkpt lat="48.735706" lon="17.707817"><time>2024-05-01T12:21:50.000Z</time><ele>219.8</ele></trkpt><trkpt lat="48.735744" lon="17.7078"><time>2024-05-01T12:21:51.000Z</time><ele>220</ele></trkpt><trkpt lat="48.73578" lon="17.707773"><time>2024-05-01T12:21:52.000Z</time><ele>220.4</ele></trkpt><trkpt lat="48.73582" lon="17.707745"><time>2024-05-01T12:21:53.000Z</time><ele>220.6</ele></trkpt><trkpt lat="48.73586" lon="17.707714"><time>2024-05-01T12:21:54.000Z</time><ele>221</ele></trkpt><trkpt lat="48.7359" lon="17.707682"><time>2024-05-01T12:21:55.000Z</time><ele>221.4</ele></trkpt><trkpt lat="48.735935" lon="17.70765"><time>2024-05-01T12:21:56.000Z</time><ele>221.4</ele></trkpt><trkpt lat="48.735977" lon="17.70762"><time>2024-05-01T12:21:57.000Z</time><ele>221.4</ele></trkpt><trkpt lat="48.736015" lon="17.707596"><time>2024-05-01T12:21:58.000Z</time><ele>221.4</ele></trkpt><trkpt lat="48.736057" lon="17.70758"><time>2024-05-01T12:21:59.000Z</time><ele>221.2</ele></trkpt><trkpt lat="48.736095" lon="17.707567"><time>2024-05-01T12:22:00.000Z</time><ele>221</ele></trkpt><trkpt lat="48.73615" lon="17.707573"><time>2024-05-01T12:22:01.000Z</time><ele>221.4</ele></trkpt><trkpt lat="48.73619" lon="17.707579"><time>2024-05-01T12:22:02.000Z</time><ele>221.6</ele></trkpt><trkpt lat="48.73624" lon="17.70758"><time>2024-05-01T12:22:03.000Z</time><ele>221.8</ele></trkpt><trkpt lat="48.736286" lon="17.707588"><time>2024-05-01T12:22:04.000Z</time><ele>222</ele></trkpt><trkpt lat="48.736336" lon="17.707582"><time>2024-05-01T12:22:05.000Z</time><ele>222</ele></trkpt><trkpt lat="48.736385" lon="17.707577"><time>2024-05-01T12:22:06.000Z</time><ele>221.8</ele></trkpt><trkpt lat="48.73643" lon="17.707573"><time>2024-05-01T12:22:07.000Z</time><ele>221.8</ele></trkpt><trkpt lat="48.736485" lon="17.707565"><time>2024-05-01T12:22:08.000Z</time><ele>221.8</ele></trkpt><trkpt lat="48.736526" lon="17.707556"><time>2024-05-01T12:22:09.000Z</time><ele>221.6</ele></trkpt><trkpt lat="48.736576" lon="17.707539"><time>2024-05-01T12:22:10.000Z</time><ele>221.8</ele></trkpt><trkpt lat="48.73663" lon="17.707525"><time>2024-05-01T12:22:11.000Z</time><ele>221.8</ele></trkpt><trkpt lat="48.73668" lon="17.707525"><time>2024-05-01T12:22:12.000Z</time><ele>221.8</ele></trkpt><trkpt lat="48.736732" lon="17.707508"><time>2024-05-01T12:22:13.000Z</time><ele>221.8</ele></trkpt><trkpt lat="48.736786" lon="17.707476"><time>2024-05-01T12:22:14.000Z</time><ele>222</ele></trkpt><trkpt lat="48.736835" lon="17.707441"><time>2024-05-01T12:22:15.000Z</time><ele>221.8</ele></trkpt><trkpt lat="48.736877" lon="17.707401"><time>2024-05-01T12:22:16.000Z</time><ele>221.6</ele></trkpt><trkpt lat="48.736916" lon="17.707363"><time>2024-05-01T12:22:17.000Z</time><ele>221.4</ele></trkpt><trkpt lat="48.736958" lon="17.707333"><time>2024-05-01T12:22:18.000Z</time><ele>221.2</ele></trkpt><trkpt lat="48.73699" lon="17.707293"><time>2024-05-01T12:22:19.000Z</time><ele>221</ele></trkpt><trkpt lat="48.737034" lon="17.707247"><time>2024-05-01T12:22:20.000Z</time><ele>220.8</ele></trkpt><trkpt lat="48.737064" lon="17.707191"><time>2024-05-01T12:22:21.000Z</time><ele>220.8</ele></trkpt><trkpt lat="48.7371" lon="17.707129"><time>2024-05-01T12:22:22.000Z</time><ele>220.8</ele></trkpt><trkpt lat="48.73713" lon="17.707064"><time>2024-05-01T12:22:23.000Z</time><ele>220.8</ele></trkpt><trkpt lat="48.73715" lon="17.706991"><time>2024-05-01T12:22:24.000Z</time><ele>220.8</ele></trkpt><trkpt lat="48.73716" lon="17.706917"><time>2024-05-01T12:22:25.000Z</time><ele>221</ele></trkpt><trkpt lat="48.737175" lon="17.706839"><time>2024-05-01T12:22:26.000Z</time><ele>220.8</ele></trkpt><trkpt lat="48.73719" lon="17.70676"><time>2024-05-01T12:22:27.000Z</time><ele>220.6</ele></trkpt><trkpt lat="48.737217" lon="17.706694"><time>2024-05-01T12:22:28.000Z</time><ele>220.4</ele></trkpt><trkpt lat="48.737236" lon="17.706627"><time>2024-05-01T12:22:29.000Z</time><ele>220.2</ele></trkpt><trkpt lat="48.737255" lon="17.706556"><time>2024-05-01T12:22:30.000Z</time><ele>220.2</ele></trkpt><trkpt lat="48.737267" lon="17.706488"><time>2024-05-01T12:22:31.000Z</time><ele>220.4</ele></trkpt><trkpt lat="48.737286" lon="17.706411"><time>2024-05-01T12:22:32.000Z</time><ele>220.6</ele></trkpt><trkpt lat="48.737297" lon="17.706339"><time>2024-05-01T12:22:33.000Z</time><ele>220.6</ele></trkpt><trkpt lat="48.737312" lon="17.706257"><time>2024-05-01T12:22:34.000Z</time><ele>220.6</ele></trkpt><trkpt lat="48.737328" lon="17.706175"><time>2024-05-01T12:22:35.000Z</time><ele>220.4</ele></trkpt><trkpt lat="48.737347" lon="17.7061"><time>2024-05-01T12:22:36.000Z</time><ele>220.2</ele></trkpt><trkpt lat="48.737366" lon="17.706015"><time>2024-05-01T12:22:37.000Z</time><ele>220.2</ele></trkpt><trkpt lat="48.737377" lon="17.705933"><time>2024-05-01T12:22:38.000Z</time><ele>220.4</ele></trkpt><trkpt lat="48.737396" lon="17.705864"><time>2024-05-01T12:22:39.000Z</time><ele>220.6</ele></trkpt><trkpt lat="48.737423" lon="17.705795"><time>2024-05-01T12:22:40.000Z</time><ele>220.8</ele></trkpt><trkpt lat="48.73744" lon="17.70572"><time>2024-05-01T12:22:41.000Z</time><ele>221</ele></trkpt><trkpt lat="48.737457" lon="17.705645"><time>2024-05-01T12:22:42.000Z</time><ele>221</ele></trkpt><trkpt lat="48.737484" lon="17.705578"><time>2024-05-01T12:22:43.000Z</time><ele>221</ele></trkpt><trkpt lat="48.737503" lon="17.705496"><time>2024-05-01T12:22:44.000Z</time><ele>221</ele></trkpt><trkpt lat="48.737522" lon="17.705421"><time>2024-05-01T12:22:45.000Z</time><ele>221</ele></trkpt><trkpt lat="48.73754" lon="17.70535"><time>2024-05-01T12:22:46.000Z</time><ele>221.2</ele></trkpt><trkpt lat="48.737568" lon="17.705288"><time>2024-05-01T12:22:47.000Z</time><ele>221.4</ele></trkpt><trkpt lat="48.737583" lon="17.705212"><time>2024-05-01T12:22:48.000Z</time><ele>221.6</ele></trkpt><trkpt lat="48.73761" lon="17.705141"><time>2024-05-01T12:22:49.000Z</time><ele>221.8</ele></trkpt><trkpt lat="48.73763" lon="17.705065"><time>2024-05-01T12:22:50.000Z</time><ele>222</ele></trkpt><trkpt lat="48.73764" lon="17.704992"><time>2024-05-01T12:22:51.000Z</time><ele>221.8</ele></trkpt><trkpt lat="48.73766" lon="17.704916"><time>2024-05-01T12:22:52.000Z</time><ele>221.6</ele></trkpt><trkpt lat="48.73768" lon="17.70484"><time>2024-05-01T12:22:53.000Z</time><ele>221.4</ele></trkpt><trkpt lat="48.737698" lon="17.704773"><time>2024-05-01T12:22:54.000Z</time><ele>221.2</ele></trkpt><trkpt lat="48.73772" lon="17.7047"><time>2024-05-01T12:22:55.000Z</time><ele>221</ele></trkpt><trkpt lat="48.73774" lon="17.704628"><time>2024-05-01T12:22:56.000Z</time><ele>221</ele></trkpt><trkpt lat="48.737762" lon="17.70455"><time>2024-05-01T12:22:57.000Z</time><ele>221.2</ele></trkpt><trkpt lat="48.73779" lon="17.70448"><time>2024-05-01T12:22:58.000Z</time><ele>221.2</ele></trkpt><trkpt lat="48.73781" lon="17.704409"><time>2024-05-01T12:22:59.000Z</time><ele>221.4</ele></trkpt><trkpt lat="48.73783" lon="17.704338"><time>2024-05-01T12:23:00.000Z</time><ele>221.4</ele></trkpt><trkpt lat="48.737858" lon="17.704264"><time>2024-05-01T12:23:01.000Z</time><ele>221.4</ele></trkpt><trkpt lat="48.73788" lon="17.704199"><time>2024-05-01T12:23:02.000Z</time><ele>221.2</ele></trkpt><trkpt lat="48.737904" lon="17.704132"><time>2024-05-01T12:23:03.000Z</time><ele>221.2</ele></trkpt><trkpt lat="48.737926" lon="17.704063"><time>2024-05-01T12:23:04.000Z</time><ele>221</ele></trkpt><trkpt lat="48.73795" lon="17.703987"><time>2024-05-01T12:23:05.000Z</time><ele>221</ele></trkpt><trkpt lat="48.737965" lon="17.703917"><time>2024-05-01T12:23:06.000Z</time><ele>221.2</ele></trkpt><trkpt lat="48.73798" lon="17.703844"><time>2024-05-01T12:23:07.000Z</time><ele>221.4</ele></trkpt><trkpt lat="48.737995" lon="17.703785"><time>2024-05-01T12:23:08.000Z</time><ele>221.6</ele></trkpt><trkpt lat="48.73801" lon="17.703705"><time>2024-05-01T12:23:09.000Z</time><ele>221.8</ele></trkpt><trkpt lat="48.738026" lon="17.703632"><time>2024-05-01T12:23:10.000Z</time><ele>222</ele></trkpt><trkpt lat="48.738045" lon="17.703556"><time>2024-05-01T12:23:11.000Z</time><ele>222</ele></trkpt><trkpt lat="48.73806" lon="17.70348"><time>2024-05-01T12:23:12.000Z</time><ele>222</ele></trkpt><trkpt lat="48.73807" lon="17.70339"><time>2024-05-01T12:23:13.000Z</time><ele>222</ele></trkpt><trkpt lat="48.73809" lon="17.703327"><time>2024-05-01T12:23:14.000Z</time><ele>221.8</ele></trkpt><trkpt lat="48.738094" lon="17.703245"><time>2024-05-01T12:23:15.000Z</time><ele>221.8</ele></trkpt><trkpt lat="48.73812" lon="17.703165"><time>2024-05-01T12:23:16.000Z</time><ele>222</ele></trkpt><trkpt lat="48.738136" lon="17.703096"><time>2024-05-01T12:23:17.000Z</time><ele>222.2</ele></trkpt><trkpt lat="48.738148" lon="17.703024"><time>2024-05-01T12:23:18.000Z</time><ele>222.2</ele></trkpt><trkpt lat="48.738167" lon="17.702951"><time>2024-05-01T12:23:19.000Z</time><ele>222.4</ele></trkpt><trkpt lat="48.73819" lon="17.70288"><time>2024-05-01T12:23:20.000Z</time><ele>222.6</ele></trkpt><trkpt lat="48.73821" lon="17.702816"><time>2024-05-01T12:23:21.000Z</time><ele>222.4</ele></trkpt><trkpt lat="48.738228" lon="17.702751"><time>2024-05-01T12:23:22.000Z</time><ele>222.4</ele></trkpt><trkpt lat="48.738247" lon="17.702688"><time>2024-05-01T12:23:23.000Z</time><ele>222.6</ele></trkpt><trkpt lat="48.738274" lon="17.702618"><time>2024-05-01T12:23:24.000Z</time><ele>222.6</ele></trkpt><trkpt lat="48.738297" lon="17.702553"><time>2024-05-01T12:23:25.000Z</time><ele>222.6</ele></trkpt><trkpt lat="48.73832" lon="17.702478"><time>2024-05-01T12:23:26.000Z</time><ele>222.6</ele></trkpt><trkpt lat="48.738346" lon="17.70241"><time>2024-05-01T12:23:27.000Z</time><ele>222.4</ele></trkpt><trkpt lat="48.738373" lon="17.702349"><time>2024-05-01T12:23:28.000Z</time><ele>222.2</ele></trkpt><trkpt lat="48.738415" lon="17.702309"><time>2024-05-01T12:23:29.000Z</time><ele>222.4</ele></trkpt><trkpt lat="48.73846" lon="17.702272"><time>2024-05-01T12:23:30.000Z</time><ele>222.6</ele></trkpt><trkpt lat="48.7385" lon="17.70224"><time>2024-05-01T12:23:31.000Z</time><ele>223</ele></trkpt><trkpt lat="48.738544" lon="17.702204"><time>2024-05-01T12:23:32.000Z</time><ele>223.4</ele></trkpt><trkpt lat="48.73858" lon="17.702175"><time>2024-05-01T12:23:33.000Z</time><ele>223.8</ele></trkpt><trkpt lat="48.738617" lon="17.702158"><time>2024-05-01T12:23:34.000Z</time><ele>224</ele></trkpt><trkpt lat="48.738655" lon="17.702133"><time>2024-05-01T12:23:35.000Z</time><ele>224</ele></trkpt><trkpt lat="48.738693" lon="17.70211"><time>2024-05-01T12:23:36.000Z</time><ele>224.2</ele></trkpt><trkpt lat="48.738724" lon="17.702087"><time>2024-05-01T12:23:37.000Z</time><ele>224.6</ele></trkpt><trkpt lat="48.73875" lon="17.702076"><time>2024-05-01T12:23:38.000Z</time><ele>225</ele></trkpt><trkpt lat="48.73878" lon="17.70206"><time>2024-05-01T12:23:39.000Z</time><ele>225.4</ele></trkpt><trkpt lat="48.738808" lon="17.702042"><time>2024-05-01T12:23:40.000Z</time><ele>226</ele></trkpt><trkpt lat="48.738857" lon="17.702011"><time>2024-05-01T12:23:42.000Z</time><ele>226.4</ele></trkpt><trkpt lat="48.738903" lon="17.702"><time>2024-05-01T12:23:44.000Z</time><ele>226.6</ele></trkpt><trkpt lat="48.73893" lon="17.701988"><time>2024-05-01T12:23:45.000Z</time><ele>227</ele></trkpt><trkpt lat="48.738956" lon="17.701977"><time>2024-05-01T12:23:46.000Z</time><ele>227.6</ele></trkpt><trkpt lat="48.738983" lon="17.70196"><time>2024-05-01T12:23:47.000Z</time><ele>228</ele></trkpt><trkpt lat="48.739014" lon="17.701948"><time>2024-05-01T12:23:48.000Z</time><ele>228.4</ele></trkpt><trkpt lat="48.739063" lon="17.701935"><time>2024-05-01T12:23:50.000Z</time><ele>229</ele></trkpt><trkpt lat="48.739086" lon="17.701933"><time>2024-05-01T12:23:51.000Z</time><ele>229.4</ele></trkpt><trkpt lat="48.73912" lon="17.701937"><time>2024-05-01T12:23:52.000Z</time><ele>229.6</ele></trkpt><trkpt lat="48.739147" lon="17.701939"><time>2024-05-01T12:23:53.000Z</time><ele>229.8</ele></trkpt><trkpt lat="48.739204" lon="17.701944"><time>2024-05-01T12:23:55.000Z</time><ele>230</ele></trkpt><trkpt lat="48.73923" lon="17.70195"><time>2024-05-01T12:23:56.000Z</time><ele>230</ele></trkpt><trkpt lat="48.739265" lon="17.701952"><time>2024-05-01T12:23:57.000Z</time><ele>230</ele></trkpt><trkpt lat="48.739296" lon="17.701952"><time>2024-05-01T12:23:58.000Z</time><ele>230</ele></trkpt><trkpt lat="48.739326" lon="17.701948"><time>2024-05-01T12:23:59.000Z</time><ele>230</ele></trkpt><trkpt lat="48.73936" lon="17.701944"><time>2024-05-01T12:24:00.000Z</time><ele>230</ele></trkpt><trkpt lat="48.73939" lon="17.70194"><time>2024-05-01T12:24:01.000Z</time><ele>230</ele></trkpt><trkpt lat="48.73942" lon="17.701937"><time>2024-05-01T12:24:02.000Z</time><ele>230</ele></trkpt><trkpt lat="48.739456" lon="17.701927"><time>2024-05-01T12:24:03.000Z</time><ele>230.2</ele></trkpt><trkpt lat="48.739483" lon="17.701918"><time>2024-05-01T12:24:04.000Z</time><ele>230.4</ele></trkpt><trkpt lat="48.739517" lon="17.701908"><time>2024-05-01T12:24:05.000Z</time><ele>230.6</ele></trkpt><trkpt lat="48.739548" lon="17.701897"><time>2024-05-01T12:24:06.000Z</time><ele>230.8</ele></trkpt><trkpt lat="48.73958" lon="17.701883"><time>2024-05-01T12:24:07.000Z</time><ele>231</ele></trkpt><trkpt lat="48.739613" lon="17.701876"><time>2024-05-01T12:24:08.000Z</time><ele>231.2</ele></trkpt><trkpt lat="48.739643" lon="17.701872"><time>2024-05-01T12:24:09.000Z</time><ele>231.4</ele></trkpt><trkpt lat="48.739674" lon="17.701864"><time>2024-05-01T12:24:10.000Z</time><ele>231.6</ele></trkpt><trkpt lat="48.739704" lon="17.701855"><time>2024-05-01T12:24:11.000Z</time><ele>231.8</ele></trkpt><trkpt lat="48.739735" lon="17.701843"><time>2024-05-01T12:24:12.000Z</time><ele>232</ele></trkpt><trkpt lat="48.73977" lon="17.701836"><time>2024-05-01T12:24:13.000Z</time><ele>232</ele></trkpt><trkpt lat="48.7398" lon="17.701828"><time>2024-05-01T12:24:14.000Z</time><ele>232</ele></trkpt><trkpt lat="48.739826" lon="17.70182"><time>2024-05-01T12:24:15.000Z</time><ele>232.2</ele></trkpt><trkpt lat="48.739857" lon="17.701813"><time>2024-05-01T12:24:16.000Z</time><ele>232.4</ele></trkpt><trkpt lat="48.739887" lon="17.701803"><time>2024-05-01T12:24:17.000Z</time><ele>232.6</ele></trkpt><trkpt lat="48.73991" lon="17.701796"><time>2024-05-01T12:24:18.000Z</time><ele>232.8</ele></trkpt><trkpt lat="48.739944" lon="17.701788"><time>2024-05-01T12:24:19.000Z</time><ele>233</ele></trkpt><trkpt lat="48.739967" lon="17.701784"><time>2024-05-01T12:24:20.000Z</time><ele>233</ele></trkpt><trkpt lat="48.74" lon="17.70178"><time>2024-05-01T12:24:21.000Z</time><ele>233</ele></trkpt><trkpt lat="48.74003" lon="17.701777"><time>2024-05-01T12:24:22.000Z</time><ele>233</ele></trkpt><trkpt lat="48.74006" lon="17.70177"><time>2024-05-01T12:24:23.000Z</time><ele>233</ele></trkpt><trkpt lat="48.74009" lon="17.701769"><time>2024-05-01T12:24:24.000Z</time><ele>233</ele></trkpt><trkpt lat="48.74012" lon="17.701773"><time>2024-05-01T12:24:25.000Z</time><ele>233</ele></trkpt><trkpt lat="48.74015" lon="17.70177"><time>2024-05-01T12:24:26.000Z</time><ele>233</ele></trkpt><trkpt lat="48.740185" lon="17.701769"><time>2024-05-01T12:24:27.000Z</time><ele>233</ele></trkpt><trkpt lat="48.740215" lon="17.701769"><time>2024-05-01T12:24:28.000Z</time><ele>233</ele></trkpt><trkpt lat="48.740246" lon="17.701773"><time>2024-05-01T12:24:29.000Z</time><ele>233</ele></trkpt><trkpt lat="48.740276" lon="17.701782"><time>2024-05-01T12:24:30.000Z</time><ele>233</ele></trkpt><trkpt lat="48.740303" lon="17.70179"><time>2024-05-01T12:24:31.000Z</time><ele>233.2</ele></trkpt><trkpt lat="48.74034" lon="17.701796"><time>2024-05-01T12:24:32.000Z</time><ele>233.4</ele></trkpt><trkpt lat="48.74037" lon="17.7018"><time>2024-05-01T12:24:33.000Z</time><ele>233.8</ele></trkpt><trkpt lat="48.74041" lon="17.701803"><time>2024-05-01T12:24:34.000Z</time><ele>234.2</ele></trkpt><trkpt lat="48.74044" lon="17.701803"><time>2024-05-01T12:24:35.000Z</time><ele>234.6</ele></trkpt><trkpt lat="48.740475" lon="17.701809"><time>2024-05-01T12:24:36.000Z</time><ele>234.8</ele></trkpt><trkpt lat="48.740513" lon="17.701805"><time>2024-05-01T12:24:37.000Z</time><ele>235</ele></trkpt><trkpt lat="48.740547" lon="17.701809"><time>2024-05-01T12:24:38.000Z</time><ele>235</ele></trkpt><trkpt lat="48.740585" lon="17.701817"><time>2024-05-01T12:24:39.000Z</time><ele>235</ele></trkpt><trkpt lat="48.74062" lon="17.701815"><time>2024-05-01T12:24:40.000Z</time><ele>235</ele></trkpt><trkpt lat="48.74065" lon="17.701813"><time>2024-05-01T12:24:41.000Z</time><ele>234.8</ele></trkpt><trkpt lat="48.740685" lon="17.70182"><time>2024-05-01T12:24:42.000Z</time><ele>234.8</ele></trkpt><trkpt lat="48.740715" lon="17.701824"><time>2024-05-01T12:24:43.000Z</time><ele>234.8</ele></trkpt><trkpt lat="48.74075" lon="17.701824"><time>2024-05-01T12:24:44.000Z</time><ele>234.8</ele></trkpt><trkpt lat="48.74078" lon="17.701828"><time>2024-05-01T12:24:45.000Z</time><ele>234.8</ele></trkpt><trkpt lat="48.740814" lon="17.701832"><time>2024-05-01T12:24:46.000Z</time><ele>235.2</ele></trkpt><trkpt lat="48.740852" lon="17.701838"><time>2024-05-01T12:24:47.000Z</time><ele>235.4</ele></trkpt><trkpt lat="48.740887" lon="17.701843"><time>2024-05-01T12:24:48.000Z</time><ele>235.6</ele></trkpt><trkpt lat="48.740925" lon="17.701843"><time>2024-05-01T12:24:49.000Z</time><ele>235.8</ele></trkpt><trkpt lat="48.74096" lon="17.701843"><time>2024-05-01T12:24:50.000Z</time><ele>236</ele></trkpt><trkpt lat="48.740993" lon="17.701847"><time>2024-05-01T12:24:51.000Z</time><ele>236</ele></trkpt><trkpt lat="48.741024" lon="17.701857"><time>2024-05-01T12:24:52.000Z</time><ele>236</ele></trkpt><trkpt lat="48.74108" lon="17.701864"><time>2024-05-01T12:24:54.000Z</time><ele>236.2</ele></trkpt><trkpt lat="48.741108" lon="17.701868"><time>2024-05-01T12:24:55.000Z</time><ele>236.4</ele></trkpt><trkpt lat="48.741135" lon="17.701868"><time>2024-05-01T12:24:56.000Z</time><ele>236.8</ele></trkpt><trkpt lat="48.74119" lon="17.701868"><time>2024-05-01T12:24:58.000Z</time><ele>237</ele></trkpt><trkpt lat="48.74122" lon="17.701868"><time>2024-05-01T12:24:59.000Z</time><ele>237</ele></trkpt><trkpt lat="48.74125" lon="17.70187"><time>2024-05-01T12:25:00.000Z</time><ele>237</ele></trkpt><trkpt lat="48.7413" lon="17.701878"><time>2024-05-01T12:25:02.000Z</time><ele>237</ele></trkpt><trkpt lat="48.74134" lon="17.701878"><time>2024-05-01T12:25:04.000Z</time><ele>237</ele></trkpt><trkpt lat="48.741383" lon="17.70188"><time>2024-05-01T12:25:06.000Z</time><ele>237.6</ele></trkpt><trkpt lat="48.74142" lon="17.701883"><time>2024-05-01T12:25:08.000Z</time><ele>238.4</ele></trkpt><trkpt lat="48.74146" lon="17.701897"><time>2024-05-01T12:25:10.000Z</time><ele>239</ele></trkpt><trkpt lat="48.7415" lon="17.701883"><time>2024-05-01T12:25:12.000Z</time><ele>240</ele></trkpt><trkpt lat="48.741535" lon="17.701883"><time>2024-05-01T12:25:14.000Z</time><ele>240.8</ele></trkpt><trkpt lat="48.74158" lon="17.701876"><time>2024-05-01T12:25:16.000Z</time><ele>241.2</ele></trkpt><trkpt lat="48.741627" lon="17.701866"><time>2024-05-01T12:25:18.000Z</time><ele>241.6</ele></trkpt><trkpt lat="48.741657" lon="17.70186"><time>2024-05-01T12:25:19.000Z</time><ele>242</ele></trkpt><trkpt lat="48.741703" lon="17.701853"><time>2024-05-01T12:25:21.000Z</time><ele>242</ele></trkpt><trkpt lat="48.741745" lon="17.701847"><time>2024-05-01T12:25:23.000Z</time><ele>242</ele></trkpt><trkpt lat="48.741787" lon="17.701836"><time>2024-05-01T12:25:25.000Z</time><ele>242.2</ele></trkpt><trkpt lat="48.741837" lon="17.701828"><time>2024-05-01T12:25:27.000Z</time><ele>242.6</ele></trkpt><trkpt lat="48.741856" lon="17.701832"><time>2024-05-01T12:25:28.000Z</time><ele>243</ele></trkpt><trkpt lat="48.741905" lon="17.701817"><time>2024-05-01T12:25:30.000Z</time><ele>243.4</ele></trkpt><trkpt lat="48.741943" lon="17.701805"><time>2024-05-01T12:25:32.000Z</time><ele>244.2</ele></trkpt><trkpt lat="48.74199" lon="17.701796"><time>2024-05-01T12:25:34.000Z</time><ele>244.8</ele></trkpt><trkpt lat="48.74204" lon="17.701775"><time>2024-05-01T12:25:36.000Z</time><ele>245.4</ele></trkpt><trkpt lat="48.74209" lon="17.701763"><time>2024-05-01T12:25:38.000Z</time><ele>246</ele></trkpt><trkpt lat="48.74213" lon="17.70176"><time>2024-05-01T12:25:40.000Z</time><ele>246.6</ele></trkpt><trkpt lat="48.74216" lon="17.70175"><time>2024-05-01T12:25:41.000Z</time><ele>247</ele></trkpt><trkpt lat="48.742203" lon="17.701733"><time>2024-05-01T12:25:43.000Z</time><ele>247.6</ele></trkpt><trkpt lat="48.74224" lon="17.70172"><time>2024-05-01T12:25:45.000Z</time><ele>248</ele></trkpt><trkpt lat="48.74228" lon="17.701704"><time>2024-05-01T12:25:47.000Z</time><ele>248.6</ele></trkpt><trkpt lat="48.742325" lon="17.701689"><time>2024-05-01T12:25:49.000Z</time><ele>249.4</ele></trkpt><trkpt lat="48.742367" lon="17.701672"><time>2024-05-01T12:25:51.000Z</time><ele>250</ele></trkpt><trkpt lat="48.74241" lon="17.70166"><time>2024-05-01T12:25:53.000Z</time><ele>250.4</ele></trkpt><trkpt lat="48.742455" lon="17.701641"><time>2024-05-01T12:25:55.000Z</time><ele>250.8</ele></trkpt><trkpt lat="48.7425" lon="17.701614"><time>2024-05-01T12:25:57.000Z</time><ele>250.6</ele></trkpt><trkpt lat="48.742542" lon="17.701586"><time>2024-05-01T12:25:59.000Z</time><ele>250.4</ele></trkpt><trkpt lat="48.742577" lon="17.701572"><time>2024-05-01T12:26:01.000Z</time><ele>250.4</ele></trkpt><trkpt lat="48.742622" lon="17.701544"><time>2024-05-01T12:26:03.000Z</time><ele>250.4</ele></trkpt><trkpt lat="48.74267" lon="17.701517"><time>2024-05-01T12:26:05.000Z</time><ele>250.4</ele></trkpt><trkpt lat="48.74271" lon="17.701494"><time>2024-05-01T12:26:07.000Z</time><ele>250.8</ele></trkpt><trkpt lat="48.742764" lon="17.701464"><time>2024-05-01T12:26:09.000Z</time><ele>251.2</ele></trkpt><trkpt lat="48.74279" lon="17.701452"><time>2024-05-01T12:26:10.000Z</time><ele>251.4</ele></trkpt><trkpt lat="48.742836" lon="17.701431"><time>2024-05-01T12:26:12.000Z</time><ele>251.4</ele></trkpt><trkpt lat="48.742863" lon="17.70142"><time>2024-05-01T12:26:14.000Z</time><ele>251.4</ele></trkpt><trkpt lat="48.742897" lon="17.701405"><time>2024-05-01T12:26:16.000Z</time><ele>251.6</ele></trkpt><trkpt lat="48.742935" lon="17.701376"><time>2024-05-01T12:26:18.000Z</time><ele>251.8</ele></trkpt><trkpt lat="48.74298" lon="17.701351"><time>2024-05-01T12:26:20.000Z</time><ele>252.2</ele></trkpt><trkpt lat="48.743023" lon="17.70133"><time>2024-05-01T12:26:22.000Z</time><ele>252.6</ele></trkpt><trkpt lat="48.74305" lon="17.701317"><time>2024-05-01T12:26:23.000Z</time><ele>253.2</ele></trkpt><trkpt lat="48.743065" lon="17.70131"><time>2024-05-01T12:26:24.000Z</time><ele>254</ele></trkpt><trkpt lat="48.743084" lon="17.701296"><time>2024-05-01T12:26:25.000Z</time><ele>254.4</ele></trkpt><trkpt lat="48.743107" lon="17.701277"><time>2024-05-01T12:26:26.000Z</time><ele>254.6</ele></trkpt><trkpt lat="48.743153" lon="17.701246"><time>2024-05-01T12:26:28.000Z</time><ele>255</ele></trkpt><trkpt lat="48.74319" lon="17.70122"><time>2024-05-01T12:26:30.000Z</time><ele>255.4</ele></trkpt><trkpt lat="48.743233" lon="17.70119"><time>2024-05-01T12:26:32.000Z</time><ele>255.4</ele></trkpt><trkpt lat="48.74326" lon="17.701172"><time>2024-05-01T12:26:33.000Z</time><ele>255.6</ele></trkpt><trkpt lat="48.743286" lon="17.701155"><time>2024-05-01T12:26:34.000Z</time><ele>255.8</ele></trkpt><trkpt lat="48.743313" lon="17.70114"><time>2024-05-01T12:26:35.000Z</time><ele>256</ele></trkpt><trkpt lat="48.743336" lon="17.701124"><time>2024-05-01T12:26:36.000Z</time><ele>256</ele></trkpt><trkpt lat="48.74336" lon="17.701103"><time>2024-05-01T12:26:37.000Z</time><ele>256</ele></trkpt><trkpt lat="48.74341" lon="17.701073"><time>2024-05-01T12:26:39.000Z</time><ele>255.8</ele></trkpt><trkpt lat="48.743458" lon="17.701042"><time>2024-05-01T12:26:41.000Z</time><ele>255.6</ele></trkpt><trkpt lat="48.743504" lon="17.701015"><time>2024-05-01T12:26:43.000Z</time><ele>255.4</ele></trkpt><trkpt lat="48.743538" lon="17.701004"><time>2024-05-01T12:26:44.000Z</time><ele>255.2</ele></trkpt><trkpt lat="48.743565" lon="17.700994"><time>2024-05-01T12:26:45.000Z</time><ele>255</ele></trkpt><trkpt lat="48.74359" lon="17.700983"><time>2024-05-01T12:26:46.000Z</time><ele>255.2</ele></trkpt><trkpt lat="48.743645" lon="17.700956"><time>2024-05-01T12:26:48.000Z</time><ele>255.4</ele></trkpt><trkpt lat="48.74369" lon="17.70093"><time>2024-05-01T12:26:50.000Z</time><ele>255.8</ele></trkpt><trkpt lat="48.743744" lon="17.700905"><time>2024-05-01T12:26:52.000Z</time><ele>256.2</ele></trkpt><trkpt lat="48.743793" lon="17.700884"><time>2024-05-01T12:26:54.000Z</time><ele>256.8</ele></trkpt><trkpt lat="48.74382" lon="17.700876"><time>2024-05-01T12:26:55.000Z</time><ele>257.2</ele></trkpt><trkpt lat="48.74387" lon="17.70086"><time>2024-05-01T12:26:57.000Z</time><ele>257.6</ele></trkpt><trkpt lat="48.743896" lon="17.700848"><time>2024-05-01T12:26:58.000Z</time><ele>257.8</ele></trkpt><trkpt lat="48.74395" lon="17.70083"><time>2024-05-01T12:27:00.000Z</time><ele>258</ele></trkpt><trkpt lat="48.744" lon="17.700808"><time>2024-05-01T12:27:02.000Z</time><ele>258</ele></trkpt><trkpt lat="48.744057" lon="17.700788"><time>2024-05-01T12:27:04.000Z</time><ele>258</ele></trkpt><trkpt lat="48.744087" lon="17.70078"><time>2024-05-01T12:27:05.000Z</time><ele>258</ele></trkpt><trkpt lat="48.744118" lon="17.700771"><time>2024-05-01T12:27:06.000Z</time><ele>258.2</ele></trkpt><trkpt lat="48.744164" lon="17.700756"><time>2024-05-01T12:27:08.000Z</time><ele>258.4</ele></trkpt><trkpt lat="48.74419" lon="17.700748"><time>2024-05-01T12:27:09.000Z</time><ele>258.8</ele></trkpt><trkpt lat="48.744225" lon="17.700745"><time>2024-05-01T12:27:10.000Z</time><ele>259</ele></trkpt><trkpt lat="48.74425" lon="17.700735"><time>2024-05-01T12:27:11.000Z</time><ele>259.4</ele></trkpt><trkpt lat="48.744297" lon="17.700718"><time>2024-05-01T12:27:13.000Z</time><ele>259.8</ele></trkpt><trkpt lat="48.744343" lon="17.700708"><time>2024-05-01T12:27:15.000Z</time><ele>260.4</ele></trkpt><trkpt lat="48.7444" lon="17.700687"><time>2024-05-01T12:27:17.000Z</time><ele>260.8</ele></trkpt><trkpt lat="48.74443" lon="17.700678"><time>2024-05-01T12:27:18.000Z</time><ele>261.6</ele></trkpt><trkpt lat="48.74446" lon="17.700668"><time>2024-05-01T12:27:19.000Z</time><ele>262.2</ele></trkpt><trkpt lat="48.744488" lon="17.70066"><time>2024-05-01T12:27:20.000Z</time><ele>262.6</ele></trkpt><trkpt lat="48.744514" lon="17.700651"><time>2024-05-01T12:27:21.000Z</time><ele>262.6</ele></trkpt><trkpt lat="48.744545" lon="17.700644"><time>2024-05-01T12:27:22.000Z</time><ele>262.6</ele></trkpt><trkpt lat="48.74457" lon="17.700636"><time>2024-05-01T12:27:23.000Z</time><ele>262.6</ele></trkpt><trkpt lat="48.744595" lon="17.700624"><time>2024-05-01T12:27:24.000Z</time><ele>262.6</ele></trkpt><trkpt lat="48.744625" lon="17.700617"><time>2024-05-01T12:27:25.000Z</time><ele>262.6</ele></trkpt><trkpt lat="48.74465" lon="17.700605"><time>2024-05-01T12:27:26.000Z</time><ele>262.8</ele></trkpt><trkpt lat="48.74468" lon="17.700596"><time>2024-05-01T12:27:27.000Z</time><ele>263</ele></trkpt><trkpt lat="48.744705" lon="17.700584"><time>2024-05-01T12:27:28.000Z</time><ele>263</ele></trkpt><trkpt lat="48.74473" lon="17.700571"><time>2024-05-01T12:27:29.000Z</time><ele>263.2</ele></trkpt><trkpt lat="48.74476" lon="17.700563"><time>2024-05-01T12:27:30.000Z</time><ele>263.4</ele></trkpt><trkpt lat="48.744812" lon="17.700546"><time>2024-05-01T12:27:32.000Z</time><ele>263.8</ele></trkpt><trkpt lat="48.74484" lon="17.700533"><time>2024-05-01T12:27:33.000Z</time><ele>264</ele></trkpt><trkpt lat="48.744865" lon="17.70052"><time>2024-05-01T12:27:34.000Z</time><ele>264.2</ele></trkpt><trkpt lat="48.744896" lon="17.700504"><time>2024-05-01T12:27:35.000Z</time><ele>264.2</ele></trkpt><trkpt lat="48.744923" lon="17.700487"><time>2024-05-01T12:27:36.000Z</time><ele>264.2</ele></trkpt><trkpt lat="48.744953" lon="17.700472"><time>2024-05-01T12:27:37.000Z</time><ele>264</ele></trkpt><trkpt lat="48.744984" lon="17.700457"><time>2024-05-01T12:27:38.000Z</time><ele>264.2</ele></trkpt><trkpt lat="48.745007" lon="17.70044"><time>2024-05-01T12:27:39.000Z</time><ele>264.4</ele></trkpt><trkpt lat="48.745037" lon="17.700426"><time>2024-05-01T12:27:40.000Z</time><ele>264.6</ele></trkpt><trkpt lat="48.745064" lon="17.700413"><time>2024-05-01T12:27:41.000Z</time><ele>265</ele></trkpt><trkpt lat="48.74509" lon="17.7004"><time>2024-05-01T12:27:42.000Z</time><ele>265.4</ele></trkpt><trkpt lat="48.745125" lon="17.700386"><time>2024-05-01T12:27:43.000Z</time><ele>265.6</ele></trkpt><trkpt lat="48.74515" lon="17.700373"><time>2024-05-01T12:27:44.000Z</time><ele>265.8</ele></trkpt><trkpt lat="48.745186" lon="17.700356"><time>2024-05-01T12:27:45.000Z</time><ele>266</ele></trkpt><trkpt lat="48.745216" lon="17.700338"><time>2024-05-01T12:27:46.000Z</time><ele>266</ele></trkpt><trkpt lat="48.745243" lon="17.700323"><time>2024-05-01T12:27:47.000Z</time><ele>266</ele></trkpt><trkpt lat="48.745274" lon="17.700304"><time>2024-05-01T12:27:48.000Z</time><ele>266</ele></trkpt><trkpt lat="48.745304" lon="17.70029"><time>2024-05-01T12:27:49.000Z</time><ele>266</ele></trkpt><trkpt lat="48.74533" lon="17.700275"><time>2024-05-01T12:27:50.000Z</time><ele>266</ele></trkpt><trkpt lat="48.74536" lon="17.700264"><time>2024-05-01T12:27:51.000Z</time><ele>266</ele></trkpt><trkpt lat="48.74539" lon="17.700249"><time>2024-05-01T12:27:52.000Z</time><ele>266</ele></trkpt><trkpt lat="48.74542" lon="17.700232"><time>2024-05-01T12:27:53.000Z</time><ele>266.2</ele></trkpt><trkpt lat="48.74545" lon="17.700216"><time>2024-05-01T12:27:54.000Z</time><ele>266.4</ele></trkpt><trkpt lat="48.745476" lon="17.700197"><time>2024-05-01T12:27:55.000Z</time><ele>266.6</ele></trkpt><trkpt lat="48.745506" lon="17.700184"><time>2024-05-01T12:27:56.000Z</time><ele>266.8</ele></trkpt><trkpt lat="48.745537" lon="17.700169"><time>2024-05-01T12:27:57.000Z</time><ele>267</ele></trkpt><trkpt lat="48.745564" lon="17.700148"><time>2024-05-01T12:27:58.000Z</time><ele>267</ele></trkpt><trkpt lat="48.74559" lon="17.700129"><time>2024-05-01T12:27:59.000Z</time><ele>267</ele></trkpt><trkpt lat="48.74562" lon="17.700108"><time>2024-05-01T12:28:00.000Z</time><ele>267</ele></trkpt><trkpt lat="48.745647" lon="17.700089"><time>2024-05-01T12:28:01.000Z</time><ele>267</ele></trkpt><trkpt lat="48.745674" lon="17.700068"><time>2024-05-01T12:28:02.000Z</time><ele>267</ele></trkpt><trkpt lat="48.745705" lon="17.700052"><time>2024-05-01T12:28:03.000Z</time><ele>267</ele></trkpt><trkpt lat="48.745728" lon="17.700033"><time>2024-05-01T12:28:04.000Z</time><ele>267.2</ele></trkpt><trkpt lat="48.74576" lon="17.700016"><time>2024-05-01T12:28:05.000Z</time><ele>267.4</ele></trkpt><trkpt lat="48.745785" lon="17.699997"><time>2024-05-01T12:28:06.000Z</time><ele>267.8</ele></trkpt><trkpt lat="48.745815" lon="17.699976"><time>2024-05-01T12:28:07.000Z</time><ele>268.2</ele></trkpt><trkpt lat="48.74584" lon="17.699953"><time>2024-05-01T12:28:08.000Z</time><ele>268.6</ele></trkpt><trkpt lat="48.745872" lon="17.699934"><time>2024-05-01T12:28:09.000Z</time><ele>268.8</ele></trkpt><trkpt lat="48.7459" lon="17.699915"><time>2024-05-01T12:28:10.000Z</time><ele>269</ele></trkpt><trkpt lat="48.74593" lon="17.699892"><time>2024-05-01T12:28:11.000Z</time><ele>269</ele></trkpt><trkpt lat="48.745953" lon="17.699867"><time>2024-05-01T12:28:12.000Z</time><ele>269</ele></trkpt><trkpt lat="48.745983" lon="17.699846"><time>2024-05-01T12:28:13.000Z</time><ele>269</ele></trkpt><trkpt lat="48.74601" lon="17.699825"><time>2024-05-01T12:28:14.000Z</time><ele>269</ele></trkpt><trkpt lat="48.74604" lon="17.699804"><time>2024-05-01T12:28:15.000Z</time><ele>269</ele></trkpt><trkpt lat="48.746067" lon="17.699783"><time>2024-05-01T12:28:16.000Z</time><ele>269.2</ele></trkpt><trkpt lat="48.746098" lon="17.699764"><time>2024-05-01T12:28:17.000Z</time><ele>269.6</ele></trkpt><trkpt lat="48.74612" lon="17.699741"><time>2024-05-01T12:28:18.000Z</time><ele>270</ele></trkpt><trkpt lat="48.746143" lon="17.69972"><time>2024-05-01T12:28:19.000Z</time><ele>270.4</ele></trkpt><trkpt lat="48.746174" lon="17.699697"><time>2024-05-01T12:28:20.000Z</time><ele>270.8</ele></trkpt><trkpt lat="48.746197" lon="17.699677"><time>2024-05-01T12:28:21.000Z</time><ele>271</ele></trkpt><trkpt lat="48.746223" lon="17.699652"><time>2024-05-01T12:28:22.000Z</time><ele>271</ele></trkpt><trkpt lat="48.746246" lon="17.69963"><time>2024-05-01T12:28:23.000Z</time><ele>271</ele></trkpt><trkpt lat="48.746273" lon="17.699604"><time>2024-05-01T12:28:24.000Z</time><ele>271</ele></trkpt><trkpt lat="48.746296" lon="17.69958"><time>2024-05-01T12:28:25.000Z</time><ele>271</ele></trkpt><trkpt lat="48.746323" lon="17.699556"><time>2024-05-01T12:28:26.000Z</time><ele>271</ele></trkpt><trkpt lat="48.74635" lon="17.699532"><time>2024-05-01T12:28:27.000Z</time><ele>271</ele></trkpt><trkpt lat="48.746376" lon="17.699505"><time>2024-05-01T12:28:28.000Z</time><ele>271</ele></trkpt><trkpt lat="48.7464" lon="17.699476"><time>2024-05-01T12:28:29.000Z</time><ele>271.2</ele></trkpt><trkpt lat="48.746426" lon="17.699444"><time>2024-05-01T12:28:30.000Z</time><ele>271.4</ele></trkpt><trkpt lat="48.74645" lon="17.699415"><time>2024-05-01T12:28:31.000Z</time><ele>271.6</ele></trkpt><trkpt lat="48.74647" lon="17.699387"><time>2024-05-01T12:28:32.000Z</time><ele>271.8</ele></trkpt><trkpt lat="48.746494" lon="17.69936"><time>2024-05-01T12:28:33.000Z</time><ele>272</ele></trkpt><trkpt lat="48.74652" lon="17.699331"><time>2024-05-01T12:28:34.000Z</time><ele>272</ele></trkpt><trkpt lat="48.746544" lon="17.699305"><time>2024-05-01T12:28:35.000Z</time><ele>272</ele></trkpt><trkpt lat="48.746567" lon="17.699276"><time>2024-05-01T12:28:36.000Z</time><ele>272.2</ele></trkpt><trkpt lat="48.746593" lon="17.699247"><time>2024-05-01T12:28:37.000Z</time><ele>272.4</ele></trkpt><trkpt lat="48.746616" lon="17.69922"><time>2024-05-01T12:28:38.000Z</time><ele>272.6</ele></trkpt><trkpt lat="48.74664" lon="17.699192"><time>2024-05-01T12:28:39.000Z</time><ele>272.8</ele></trkpt><trkpt lat="48.74667" lon="17.699165"><time>2024-05-01T12:28:40.000Z</time><ele>273</ele></trkpt><trkpt lat="48.746693" lon="17.699137"><time>2024-05-01T12:28:41.000Z</time><ele>273</ele></trkpt><trkpt lat="48.746716" lon="17.699108"><time>2024-05-01T12:28:42.000Z</time><ele>273</ele></trkpt><trkpt lat="48.74674" lon="17.69908"><time>2024-05-01T12:28:43.000Z</time><ele>273</ele></trkpt><trkpt lat="48.74677" lon="17.699055"><time>2024-05-01T12:28:44.000Z</time><ele>273.2</ele></trkpt><trkpt lat="48.74679" lon="17.699026"><time>2024-05-01T12:28:45.000Z</time><ele>273.4</ele></trkpt><trkpt lat="48.746815" lon="17.699"><time>2024-05-01T12:28:46.000Z</time><ele>273.6</ele></trkpt><trkpt lat="48.74684" lon="17.698973"><time>2024-05-01T12:28:47.000Z</time><ele>273.8</ele></trkpt><trkpt lat="48.74687" lon="17.698946"><time>2024-05-01T12:28:48.000Z</time><ele>274.2</ele></trkpt><trkpt lat="48.74689" lon="17.698915"><time>2024-05-01T12:28:49.000Z</time><ele>274.4</ele></trkpt><trkpt lat="48.74692" lon="17.698887"><time>2024-05-01T12:28:50.000Z</time><ele>274.6</ele></trkpt><trkpt lat="48.746944" lon="17.698856"><time>2024-05-01T12:28:51.000Z</time><ele>274.8</ele></trkpt><trkpt lat="48.74697" lon="17.698824"><time>2024-05-01T12:28:52.000Z</time><ele>275</ele></trkpt><trkpt lat="48.747" lon="17.698795"><time>2024-05-01T12:28:53.000Z</time><ele>275</ele></trkpt><trkpt lat="48.747025" lon="17.698765"><time>2024-05-01T12:28:54.000Z</time><ele>275</ele></trkpt><trkpt lat="48.747055" lon="17.69873"><time>2024-05-01T12:28:55.000Z</time><ele>275</ele></trkpt><trkpt lat="48.747086" lon="17.698696"><time>2024-05-01T12:28:56.000Z</time><ele>275</ele></trkpt><trkpt lat="48.747112" lon="17.698668"><time>2024-05-01T12:28:57.000Z</time><ele>275.2</ele></trkpt><trkpt lat="48.74714" lon="17.698635"><time>2024-05-01T12:28:58.000Z</time><ele>275.4</ele></trkpt><trkpt lat="48.74717" lon="17.698605"><time>2024-05-01T12:28:59.000Z</time><ele>275.6</ele></trkpt><trkpt lat="48.747196" lon="17.698572"><time>2024-05-01T12:29:00.000Z</time><ele>275.6</ele></trkpt><trkpt lat="48.747223" lon="17.698538"><time>2024-05-01T12:29:01.000Z</time><ele>275.8</ele></trkpt><trkpt lat="48.747257" lon="17.698507"><time>2024-05-01T12:29:02.000Z</time><ele>275.8</ele></trkpt><trkpt lat="48.747288" lon="17.698483"><time>2024-05-01T12:29:03.000Z</time><ele>275.8</ele></trkpt><trkpt lat="48.74732" lon="17.698454"><time>2024-05-01T12:29:04.000Z</time><ele>276</ele></trkpt><trkpt lat="48.747353" lon="17.69843"><time>2024-05-01T12:29:05.000Z</time><ele>276.4</ele></trkpt><trkpt lat="48.74738" lon="17.698404"><time>2024-05-01T12:29:06.000Z</time><ele>276.6</ele></trkpt><trkpt lat="48.74741" lon="17.698378"><time>2024-05-01T12:29:07.000Z</time><ele>276.8</ele></trkpt><trkpt lat="48.747437" lon="17.69835"><time>2024-05-01T12:29:08.000Z</time><ele>277</ele></trkpt><trkpt lat="48.747463" lon="17.698324"><time>2024-05-01T12:29:09.000Z</time><ele>277</ele></trkpt><trkpt lat="48.747486" lon="17.698298"><time>2024-05-01T12:29:10.000Z</time><ele>277</ele></trkpt><trkpt lat="48.74752" lon="17.698277"><time>2024-05-01T12:29:11.000Z</time><ele>277</ele></trkpt><trkpt lat="48.747547" lon="17.698252"><time>2024-05-01T12:29:12.000Z</time><ele>277</ele></trkpt><trkpt lat="48.747578" lon="17.698221"><time>2024-05-01T12:29:13.000Z</time><ele>277.2</ele></trkpt><trkpt lat="48.74761" lon="17.698195"><time>2024-05-01T12:29:14.000Z</time><ele>277.4</ele></trkpt><trkpt lat="48.74763" lon="17.698164"><time>2024-05-01T12:29:15.000Z</time><ele>277.6</ele></trkpt><trkpt lat="48.747665" lon="17.698132"><time>2024-05-01T12:29:16.000Z</time><ele>277.8</ele></trkpt><trkpt lat="48.74769" lon="17.698103"><time>2024-05-01T12:29:17.000Z</time><ele>278</ele></trkpt><trkpt lat="48.747715" lon="17.698074"><time>2024-05-01T12:29:18.000Z</time><ele>278</ele></trkpt><trkpt lat="48.747746" lon="17.698044"><time>2024-05-01T12:29:19.000Z</time><ele>278.2</ele></trkpt><trkpt lat="48.747776" lon="17.69802"><time>2024-05-01T12:29:20.000Z</time><ele>278.4</ele></trkpt><trkpt lat="48.747803" lon="17.69799"><time>2024-05-01T12:29:21.000Z</time><ele>278.4</ele></trkpt><trkpt lat="48.74783" lon="17.69796"><time>2024-05-01T12:29:22.000Z</time><ele>278.6</ele></trkpt><trkpt lat="48.747852" lon="17.697931"><time>2024-05-01T12:29:23.000Z</time><ele>278.8</ele></trkpt><trkpt lat="48.747875" lon="17.697905"><time>2024-05-01T12:29:24.000Z</time><ele>278.8</ele></trkpt><trkpt lat="48.747906" lon="17.697876"><time>2024-05-01T12:29:25.000Z</time><ele>279</ele></trkpt><trkpt lat="48.74793" lon="17.69785"><time>2024-05-01T12:29:26.000Z</time><ele>279.4</ele></trkpt><trkpt lat="48.74796" lon="17.697824"><time>2024-05-01T12:29:27.000Z</time><ele>279.6</ele></trkpt><trkpt lat="48.74799" lon="17.697794"><time>2024-05-01T12:29:28.000Z</time><ele>279.8</ele></trkpt><trkpt lat="48.748013" lon="17.697763"><time>2024-05-01T12:29:29.000Z</time><ele>280.2</ele></trkpt><trkpt lat="48.74804" lon="17.697739"><time>2024-05-01T12:29:30.000Z</time><ele>280.4</ele></trkpt><trkpt lat="48.748062" lon="17.697712"><time>2024-05-01T12:29:31.000Z</time><ele>280.6</ele></trkpt><trkpt lat="48.748093" lon="17.697683"><time>2024-05-01T12:29:32.000Z</time><ele>280.8</ele></trkpt><trkpt lat="48.74812" lon="17.697657"><time>2024-05-01T12:29:33.000Z</time><ele>281</ele></trkpt><trkpt lat="48.74815" lon="17.697628"><time>2024-05-01T12:29:34.000Z</time><ele>281.2</ele></trkpt><trkpt lat="48.748177" lon="17.6976"><time>2024-05-01T12:29:35.000Z</time><ele>281.2</ele></trkpt><trkpt lat="48.748207" lon="17.697575"><time>2024-05-01T12:29:36.000Z</time><ele>281.2</ele></trkpt><trkpt lat="48.748238" lon="17.697544"><time>2024-05-01T12:29:37.000Z</time><ele>281.2</ele></trkpt><trkpt lat="48.74826" lon="17.697512"><time>2024-05-01T12:29:38.000Z</time><ele>281.4</ele></trkpt><trkpt lat="48.748287" lon="17.697483"><time>2024-05-01T12:29:39.000Z</time><ele>281.4</ele></trkpt><trkpt lat="48.748318" lon="17.697456"><time>2024-05-01T12:29:40.000Z</time><ele>281.6</ele></trkpt><trkpt lat="48.74835" lon="17.697424"><time>2024-05-01T12:29:41.000Z</time><ele>281.8</ele></trkpt><trkpt lat="48.748375" lon="17.697393"><time>2024-05-01T12:29:42.000Z</time><ele>282</ele></trkpt><trkpt lat="48.74841" lon="17.697363"><time>2024-05-01T12:29:43.000Z</time><ele>282</ele></trkpt><trkpt lat="48.748436" lon="17.697329"><time>2024-05-01T12:29:44.000Z</time><ele>282</ele></trkpt><trkpt lat="48.748463" lon="17.697296"><time>2024-05-01T12:29:45.000Z</time><ele>282</ele></trkpt><trkpt lat="48.748493" lon="17.697262"><time>2024-05-01T12:29:46.000Z</time><ele>282</ele></trkpt><trkpt lat="48.74852" lon="17.697227"><time>2024-05-01T12:29:47.000Z</time><ele>282</ele></trkpt><trkpt lat="48.748547" lon="17.697195"><time>2024-05-01T12:29:48.000Z</time><ele>282</ele></trkpt><trkpt lat="48.748577" lon="17.697165"><time>2024-05-01T12:29:49.000Z</time><ele>282.2</ele></trkpt><trkpt lat="48.7486" lon="17.697132"><time>2024-05-01T12:29:50.000Z</time><ele>282.4</ele></trkpt><trkpt lat="48.748623" lon="17.697094"><time>2024-05-01T12:29:51.000Z</time><ele>282.6</ele></trkpt><trkpt lat="48.74865" lon="17.697058"><time>2024-05-01T12:29:52.000Z</time><ele>282.8</ele></trkpt><trkpt lat="48.748672" lon="17.697021"><time>2024-05-01T12:29:53.000Z</time><ele>283</ele></trkpt><trkpt lat="48.74869" lon="17.696983"><time>2024-05-01T12:29:54.000Z</time><ele>283</ele></trkpt><trkpt lat="48.74871" lon="17.696947"><time>2024-05-01T12:29:55.000Z</time><ele>283.2</ele></trkpt><trkpt lat="48.748734" lon="17.696909"><time>2024-05-01T12:29:56.000Z</time><ele>283.4</ele></trkpt><trkpt lat="48.748753" lon="17.696869"><time>2024-05-01T12:29:57.000Z</time><ele>283.6</ele></trkpt><trkpt lat="48.748775" lon="17.69683"><time>2024-05-01T12:29:58.000Z</time><ele>283.8</ele></trkpt><trkpt lat="48.748795" lon="17.696798"><time>2024-05-01T12:29:59.000Z</time><ele>284</ele></trkpt><trkpt lat="48.74882" lon="17.696764"><time>2024-05-01T12:30:00.000Z</time><ele>284</ele></trkpt><trkpt lat="48.74884" lon="17.696728"><time>2024-05-01T12:30:01.000Z</time><ele>284.2</ele></trkpt><trkpt lat="48.748863" lon="17.696695"><time>2024-05-01T12:30:02.000Z</time><ele>284.4</ele></trkpt><trkpt lat="48.748894" lon="17.696669"><time>2024-05-01T12:30:03.000Z</time><ele>284.6</ele></trkpt><trkpt lat="48.74892" lon="17.69664"><time>2024-05-01T12:30:04.000Z</time><ele>284.8</ele></trkpt><trkpt lat="48.748947" lon="17.696611"><time>2024-05-01T12:30:05.000Z</time><ele>285</ele></trkpt><trkpt lat="48.748978" lon="17.696587"><time>2024-05-01T12:30:06.000Z</time><ele>285</ele></trkpt><trkpt lat="48.74901" lon="17.696564"><time>2024-05-01T12:30:07.000Z</time><ele>285</ele></trkpt><trkpt lat="48.749035" lon="17.696548"><time>2024-05-01T12:30:08.000Z</time><ele>285</ele></trkpt><trkpt lat="48.74907" lon="17.696527"><time>2024-05-01T12:30:09.000Z</time><ele>285</ele></trkpt><trkpt lat="48.7491" lon="17.696512"><time>2024-05-01T12:30:10.000Z</time><ele>285</ele></trkpt><trkpt lat="48.74913" lon="17.696495"><time>2024-05-01T12:30:11.000Z</time><ele>285.2</ele></trkpt><trkpt lat="48.74917" lon="17.696486"><time>2024-05-01T12:30:12.000Z</time><ele>285.4</ele></trkpt><trkpt lat="48.7492" lon="17.696478"><time>2024-05-01T12:30:13.000Z</time><ele>285.6</ele></trkpt><trkpt lat="48.749237" lon="17.696476"><time>2024-05-01T12:30:14.000Z</time><ele>285.8</ele></trkpt><trkpt lat="48.74927" lon="17.696476"><time>2024-05-01T12:30:15.000Z</time><ele>286</ele></trkpt><trkpt lat="48.749306" lon="17.69648"><time>2024-05-01T12:30:16.000Z</time><ele>286.2</ele></trkpt><trkpt lat="48.749344" lon="17.696482"><time>2024-05-01T12:30:17.000Z</time><ele>286.4</ele></trkpt><trkpt lat="48.749386" lon="17.69648"><time>2024-05-01T12:30:18.000Z</time><ele>286.6</ele></trkpt><trkpt lat="48.749424" lon="17.696484"><time>2024-05-01T12:30:19.000Z</time><ele>287</ele></trkpt><trkpt lat="48.74947" lon="17.69648"><time>2024-05-01T12:30:20.000Z</time><ele>287.4</ele></trkpt><trkpt lat="48.749508" lon="17.696476"><time>2024-05-01T12:30:21.000Z</time><ele>287.6</ele></trkpt><trkpt lat="48.749542" lon="17.696468"><time>2024-05-01T12:30:22.000Z</time><ele>287.8</ele></trkpt><trkpt lat="48.74958" lon="17.69646"><time>2024-05-01T12:30:23.000Z</time><ele>288</ele></trkpt><trkpt lat="48.749615" lon="17.696451"><time>2024-05-01T12:30:24.000Z</time><ele>288</ele></trkpt><trkpt lat="48.749653" lon="17.696438"><time>2024-05-01T12:30:25.000Z</time><ele>288</ele></trkpt><trkpt lat="48.749687" lon="17.696424"><time>2024-05-01T12:30:26.000Z</time><ele>288</ele></trkpt><trkpt lat="48.74972" lon="17.69641"><time>2024-05-01T12:30:27.000Z</time><ele>288</ele></trkpt><trkpt lat="48.749752" lon="17.696388"><time>2024-05-01T12:30:28.000Z</time><ele>288.2</ele></trkpt><trkpt lat="48.749783" lon="17.696365"><time>2024-05-01T12:30:29.000Z</time><ele>288.4</ele></trkpt><trkpt lat="48.749817" lon="17.696344"><time>2024-05-01T12:30:30.000Z</time><ele>288.6</ele></trkpt><trkpt lat="48.749847" lon="17.696316"><time>2024-05-01T12:30:31.000Z</time><ele>288.8</ele></trkpt><trkpt lat="48.749874" lon="17.696287"><time>2024-05-01T12:30:32.000Z</time><ele>288.8</ele></trkpt><trkpt lat="48.74991" lon="17.696257"><time>2024-05-01T12:30:33.000Z</time><ele>288.6</ele></trkpt><trkpt lat="48.74994" lon="17.696232"><time>2024-05-01T12:30:34.000Z</time><ele>288.4</ele></trkpt><trkpt lat="48.74997" lon="17.6962"><time>2024-05-01T12:30:35.000Z</time><ele>288.2</ele></trkpt><trkpt lat="48.75" lon="17.696169"><time>2024-05-01T12:30:36.000Z</time><ele>288</ele></trkpt><trkpt lat="48.750027" lon="17.696136"><time>2024-05-01T12:30:37.000Z</time><ele>288</ele></trkpt><trkpt lat="48.75006" lon="17.696108"><time>2024-05-01T12:30:38.000Z</time><ele>288.2</ele></trkpt><trkpt lat="48.750084" lon="17.696089"><time>2024-05-01T12:30:39.000Z</time><ele>288.4</ele></trkpt><trkpt lat="48.75011" lon="17.696062"><time>2024-05-01T12:30:40.000Z</time><ele>288.8</ele></trkpt><trkpt lat="48.75014" lon="17.696035"><time>2024-05-01T12:30:41.000Z</time><ele>289.4</ele></trkpt><trkpt lat="48.750168" lon="17.696009"><time>2024-05-01T12:30:42.000Z</time><ele>290.2</ele></trkpt><trkpt lat="48.750195" lon="17.695984"><time>2024-05-01T12:30:43.000Z</time><ele>291</ele></trkpt><trkpt lat="48.750225" lon="17.695965"><time>2024-05-01T12:30:44.000Z</time><ele>291.8</ele></trkpt><trkpt lat="48.750256" lon="17.695944"><time>2024-05-01T12:30:45.000Z</time><ele>292.4</ele></trkpt><trkpt lat="48.75028" lon="17.695925"><time>2024-05-01T12:30:46.000Z</time><ele>292.8</ele></trkpt><trkpt lat="48.750328" lon="17.695892"><time>2024-05-01T12:30:48.000Z</time><ele>293.2</ele></trkpt><trkpt lat="48.750378" lon="17.695854"><time>2024-05-01T12:30:50.000Z</time><ele>293.4</ele></trkpt><trkpt lat="48.750416" lon="17.695816"><time>2024-05-01T12:30:52.000Z</time><ele>293.8</ele></trkpt><trkpt lat="48.75046" lon="17.695787"><time>2024-05-01T12:30:54.000Z</time><ele>294.2</ele></trkpt><trkpt lat="48.7505" lon="17.695765"><time>2024-05-01T12:30:56.000Z</time><ele>294.8</ele></trkpt><trkpt lat="48.750546" lon="17.695732"><time>2024-05-01T12:30:58.000Z</time><ele>295.4</ele></trkpt><trkpt lat="48.750584" lon="17.6957"><time>2024-05-01T12:31:00.000Z</time><ele>296</ele></trkpt><trkpt lat="48.750633" lon="17.695663"><time>2024-05-01T12:31:02.000Z</time><ele>296.2</ele></trkpt><trkpt lat="48.75067" lon="17.695633"><time>2024-05-01T12:31:04.000Z</time><ele>296.4</ele></trkpt><trkpt lat="48.750694" lon="17.695608"><time>2024-05-01T12:31:06.000Z</time><ele>296.4</ele></trkpt><trkpt lat="48.750736" lon="17.695587"><time>2024-05-01T12:31:08.000Z</time><ele>296.4</ele></trkpt><trkpt lat="48.75077" lon="17.695562"><time>2024-05-01T12:31:10.000Z</time><ele>296.4</ele></trkpt><trkpt lat="48.750813" lon="17.695536"><time>2024-05-01T12:31:12.000Z</time><ele>296.6</ele></trkpt><trkpt lat="48.75084" lon="17.695513"><time>2024-05-01T12:31:14.000Z</time><ele>297.2</ele></trkpt><trkpt lat="48.750877" lon="17.695486"><time>2024-05-01T12:31:16.000Z</time><ele>297.8</ele></trkpt><trkpt lat="48.75091" lon="17.69546"><time>2024-05-01T12:31:18.000Z</time><ele>298.4</ele></trkpt><trkpt lat="48.75096" lon="17.695435"><time>2024-05-01T12:31:20.000Z</time><ele>299.2</ele></trkpt><trkpt lat="48.751" lon="17.695408"><time>2024-05-01T12:31:22.000Z</time><ele>300</ele></trkpt><trkpt lat="48.75104" lon="17.695383"><time>2024-05-01T12:31:24.000Z</time><ele>300.6</ele></trkpt><trkpt lat="48.75108" lon="17.69536"><time>2024-05-01T12:31:26.000Z</time><ele>301.2</ele></trkpt><trkpt lat="48.751118" lon="17.695335"><time>2024-05-01T12:31:28.000Z</time><ele>301.8</ele></trkpt><trkpt lat="48.75116" lon="17.695312"><time>2024-05-01T12:31:30.000Z</time><ele>302.2</ele></trkpt><trkpt lat="48.751205" lon="17.69528"><time>2024-05-01T12:31:32.000Z</time><ele>302.4</ele></trkpt><trkpt lat="48.75124" lon="17.695257"><time>2024-05-01T12:31:34.000Z</time><ele>302.4</ele></trkpt><trkpt lat="48.75129" lon="17.69524"><time>2024-05-01T12:31:36.000Z</time><ele>302.4</ele></trkpt><trkpt lat="48.751328" lon="17.695215"><time>2024-05-01T12:31:38.000Z</time><ele>302</ele></trkpt><trkpt lat="48.751373" lon="17.695196"><time>2024-05-01T12:31:40.000Z</time><ele>301.8</ele></trkpt><trkpt lat="48.751415" lon="17.695175"><time>2024-05-01T12:31:42.000Z</time><ele>302</ele></trkpt><trkpt lat="48.751465" lon="17.695152"><time>2024-05-01T12:31:44.000Z</time><ele>302.2</ele></trkpt><trkpt lat="48.751503" lon="17.695127"><time>2024-05-01T12:31:46.000Z</time><ele>302.2</ele></trkpt><trkpt lat="48.751553" lon="17.695105"><time>2024-05-01T12:31:48.000Z</time><ele>302.4</ele></trkpt><trkpt lat="48.75159" lon="17.695072"><time>2024-05-01T12:31:50.000Z</time><ele>302.4</ele></trkpt><trkpt lat="48.751633" lon="17.69505"><time>2024-05-01T12:31:52.000Z</time><ele>302.6</ele></trkpt><trkpt lat="48.751675" lon="17.695026"><time>2024-05-01T12:31:54.000Z</time><ele>302.8</ele></trkpt><trkpt lat="48.75172" lon="17.695004"><time>2024-05-01T12:31:56.000Z</time><ele>303.4</ele></trkpt><trkpt lat="48.751762" lon="17.69498"><time>2024-05-01T12:31:58.000Z</time><ele>304</ele></trkpt><trkpt lat="48.751804" lon="17.694956"><time>2024-05-01T12:32:00.000Z</time><ele>304.6</ele></trkpt><trkpt lat="48.751846" lon="17.69493"><time>2024-05-01T12:32:02.000Z</time><ele>304.8</ele></trkpt><trkpt lat="48.751892" lon="17.694904"><time>2024-05-01T12:32:04.000Z</time><ele>305</ele></trkpt><trkpt lat="48.751938" lon="17.69488"><time>2024-05-01T12:32:06.000Z</time><ele>305</ele></trkpt><trkpt lat="48.751976" lon="17.694857"><time>2024-05-01T12:32:08.000Z</time><ele>305.2</ele></trkpt><trkpt lat="48.752014" lon="17.69484"><time>2024-05-01T12:32:10.000Z</time><ele>305.4</ele></trkpt><trkpt lat="48.752056" lon="17.694824"><time>2024-05-01T12:32:12.000Z</time><ele>305.8</ele></trkpt><trkpt lat="48.752106" lon="17.694803"><time>2024-05-01T12:32:14.000Z</time><ele>306.2</ele></trkpt><trkpt lat="48.752144" lon="17.694792"><time>2024-05-01T12:32:16.000Z</time><ele>306.6</ele></trkpt><trkpt lat="48.752186" lon="17.694773"><time>2024-05-01T12:32:18.000Z</time><ele>306.8</ele></trkpt><trkpt lat="48.752224" lon="17.694752"><time>2024-05-01T12:32:20.000Z</time><ele>307.2</ele></trkpt><trkpt lat="48.752274" lon="17.694735"><time>2024-05-01T12:32:22.000Z</time><ele>307.6</ele></trkpt><trkpt lat="48.752316" lon="17.69472"><time>2024-05-01T12:32:24.000Z</time><ele>308.2</ele></trkpt><trkpt lat="48.752357" lon="17.6947"><time>2024-05-01T12:32:26.000Z</time><ele>309</ele></trkpt><trkpt lat="48.7524" lon="17.694675"><time>2024-05-01T12:32:28.000Z</time><ele>309.8</ele></trkpt><trkpt lat="48.752445" lon="17.694656"><time>2024-05-01T12:32:30.000Z</time><ele>310.4</ele></trkpt><trkpt lat="48.752487" lon="17.694635"><time>2024-05-01T12:32:32.000Z</time><ele>311</ele></trkpt><trkpt lat="48.75253" lon="17.694616"><time>2024-05-01T12:32:34.000Z</time><ele>311.4</ele></trkpt><trkpt lat="48.75257" lon="17.694595"><time>2024-05-01T12:32:36.000Z</time><ele>311.6</ele></trkpt><trkpt lat="48.752613" lon="17.694572"><time>2024-05-01T12:32:38.000Z</time><ele>312</ele></trkpt><trkpt lat="48.752655" lon="17.694544"><time>2024-05-01T12:32:40.000Z</time><ele>312.4</ele></trkpt><trkpt lat="48.752697" lon="17.69452"><time>2024-05-01T12:32:42.000Z</time><ele>312.6</ele></trkpt><trkpt lat="48.75274" lon="17.694498"><time>2024-05-01T12:32:44.000Z</time><ele>313</ele></trkpt><trkpt lat="48.75278" lon="17.694475"><time>2024-05-01T12:32:46.000Z</time><ele>313.4</ele></trkpt><trkpt lat="48.75282" lon="17.69445"><time>2024-05-01T12:32:48.000Z</time><ele>313.6</ele></trkpt><trkpt lat="48.752857" lon="17.694424"><time>2024-05-01T12:32:50.000Z</time><ele>314</ele></trkpt><trkpt lat="48.752895" lon="17.694403"><time>2024-05-01T12:32:52.000Z</time><ele>314.4</ele></trkpt><trkpt lat="48.752937" lon="17.694376"><time>2024-05-01T12:32:54.000Z</time><ele>314.6</ele></trkpt><trkpt lat="48.752975" lon="17.694351"><time>2024-05-01T12:32:56.000Z</time><ele>315</ele></trkpt><trkpt lat="48.753017" lon="17.694324"><time>2024-05-01T12:32:58.000Z</time><ele>315.4</ele></trkpt><trkpt lat="48.753056" lon="17.6943"><time>2024-05-01T12:33:00.000Z</time><ele>315.8</ele></trkpt><trkpt lat="48.753128" lon="17.694252"><time>2024-05-01T12:33:03.000Z</time><ele>316.8</ele></trkpt><trkpt lat="48.753166" lon="17.694227"><time>2024-05-01T12:33:06.000Z</time><ele>317.2</ele></trkpt><trkpt lat="48.75321" lon="17.694204"><time>2024-05-01T12:33:08.000Z</time><ele>317.6</ele></trkpt><trkpt lat="48.753246" lon="17.694183"><time>2024-05-01T12:33:10.000Z</time><ele>318</ele></trkpt><trkpt lat="48.75329" lon="17.694157"><time>2024-05-01T12:33:12.000Z</time><ele>318.4</ele></trkpt><trkpt lat="48.753323" lon="17.694132"><time>2024-05-01T12:33:14.000Z</time><ele>318.6</ele></trkpt><trkpt lat="48.75336" lon="17.694105"><time>2024-05-01T12:33:16.000Z</time><ele>319</ele></trkpt><trkpt lat="48.753395" lon="17.694088"><time>2024-05-01T12:33:18.000Z</time><ele>319.4</ele></trkpt><trkpt lat="48.75344" lon="17.694069"><time>2024-05-01T12:33:20.000Z</time><ele>319.6</ele></trkpt><trkpt lat="48.75348" lon="17.69405"><time>2024-05-01T12:33:22.000Z</time><ele>319.8</ele></trkpt><trkpt lat="48.75352" lon="17.694029"><time>2024-05-01T12:33:24.000Z</time><ele>320.2</ele></trkpt><trkpt lat="48.753555" lon="17.694004"><time>2024-05-01T12:33:26.000Z</time><ele>320.6</ele></trkpt><trkpt lat="48.7536" lon="17.693975"><time>2024-05-01T12:33:28.000Z</time><ele>321</ele></trkpt><trkpt lat="48.75364" lon="17.693949"><time>2024-05-01T12:33:30.000Z</time><ele>321.4</ele></trkpt><trkpt lat="48.75368" lon="17.693918"><time>2024-05-01T12:33:32.000Z</time><ele>321.8</ele></trkpt><trkpt lat="48.75372" lon="17.693888"><time>2024-05-01T12:33:34.000Z</time><ele>322.2</ele></trkpt><trkpt lat="48.75376" lon="17.693851"><time>2024-05-01T12:33:36.000Z</time><ele>322.6</ele></trkpt><trkpt lat="48.7538" lon="17.693808"><time>2024-05-01T12:33:38.000Z</time><ele>323</ele></trkpt><trkpt lat="48.75384" lon="17.693764"><time>2024-05-01T12:33:40.000Z</time><ele>323.4</ele></trkpt><trkpt lat="48.753876" lon="17.69372"><time>2024-05-01T12:33:42.000Z</time><ele>324</ele></trkpt><trkpt lat="48.753914" lon="17.69367"><time>2024-05-01T12:33:44.000Z</time><ele>324.4</ele></trkpt><trkpt lat="48.75395" lon="17.693613"><time>2024-05-01T12:33:46.000Z</time><ele>324.8</ele></trkpt><trkpt lat="48.753983" lon="17.693552"><time>2024-05-01T12:33:48.000Z</time><ele>325.2</ele></trkpt><trkpt lat="48.754" lon="17.69352"><time>2024-05-01T12:33:49.000Z</time><ele>325.6</ele></trkpt><trkpt lat="48.754032" lon="17.693457"><time>2024-05-01T12:33:51.000Z</time><ele>325.8</ele></trkpt><trkpt lat="48.754063" lon="17.693396"><time>2024-05-01T12:33:53.000Z</time><ele>326.2</ele></trkpt><trkpt lat="48.754097" lon="17.693335"><time>2024-05-01T12:33:55.000Z</time><ele>326.4</ele></trkpt><trkpt lat="48.754128" lon="17.693272"><time>2024-05-01T12:33:57.000Z</time><ele>326.4</ele></trkpt><trkpt lat="48.75416" lon="17.693209"><time>2024-05-01T12:33:59.000Z</time><ele>326.4</ele></trkpt><trkpt lat="48.75419" lon="17.69314"><time>2024-05-01T12:34:01.000Z</time><ele>326.4</ele></trkpt><trkpt lat="48.754215" lon="17.693075"><time>2024-05-01T12:34:03.000Z</time><ele>326.4</ele></trkpt><trkpt lat="48.754246" lon="17.693008"><time>2024-05-01T12:34:05.000Z</time><ele>326.6</ele></trkpt><trkpt lat="48.754272" lon="17.692942"><time>2024-05-01T12:34:07.000Z</time><ele>326.8</ele></trkpt><trkpt lat="48.7543" lon="17.692871"><time>2024-05-01T12:34:09.000Z</time><ele>327.2</ele></trkpt><trkpt lat="48.75431" lon="17.692837"><time>2024-05-01T12:34:10.000Z</time><ele>327.8</ele></trkpt><trkpt lat="48.75434" lon="17.692768"><time>2024-05-01T12:34:12.000Z</time><ele>328.2</ele></trkpt><trkpt lat="48.754364" lon="17.6927"><time>2024-05-01T12:34:14.000Z</time><ele>328.4</ele></trkpt><trkpt lat="48.75439" lon="17.692633"><time>2024-05-01T12:34:16.000Z</time><ele>328.8</ele></trkpt><trkpt lat="48.754402" lon="17.692593"><time>2024-05-01T12:34:17.000Z</time><ele>329.2</ele></trkpt><trkpt lat="48.754417" lon="17.692556"><time>2024-05-01T12:34:18.000Z</time><ele>329.4</ele></trkpt><trkpt lat="48.75444" lon="17.692486"><time>2024-05-01T12:34:20.000Z</time><ele>329.6</ele></trkpt><trkpt lat="48.754456" lon="17.692413"><time>2024-05-01T12:34:22.000Z</time><ele>330</ele></trkpt><trkpt lat="48.75448" lon="17.69234"><time>2024-05-01T12:34:24.000Z</time><ele>330.2</ele></trkpt><trkpt lat="48.75449" lon="17.6923"><time>2024-05-01T12:34:25.000Z</time><ele>330.2</ele></trkpt><trkpt lat="48.75451" lon="17.692226"><time>2024-05-01T12:34:27.000Z</time><ele>330.2</ele></trkpt><trkpt lat="48.754528" lon="17.692154"><time>2024-05-01T12:34:29.000Z</time><ele>330.2</ele></trkpt><trkpt lat="48.754543" lon="17.692083"><time>2024-05-01T12:34:31.000Z</time><ele>330</ele></trkpt><trkpt lat="48.754566" lon="17.692005"><time>2024-05-01T12:34:33.000Z</time><ele>330.2</ele></trkpt><trkpt lat="48.754578" lon="17.691963"><time>2024-05-01T12:34:34.000Z</time><ele>330.4</ele></trkpt><trkpt lat="48.754593" lon="17.691921"><time>2024-05-01T12:34:35.000Z</time><ele>330.6</ele></trkpt><trkpt lat="48.75461" lon="17.691883"><time>2024-05-01T12:34:36.000Z</time><ele>330.8</ele></trkpt><trkpt lat="48.754627" lon="17.691849"><time>2024-05-01T12:34:37.000Z</time><ele>331.2</ele></trkpt><trkpt lat="48.754642" lon="17.691813"><time>2024-05-01T12:34:38.000Z</time><ele>331.4</ele></trkpt><trkpt lat="48.754665" lon="17.691772"><time>2024-05-01T12:34:39.000Z</time><ele>331.4</ele></trkpt><trkpt lat="48.754684" lon="17.691736"><time>2024-05-01T12:34:40.000Z</time><ele>331.4</ele></trkpt><trkpt lat="48.754707" lon="17.691696"><time>2024-05-01T12:34:41.000Z</time><ele>331.4</ele></trkpt><trkpt lat="48.75473" lon="17.69166"><time>2024-05-01T12:34:42.000Z</time><ele>331.2</ele></trkpt><trkpt lat="48.754753" lon="17.691626"><time>2024-05-01T12:34:43.000Z</time><ele>331</ele></trkpt><trkpt lat="48.754776" lon="17.691591"><time>2024-05-01T12:34:44.000Z</time><ele>331.2</ele></trkpt><trkpt lat="48.7548" lon="17.691557"><time>2024-05-01T12:34:45.000Z</time><ele>331.2</ele></trkpt><trkpt lat="48.754826" lon="17.691528"><time>2024-05-01T12:34:46.000Z</time><ele>331.2</ele></trkpt><trkpt lat="48.754845" lon="17.691496"><time>2024-05-01T12:34:47.000Z</time><ele>331.2</ele></trkpt><trkpt lat="48.754864" lon="17.691467"><time>2024-05-01T12:34:48.000Z</time><ele>331.2</ele></trkpt><trkpt lat="48.75491" lon="17.691416"><time>2024-05-01T12:34:50.000Z</time><ele>331</ele></trkpt><trkpt lat="48.754944" lon="17.69136"><time>2024-05-01T12:34:52.000Z</time><ele>331.4</ele></trkpt><trkpt lat="48.75498" lon="17.691305"><time>2024-05-01T12:34:54.000Z</time><ele>331.8</ele></trkpt><trkpt lat="48.755" lon="17.691277"><time>2024-05-01T12:34:55.000Z</time><ele>332.4</ele></trkpt><trkpt lat="48.755016" lon="17.691244"><time>2024-05-01T12:34:56.000Z</time><ele>332.8</ele></trkpt><trkpt lat="48.75504" lon="17.691214"><time>2024-05-01T12:34:57.000Z</time><ele>333.2</ele></trkpt><trkpt lat="48.755054" lon="17.69118"><time>2024-05-01T12:34:58.000Z</time><ele>333.4</ele></trkpt><trkpt lat="48.755077" lon="17.691149"><time>2024-05-01T12:34:59.000Z</time><ele>333.4</ele></trkpt><trkpt lat="48.7551" lon="17.691116"><time>2024-05-01T12:35:00.000Z</time><ele>333.2</ele></trkpt><trkpt lat="48.755123" lon="17.69108"><time>2024-05-01T12:35:01.000Z</time><ele>333.2</ele></trkpt><trkpt lat="48.75515" lon="17.691051"><time>2024-05-01T12:35:02.000Z</time><ele>333.2</ele></trkpt><trkpt lat="48.755173" lon="17.691015"><time>2024-05-01T12:35:03.000Z</time><ele>333</ele></trkpt><trkpt lat="48.755196" lon="17.690987"><time>2024-05-01T12:35:04.000Z</time><ele>333</ele></trkpt><trkpt lat="48.75522" lon="17.69096"><time>2024-05-01T12:35:05.000Z</time><ele>333</ele></trkpt><trkpt lat="48.75525" lon="17.690931"><time>2024-05-01T12:35:06.000Z</time><ele>333.2</ele></trkpt><trkpt lat="48.755272" lon="17.690903"><time>2024-05-01T12:35:07.000Z</time><ele>333.4</ele></trkpt><trkpt lat="48.755295" lon="17.69088"><time>2024-05-01T12:35:08.000Z</time><ele>333.6</ele></trkpt><trkpt lat="48.75532" lon="17.690857"><time>2024-05-01T12:35:09.000Z</time><ele>333.6</ele></trkpt><trkpt lat="48.75535" lon="17.690838"><time>2024-05-01T12:35:10.000Z</time><ele>333.8</ele></trkpt><trkpt lat="48.755367" lon="17.690811"><time>2024-05-01T12:35:11.000Z</time><ele>333.8</ele></trkpt><trkpt lat="48.75539" lon="17.690784"><time>2024-05-01T12:35:12.000Z</time><ele>333.8</ele></trkpt><trkpt lat="48.75542" lon="17.690762"><time>2024-05-01T12:35:13.000Z</time><ele>333.8</ele></trkpt><trkpt lat="48.75544" lon="17.690735"><time>2024-05-01T12:35:14.000Z</time><ele>334</ele></trkpt><trkpt lat="48.755463" lon="17.690708"><time>2024-05-01T12:35:15.000Z</time><ele>334</ele></trkpt><trkpt lat="48.755505" lon="17.69066"><time>2024-05-01T12:35:17.000Z</time><ele>334.2</ele></trkpt><trkpt lat="48.75552" lon="17.690626"><time>2024-05-01T12:35:18.000Z</time><ele>334.4</ele></trkpt><trkpt lat="48.755535" lon="17.690586"><time>2024-05-01T12:35:19.000Z</time><ele>334.6</ele></trkpt><trkpt lat="48.755573" lon="17.690529"><time>2024-05-01T12:35:21.000Z</time><ele>335.2</ele></trkpt><trkpt lat="48.755608" lon="17.690487"><time>2024-05-01T12:35:23.000Z</time><ele>336</ele></trkpt><trkpt lat="48.75564" lon="17.690445"><time>2024-05-01T12:35:25.000Z</time><ele>336.6</ele></trkpt><trkpt lat="48.75567" lon="17.690395"><time>2024-05-01T12:35:27.000Z</time><ele>337.4</ele></trkpt><trkpt lat="48.755695" lon="17.690355"><time>2024-05-01T12:35:29.000Z</time><ele>338.2</ele></trkpt><trkpt lat="48.75572" lon="17.690308"><time>2024-05-01T12:35:31.000Z</time><ele>338.6</ele></trkpt><trkpt lat="48.755753" lon="17.690252"><time>2024-05-01T12:35:33.000Z</time><ele>339</ele></trkpt><trkpt lat="48.755787" lon="17.6902"><time>2024-05-01T12:35:35.000Z</time><ele>339.4</ele></trkpt><trkpt lat="48.755825" lon="17.69016"><time>2024-05-01T12:35:37.000Z</time><ele>339.6</ele></trkpt><trkpt lat="48.75585" lon="17.690125"><time>2024-05-01T12:35:39.000Z</time><ele>339.8</ele></trkpt><trkpt lat="48.755882" lon="17.690153"><time>2024-05-01T12:35:41.000Z</time><ele>340.2</ele></trkpt><trkpt lat="48.755894" lon="17.690216"><time>2024-05-01T12:35:43.000Z</time><ele>340</ele></trkpt><trkpt lat="48.75589" lon="17.690268"><time>2024-05-01T12:35:45.000Z</time><ele>339.8</ele></trkpt><trkpt lat="48.755875" lon="17.690325"><time>2024-05-01T12:35:47.000Z</time><ele>340.2</ele></trkpt><trkpt lat="48.755882" lon="17.690372"><time>2024-05-01T12:35:49.000Z</time><ele>340.6</ele></trkpt><trkpt lat="48.755913" lon="17.69042"><time>2024-05-01T12:35:51.000Z</time><ele>340.8</ele></trkpt><trkpt lat="48.75594" lon="17.690468"><time>2024-05-01T12:35:53.000Z</time><ele>341.4</ele></trkpt><trkpt lat="48.75596" lon="17.69052"><time>2024-05-01T12:35:55.000Z</time><ele>342</ele></trkpt><trkpt lat="48.75598" lon="17.690584"><time>2024-05-01T12:35:57.000Z</time><ele>342</ele></trkpt><trkpt lat="48.75601" lon="17.690645"><time>2024-05-01T12:35:59.000Z</time><ele>342</ele></trkpt><trkpt lat="48.756058" lon="17.690744"><time>2024-05-01T12:36:02.000Z</time><ele>342</ele></trkpt><trkpt lat="48.756077" lon="17.690783"><time>2024-05-01T12:36:03.000Z</time><ele>342</ele></trkpt><trkpt lat="48.756096" lon="17.690844"><time>2024-05-01T12:36:05.000Z</time><ele>342.2</ele></trkpt><trkpt lat="48.756096" lon="17.69092"><time>2024-05-01T12:36:07.000Z</time><ele>342.4</ele></trkpt><trkpt lat="48.756092" lon="17.690962"><time>2024-05-01T12:36:08.000Z</time><ele>342.6</ele></trkpt><trkpt lat="48.756096" lon="17.691036"><time>2024-05-01T12:36:10.000Z</time><ele>342.8</ele></trkpt><trkpt lat="48.75611" lon="17.691086"><time>2024-05-01T12:36:11.000Z</time><ele>342.8</ele></trkpt><trkpt lat="48.756126" lon="17.691135"><time>2024-05-01T12:36:12.000Z</time><ele>342.6</ele></trkpt><trkpt lat="48.75615" lon="17.69118"><time>2024-05-01T12:36:13.000Z</time><ele>342.4</ele></trkpt><trkpt lat="48.75616" lon="17.691216"><time>2024-05-01T12:36:14.000Z</time><ele>342.2</ele></trkpt><trkpt lat="48.756187" lon="17.691284"><time>2024-05-01T12:36:16.000Z</time><ele>342.2</ele></trkpt><trkpt lat="48.756195" lon="17.691324"><time>2024-05-01T12:36:17.000Z</time><ele>342.4</ele></trkpt><trkpt lat="48.756203" lon="17.691395"><time>2024-05-01T12:36:19.000Z</time><ele>342.6</ele></trkpt><trkpt lat="48.756195" lon="17.691696"><time>2024-05-01T12:36:24.000Z</time><ele>343</ele></trkpt><trkpt lat="48.756214" lon="17.691849"><time>2024-05-01T12:36:27.000Z</time><ele>343</ele></trkpt><trkpt lat="48.756214" lon="17.691912"><time>2024-05-01T12:36:28.000Z</time><ele>342.8</ele></trkpt><trkpt lat="48.756207" lon="17.691969"><time>2024-05-01T12:36:29.000Z</time><ele>342.6</ele></trkpt><trkpt lat="48.756176" lon="17.69199"><time>2024-05-01T12:36:30.000Z</time><ele>342.4</ele></trkpt><trkpt lat="48.756153" lon="17.692013"><time>2024-05-01T12:36:31.000Z</time><ele>342.2</ele></trkpt><trkpt lat="48.756126" lon="17.692038"><time>2024-05-01T12:36:32.000Z</time><ele>342</ele></trkpt><trkpt lat="48.75612" lon="17.692076"><time>2024-05-01T12:36:33.000Z</time><ele>342</ele></trkpt><trkpt lat="48.756123" lon="17.692152"><time>2024-05-01T12:36:35.000Z</time><ele>342.2</ele></trkpt><trkpt lat="48.756153" lon="17.692207"><time>2024-05-01T12:36:37.000Z</time><ele>342.6</ele></trkpt><trkpt lat="48.756176" lon="17.69226"><time>2024-05-01T12:36:39.000Z</time><ele>343.2</ele></trkpt><trkpt lat="48.75618" lon="17.692305"><time>2024-05-01T12:36:41.000Z</time><ele>343.8</ele></trkpt><trkpt lat="48.756176" lon="17.692356"><time>2024-05-01T12:36:42.000Z</time><ele>344.4</ele></trkpt><trkpt lat="48.75617" lon="17.692406"><time>2024-05-01T12:36:45.000Z</time><ele>344.8</ele></trkpt><trkpt lat="48.75616" lon="17.692446"><time>2024-05-01T12:36:47.000Z</time><ele>345.4</ele></trkpt><trkpt lat="48.756145" lon="17.692488"><time>2024-05-01T12:36:50.000Z</time><ele>346</ele></trkpt><trkpt lat="48.756157" lon="17.692556"><time>2024-05-01T12:36:53.000Z</time><ele>346.6</ele></trkpt><trkpt lat="48.756165" lon="17.692612"><time>2024-05-01T12:36:55.000Z</time><ele>347.2</ele></trkpt><trkpt lat="48.756153" lon="17.692614"><time>2024-05-01T12:36:57.000Z</time><ele>347.8</ele></trkpt><trkpt lat="48.756145" lon="17.692621"><time>2024-05-01T12:37:30.000Z</time><ele>348.4</ele></trkpt><trkpt lat="48.756126" lon="17.692663"><time>2024-05-01T12:37:33.000Z</time><ele>348.8</ele></trkpt><trkpt lat="48.756107" lon="17.69274"><time>2024-05-01T12:37:35.000Z</time><ele>349</ele></trkpt><trkpt lat="48.75616" lon="17.692797"><time>2024-05-01T12:37:36.000Z</time><ele>349</ele></trkpt><trkpt lat="48.756153" lon="17.69296"><time>2024-05-01T12:37:39.000Z</time><ele>348.8</ele></trkpt><trkpt lat="48.75614" lon="17.693228"><time>2024-05-01T12:37:42.000Z</time><ele>348.2</ele></trkpt><trkpt lat="48.75612" lon="17.693316"><time>2024-05-01T12:37:43.000Z</time><ele>347.8</ele></trkpt><trkpt lat="48.756058" lon="17.693333"><time>2024-05-01T12:37:44.000Z</time><ele>347.2</ele></trkpt><trkpt lat="48.756004" lon="17.6933"><time>2024-05-01T12:37:45.000Z</time><ele>346.2</ele></trkpt><trkpt lat="48.755943" lon="17.693256"><time>2024-05-01T12:37:46.000Z</time><ele>345.4</ele></trkpt><trkpt lat="48.755733" lon="17.693283"><time>2024-05-01T12:37:49.000Z</time><ele>343</ele></trkpt><trkpt lat="48.75561" lon="17.6934"><time>2024-05-01T12:37:51.000Z</time><ele>342.2</ele></trkpt><trkpt lat="48.75556" lon="17.693417"><time>2024-05-01T12:37:52.000Z</time><ele>341.8</ele></trkpt><trkpt lat="48.75554" lon="17.693365"><time>2024-05-01T12:37:53.000Z</time><ele>341.2</ele></trkpt><trkpt lat="48.755493" lon="17.69332"><time>2024-05-01T12:37:54.000Z</time><ele>341</ele></trkpt><trkpt lat="48.755447" lon="17.693266"><time>2024-05-01T12:37:55.000Z</time><ele>340.8</ele></trkpt><trkpt lat="48.75539" lon="17.693283"><time>2024-05-01T12:37:56.000Z</time><ele>340.8</ele></trkpt><trkpt lat="48.75536" lon="17.693312"><time>2024-05-01T12:37:57.000Z</time><ele>341.2</ele></trkpt><trkpt lat="48.755314" lon="17.693344"><time>2024-05-01T12:37:58.000Z</time><ele>341.6</ele></trkpt><trkpt lat="48.75532" lon="17.69342"><time>2024-05-01T12:37:59.000Z</time><ele>341.6</ele></trkpt><trkpt lat="48.75532" lon="17.693483"><time>2024-05-01T12:38:00.000Z</time><ele>341.2</ele></trkpt><trkpt lat="48.755287" lon="17.693542"><time>2024-05-01T12:38:01.000Z</time><ele>340.6</ele></trkpt><trkpt lat="48.755264" lon="17.6936"><time>2024-05-01T12:38:02.000Z</time><ele>340</ele></trkpt><trkpt lat="48.75524" lon="17.693657"><time>2024-05-01T12:38:03.000Z</time><ele>339.2</ele></trkpt><trkpt lat="48.755203" lon="17.693733"><time>2024-05-01T12:38:04.000Z</time><ele>338.6</ele></trkpt><trkpt lat="48.75518" lon="17.693842"><time>2024-05-01T12:38:05.000Z</time><ele>338.4</ele></trkpt><trkpt lat="48.75519" lon="17.693949"><time>2024-05-01T12:38:06.000Z</time><ele>338.4</ele></trkpt><trkpt lat="48.75524" lon="17.694012"><time>2024-05-01T12:38:07.000Z</time><ele>338.6</ele></trkpt><trkpt lat="48.755302" lon="17.694057"><time>2024-05-01T12:38:08.000Z</time><ele>338.4</ele></trkpt><trkpt lat="48.75535" lon="17.694096"><time>2024-05-01T12:38:09.000Z</time><ele>338.4</ele></trkpt><trkpt lat="48.75533" lon="17.694168"><time>2024-05-01T12:38:10.000Z</time><ele>338.2</ele></trkpt><trkpt lat="48.755272" lon="17.694178"><time>2024-05-01T12:38:11.000Z</time><ele>337</ele></trkpt><trkpt lat="48.75524" lon="17.69414"><time>2024-05-01T12:38:12.000Z</time><ele>335.4</ele></trkpt><trkpt lat="48.755207" lon="17.694115"><time>2024-05-01T12:38:13.000Z</time><ele>334.2</ele></trkpt><trkpt lat="48.755157" lon="17.69408"><time>2024-05-01T12:38:14.000Z</time><ele>332.6</ele></trkpt><trkpt lat="48.755104" lon="17.6941"><time>2024-05-01T12:38:15.000Z</time><ele>331.2</ele></trkpt><trkpt lat="48.75509" lon="17.69416"><time>2024-05-01T12:38:16.000Z</time><ele>330.8</ele></trkpt><trkpt lat="48.755123" lon="17.69425"><time>2024-05-01T12:38:17.000Z</time><ele>330.6</ele></trkpt><trkpt lat="48.75515" lon="17.694328"><time>2024-05-01T12:38:18.000Z</time><ele>330.6</ele></trkpt><trkpt lat="48.755165" lon="17.694403"><time>2024-05-01T12:38:19.000Z</time><ele>330.8</ele></trkpt><trkpt lat="48.75512" lon="17.694502"><time>2024-05-01T12:38:20.000Z</time><ele>330.8</ele></trkpt><trkpt lat="48.755074" lon="17.694597"><time>2024-05-01T12:38:21.000Z</time><ele>330.4</ele></trkpt><trkpt lat="48.755024" lon="17.694654"><time>2024-05-01T12:38:22.000Z</time><ele>329.8</ele></trkpt><trkpt lat="48.754974" lon="17.694668"><time>2024-05-01T12:38:23.000Z</time><ele>329.2</ele></trkpt><trkpt lat="48.754917" lon="17.694672"><time>2024-05-01T12:38:24.000Z</time><ele>327.8</ele></trkpt><trkpt lat="48.754856" lon="17.694696"><time>2024-05-01T12:38:25.000Z</time><ele>326.6</ele></trkpt><trkpt lat="48.754826" lon="17.694742"><time>2024-05-01T12:38:26.000Z</time><ele>325.6</ele></trkpt><trkpt lat="48.754776" lon="17.694784"><time>2024-05-01T12:38:27.000Z</time><ele>325.4</ele></trkpt><trkpt lat="48.75472" lon="17.694853"><time>2024-05-01T12:38:28.000Z</time><ele>325</ele></trkpt><trkpt lat="48.754665" lon="17.69485"><time>2024-05-01T12:38:29.000Z</time><ele>325</ele></trkpt><trkpt lat="48.754578" lon="17.694876"><time>2024-05-01T12:38:30.000Z</time><ele>325</ele></trkpt><trkpt lat="48.75449" lon="17.694897"><time>2024-05-01T12:38:31.000Z</time><ele>324.6</ele></trkpt><trkpt lat="48.754433" lon="17.694923"><time>2024-05-01T12:38:32.000Z</time><ele>323.6</ele></trkpt><trkpt lat="48.75439" lon="17.694956"><time>2024-05-01T12:38:33.000Z</time><ele>322.6</ele></trkpt><trkpt lat="48.754314" lon="17.695034"><time>2024-05-01T12:38:34.000Z</time><ele>321.8</ele></trkpt><trkpt lat="48.754234" lon="17.695095"><time>2024-05-01T12:38:35.000Z</time><ele>320.6</ele></trkpt><trkpt lat="48.75416" lon="17.695152"><time>2024-05-01T12:38:36.000Z</time><ele>319.8</ele></trkpt><trkpt lat="48.75408" lon="17.695215"><time>2024-05-01T12:38:37.000Z</time><ele>318.6</ele></trkpt><trkpt lat="48.75399" lon="17.695251"><time>2024-05-01T12:38:38.000Z</time><ele>317.4</ele></trkpt><trkpt lat="48.75392" lon="17.695288"><time>2024-05-01T12:38:39.000Z</time><ele>316.2</ele></trkpt><trkpt lat="48.75384" lon="17.695326"><time>2024-05-01T12:38:40.000Z</time><ele>315.4</ele></trkpt><trkpt lat="48.75377" lon="17.695335"><time>2024-05-01T12:38:41.000Z</time><ele>314.6</ele></trkpt><trkpt lat="48.753704" lon="17.69535"><time>2024-05-01T12:38:42.000Z</time><ele>314.2</ele></trkpt><trkpt lat="48.753643" lon="17.695408"><time>2024-05-01T12:38:43.000Z</time><ele>314</ele></trkpt><trkpt lat="48.75358" lon="17.695454"><time>2024-05-01T12:38:44.000Z</time><ele>314</ele></trkpt><trkpt lat="48.753517" lon="17.695503"><time>2024-05-01T12:38:45.000Z</time><ele>314</ele></trkpt><trkpt lat="48.753445" lon="17.69554"><time>2024-05-01T12:38:46.000Z</time><ele>313.6</ele></trkpt><trkpt lat="48.753384" lon="17.695536"><time>2024-05-01T12:38:47.000Z</time><ele>313</ele></trkpt><trkpt lat="48.753338" lon="17.695576"><time>2024-05-01T12:38:48.000Z</time><ele>312.6</ele></trkpt><trkpt lat="48.75329" lon="17.695633"><time>2024-05-01T12:38:49.000Z</time><ele>311.8</ele></trkpt><trkpt lat="48.75322" lon="17.695635"><time>2024-05-01T12:38:50.000Z</time><ele>310.8</ele></trkpt><trkpt lat="48.75316" lon="17.695656"><time>2024-05-01T12:38:51.000Z</time><ele>309.8</ele></trkpt><trkpt lat="48.75309" lon="17.69565"><time>2024-05-01T12:38:52.000Z</time><ele>309</ele></trkpt><trkpt lat="48.753017" lon="17.695633"><time>2024-05-01T12:38:53.000Z</time><ele>307.8</ele></trkpt><trkpt lat="48.752956" lon="17.695593"><time>2024-05-01T12:38:54.000Z</time><ele>307</ele></trkpt><trkpt lat="48.752888" lon="17.695616"><time>2024-05-01T12:38:55.000Z</time><ele>306.6</ele></trkpt><trkpt lat="48.752827" lon="17.695652"><time>2024-05-01T12:38:56.000Z</time><ele>306.6</ele></trkpt><trkpt lat="48.752754" lon="17.695663"><time>2024-05-01T12:38:57.000Z</time><ele>306.4</ele></trkpt><trkpt lat="48.752693" lon="17.695671"><time>2024-05-01T12:38:58.000Z</time><ele>306.2</ele></trkpt><trkpt lat="48.752632" lon="17.695667"><time>2024-05-01T12:38:59.000Z</time><ele>306</ele></trkpt><trkpt lat="48.752586" lon="17.695744"><time>2024-05-01T12:39:00.000Z</time><ele>305.8</ele></trkpt><trkpt lat="48.752506" lon="17.69578"><time>2024-05-01T12:39:01.000Z</time><ele>306</ele></trkpt><trkpt lat="48.752453" lon="17.695805"><time>2024-05-01T12:39:02.000Z</time><ele>306.2</ele></trkpt><trkpt lat="48.752403" lon="17.695862"><time>2024-05-01T12:39:03.000Z</time><ele>306.6</ele></trkpt><trkpt lat="48.752445" lon="17.695948"><time>2024-05-01T12:39:04.000Z</time><ele>306.2</ele></trkpt><trkpt lat="48.752453" lon="17.696016"><time>2024-05-01T12:39:05.000Z</time><ele>305.4</ele></trkpt><trkpt lat="48.752434" lon="17.696102"><time>2024-05-01T12:39:06.000Z</time><ele>304.2</ele></trkpt><trkpt lat="48.752396" lon="17.69615"><time>2024-05-01T12:39:07.000Z</time><ele>303</ele></trkpt><trkpt lat="48.752342" lon="17.696213"><time>2024-05-01T12:39:08.000Z</time><ele>301.6</ele></trkpt><trkpt lat="48.752308" lon="17.696283"><time>2024-05-01T12:39:09.000Z</time><ele>300.8</ele></trkpt><trkpt lat="48.752296" lon="17.69636"><time>2024-05-01T12:39:10.000Z</time><ele>300.4</ele></trkpt><trkpt lat="48.75226" lon="17.696424"><time>2024-05-01T12:39:11.000Z</time><ele>299.6</ele></trkpt><trkpt lat="48.7522" lon="17.696484"><time>2024-05-01T12:39:12.000Z</time><ele>299</ele></trkpt><trkpt lat="48.752136" lon="17.696527"><time>2024-05-01T12:39:13.000Z</time><ele>298.4</ele></trkpt><trkpt lat="48.752075" lon="17.69662"><time>2024-05-01T12:39:14.000Z</time><ele>298</ele></trkpt><trkpt lat="48.752014" lon="17.69668"><time>2024-05-01T12:39:15.000Z</time><ele>297.2</ele></trkpt><trkpt lat="48.751945" lon="17.696716"><time>2024-05-01T12:39:16.000Z</time><ele>296.4</ele></trkpt><trkpt lat="48.75186" lon="17.696756"><time>2024-05-01T12:39:17.000Z</time><ele>295.2</ele></trkpt><trkpt lat="48.751812" lon="17.69677"><time>2024-05-01T12:39:18.000Z</time><ele>294</ele></trkpt><trkpt lat="48.75174" lon="17.696768"><time>2024-05-01T12:39:19.000Z</time><ele>292.6</ele></trkpt><trkpt lat="48.75167" lon="17.696772"><time>2024-05-01T12:39:20.000Z</time><ele>291.2</ele></trkpt><trkpt lat="48.751625" lon="17.696812"><time>2024-05-01T12:39:21.000Z</time><ele>290.4</ele></trkpt><trkpt lat="48.75159" lon="17.696875"><time>2024-05-01T12:39:22.000Z</time><ele>289.4</ele></trkpt><trkpt lat="48.751564" lon="17.696968"><time>2024-05-01T12:39:23.000Z</time><ele>289</ele></trkpt><trkpt lat="48.75152" lon="17.697071"><time>2024-05-01T12:39:24.000Z</time><ele>288.6</ele></trkpt><trkpt lat="48.75145" lon="17.697147"><time>2024-05-01T12:39:25.000Z</time><ele>288.4</ele></trkpt><trkpt lat="48.751404" lon="17.6972"><time>2024-05-01T12:39:26.000Z</time><ele>287.8</ele></trkpt><trkpt lat="48.751335" lon="17.697245"><time>2024-05-01T12:39:27.000Z</time><ele>288</ele></trkpt><trkpt lat="48.75128" lon="17.697254"><time>2024-05-01T12:39:28.000Z</time><ele>287.6</ele></trkpt><trkpt lat="48.75122" lon="17.697268"><time>2024-05-01T12:39:29.000Z</time><ele>287.6</ele></trkpt><trkpt lat="48.751163" lon="17.69728"><time>2024-05-01T12:39:30.000Z</time><ele>287.6</ele></trkpt><trkpt lat="48.75112" lon="17.697308"><time>2024-05-01T12:39:31.000Z</time><ele>287.6</ele></trkpt><trkpt lat="48.751064" lon="17.697355"><time>2024-05-01T12:39:32.000Z</time><ele>287.4</ele></trkpt><trkpt lat="48.75101" lon="17.697409"><time>2024-05-01T12:39:33.000Z</time><ele>287.4</ele></trkpt><trkpt lat="48.75097" lon="17.697428"><time>2024-05-01T12:39:34.000Z</time><ele>287.2</ele></trkpt><trkpt lat="48.75091" lon="17.697432"><time>2024-05-01T12:39:35.000Z</time><ele>286.8</ele></trkpt><trkpt lat="48.750862" lon="17.697435"><time>2024-05-01T12:39:36.000Z</time><ele>286.2</ele></trkpt><trkpt lat="48.75082" lon="17.697445"><time>2024-05-01T12:39:37.000Z</time><ele>285.6</ele></trkpt><trkpt lat="48.750767" lon="17.697445"><time>2024-05-01T12:39:38.000Z</time><ele>284.8</ele></trkpt><trkpt lat="48.75072" lon="17.697435"><time>2024-05-01T12:39:39.000Z</time><ele>284</ele></trkpt><trkpt lat="48.75068" lon="17.69746"><time>2024-05-01T12:39:40.000Z</time><ele>283.6</ele></trkpt><trkpt lat="48.750664" lon="17.697517"><time>2024-05-01T12:39:41.000Z</time><ele>283.2</ele></trkpt><trkpt lat="48.75063" lon="17.697563"><time>2024-05-01T12:39:42.000Z</time><ele>282.8</ele></trkpt><trkpt lat="48.750576" lon="17.69754"><time>2024-05-01T12:39:43.000Z</time><ele>282.6</ele></trkpt><trkpt lat="48.750565" lon="17.6976"><time>2024-05-01T12:39:44.000Z</time><ele>282.2</ele></trkpt><trkpt lat="48.75057" lon="17.697655"><time>2024-05-01T12:39:45.000Z</time><ele>281.8</ele></trkpt><trkpt lat="48.750607" lon="17.697712"><time>2024-05-01T12:39:46.000Z</time><ele>281.6</ele></trkpt><trkpt lat="48.75067" lon="17.697676"><time>2024-05-01T12:39:47.000Z</time><ele>281.4</ele></trkpt><trkpt lat="48.75073" lon="17.697685"><time>2024-05-01T12:39:48.000Z</time><ele>281</ele></trkpt><trkpt lat="48.750755" lon="17.69774"><time>2024-05-01T12:39:49.000Z</time><ele>280.6</ele></trkpt><trkpt lat="48.750755" lon="17.697807"><time>2024-05-01T12:39:50.000Z</time><ele>280</ele></trkpt><trkpt lat="48.750793" lon="17.697866"><time>2024-05-01T12:39:51.000Z</time><ele>279.4</ele></trkpt><trkpt lat="48.75082" lon="17.697891"><time>2024-05-01T12:39:52.000Z</time><ele>279</ele></trkpt><trkpt lat="48.751087" lon="17.697828"><time>2024-05-01T12:39:56.000Z</time><ele>278.4</ele></trkpt><trkpt lat="48.751133" lon="17.697788"><time>2024-05-01T12:39:57.000Z</time><ele>278.2</ele></trkpt><trkpt lat="48.75121" lon="17.697779"><time>2024-05-01T12:39:59.000Z</time><ele>277.8</ele></trkpt><trkpt lat="48.75124" lon="17.697811"><time>2024-05-01T12:40:00.000Z</time><ele>277.2</ele></trkpt><trkpt lat="48.751255" lon="17.697847"><time>2024-05-01T12:40:01.000Z</time><ele>276.4</ele></trkpt><trkpt lat="48.75123" lon="17.697884"><time>2024-05-01T12:40:02.000Z</time><ele>275.4</ele></trkpt><trkpt lat="48.751183" lon="17.697924"><time>2024-05-01T12:40:03.000Z</time><ele>274.4</ele></trkpt><trkpt lat="48.75112" lon="17.69796"><time>2024-05-01T12:40:04.000Z</time><ele>273.6</ele></trkpt><trkpt lat="48.75108" lon="17.697996"><time>2024-05-01T12:40:05.000Z</time><ele>272.8</ele></trkpt><trkpt lat="48.75102" lon="17.698036"><time>2024-05-01T12:40:06.000Z</time><ele>272.2</ele></trkpt><trkpt lat="48.75097" lon="17.69805"><time>2024-05-01T12:40:07.000Z</time><ele>271.6</ele></trkpt><trkpt lat="48.75095" lon="17.698095"><time>2024-05-01T12:40:08.000Z</time><ele>271</ele></trkpt><trkpt lat="48.750957" lon="17.698164"><time>2024-05-01T12:40:10.000Z</time><ele>270.2</ele></trkpt><trkpt lat="48.750973" lon="17.69822"><time>2024-05-01T12:40:11.000Z</time><ele>269.8</ele></trkpt><trkpt lat="48.750973" lon="17.698296"><time>2024-05-01T12:40:12.000Z</time><ele>269.4</ele></trkpt><trkpt lat="48.750977" lon="17.69837"><time>2024-05-01T12:40:13.000Z</time><ele>269</ele></trkpt><trkpt lat="48.750935" lon="17.69844"><time>2024-05-01T12:40:14.000Z</time><ele>268.8</ele></trkpt><trkpt lat="48.750893" lon="17.698452"><time>2024-05-01T12:40:15.000Z</time><ele>268.4</ele></trkpt><trkpt lat="48.750847" lon="17.698492"><time>2024-05-01T12:40:16.000Z</time><ele>267.6</ele></trkpt><trkpt lat="48.75081" lon="17.698536"><time>2024-05-01T12:40:17.000Z</time><ele>266.6</ele></trkpt><trkpt lat="48.750793" lon="17.698578"><time>2024-05-01T12:40:18.000Z</time><ele>265.6</ele></trkpt><trkpt lat="48.75075" lon="17.698608"><time>2024-05-01T12:40:19.000Z</time><ele>264.2</ele></trkpt><trkpt lat="48.7507" lon="17.698673"><time>2024-05-01T12:40:20.000Z</time><ele>263.2</ele></trkpt><trkpt lat="48.75068" lon="17.69872"><time>2024-05-01T12:40:21.000Z</time><ele>262.4</ele></trkpt><trkpt lat="48.75065" lon="17.698772"><time>2024-05-01T12:40:22.000Z</time><ele>262</ele></trkpt><trkpt lat="48.750626" lon="17.698845"><time>2024-05-01T12:40:23.000Z</time><ele>261.8</ele></trkpt><trkpt lat="48.750572" lon="17.69888"><time>2024-05-01T12:40:24.000Z</time><ele>261.4</ele></trkpt><trkpt lat="48.75035" lon="17.698992"><time>2024-05-01T12:40:27.000Z</time><ele>258.8</ele></trkpt><trkpt lat="48.75012" lon="17.69899"><time>2024-05-01T12:40:30.000Z</time><ele>253.8</ele></trkpt><trkpt lat="48.750072" lon="17.699022"><time>2024-05-01T12:40:31.000Z</time><ele>252.4</ele></trkpt><trkpt lat="48.750008" lon="17.699032"><time>2024-05-01T12:40:32.000Z</time><ele>251</ele></trkpt><trkpt lat="48.74996" lon="17.69906"><time>2024-05-01T12:40:33.000Z</time><ele>249.6</ele></trkpt><trkpt lat="48.749912" lon="17.699093"><time>2024-05-01T12:40:34.000Z</time><ele>248.8</ele></trkpt><trkpt lat="48.749775" lon="17.69914"><time>2024-05-01T12:40:36.000Z</time><ele>247.8</ele></trkpt><trkpt lat="48.749714" lon="17.699156"><time>2024-05-01T12:40:37.000Z</time><ele>246.8</ele></trkpt><trkpt lat="48.749683" lon="17.699244"><time>2024-05-01T12:40:38.000Z</time><ele>246</ele></trkpt><trkpt lat="48.74967" lon="17.699327"><time>2024-05-01T12:40:40.000Z</time><ele>245.2</ele></trkpt><trkpt lat="48.74964" lon="17.699364"><time>2024-05-01T12:40:41.000Z</time><ele>244.4</ele></trkpt><trkpt lat="48.749622" lon="17.699444"><time>2024-05-01T12:40:42.000Z</time><ele>244</ele></trkpt><trkpt lat="48.749672" lon="17.699476"><time>2024-05-01T12:40:44.000Z</time><ele>243.8</ele></trkpt><trkpt lat="48.749733" lon="17.699512"><time>2024-05-01T12:40:45.000Z</time><ele>243.2</ele></trkpt><trkpt lat="48.749783" lon="17.69953"><time>2024-05-01T12:40:46.000Z</time><ele>242.4</ele></trkpt><trkpt lat="48.749817" lon="17.69952"><time>2024-05-01T12:40:47.000Z</time><ele>241.4</ele></trkpt><trkpt lat="48.749847" lon="17.699549"><time>2024-05-01T12:40:49.000Z</time><ele>240.6</ele></trkpt><trkpt lat="48.74986" lon="17.69955"><time>2024-05-01T12:40:50.000Z</time><ele>240</ele></trkpt><trkpt lat="48.749866" lon="17.699589"><time>2024-05-01T12:41:16.000Z</time><ele>240.6</ele></trkpt><trkpt lat="48.74991" lon="17.699612"><time>2024-05-01T12:41:18.000Z</time><ele>241.4</ele></trkpt><trkpt lat="48.749977" lon="17.699612"><time>2024-05-01T12:41:19.000Z</time><ele>243.2</ele></trkpt><trkpt lat="48.75001" lon="17.699636"><time>2024-05-01T12:41:21.000Z</time><ele>244.2</ele></trkpt><trkpt lat="48.749992" lon="17.6997"><time>2024-05-01T12:41:22.000Z</time><ele>244.2</ele></trkpt><trkpt lat="48.749912" lon="17.699755"><time>2024-05-01T12:41:24.000Z</time><ele>243.6</ele></trkpt><trkpt lat="48.74988" lon="17.699802"><time>2024-05-01T12:41:25.000Z</time><ele>242.6</ele></trkpt><trkpt lat="48.74989" lon="17.699871"><time>2024-05-01T12:41:26.000Z</time><ele>241.4</ele></trkpt><trkpt lat="48.749874" lon="17.699917"><time>2024-05-01T12:41:27.000Z</time><ele>240.2</ele></trkpt><trkpt lat="48.74987" lon="17.69998"><time>2024-05-01T12:41:28.000Z</time><ele>239.2</ele></trkpt><trkpt lat="48.749863" lon="17.70003"><time>2024-05-01T12:41:29.000Z</time><ele>238.4</ele></trkpt><trkpt lat="48.749844" lon="17.700092"><time>2024-05-01T12:41:30.000Z</time><ele>237.8</ele></trkpt><trkpt lat="48.749836" lon="17.700151"><time>2024-05-01T12:41:31.000Z</time><ele>237.4</ele></trkpt><trkpt lat="48.749825" lon="17.700205"><time>2024-05-01T12:41:32.000Z</time><ele>237.4</ele></trkpt><trkpt lat="48.749817" lon="17.700264"><time>2024-05-01T12:41:33.000Z</time><ele>237.4</ele></trkpt><trkpt lat="48.749813" lon="17.700317"><time>2024-05-01T12:41:34.000Z</time><ele>237.2</ele></trkpt><trkpt lat="48.74981" lon="17.700363"><time>2024-05-01T12:41:35.000Z</time><ele>236.8</ele></trkpt><trkpt lat="48.7498" lon="17.70044"><time>2024-05-01T12:41:37.000Z</time><ele>236.8</ele></trkpt><trkpt lat="48.74979" lon="17.700481"><time>2024-05-01T12:41:38.000Z</time><ele>236.4</ele></trkpt><trkpt lat="48.74977" lon="17.700512"><time>2024-05-01T12:41:39.000Z</time><ele>236</ele></trkpt><trkpt lat="48.749737" lon="17.700533"><time>2024-05-01T12:41:40.000Z</time><ele>236.4</ele></trkpt><trkpt lat="48.74969" lon="17.700563"><time>2024-05-01T12:41:42.000Z</time><ele>237</ele></trkpt><trkpt lat="48.749664" lon="17.700592"><time>2024-05-01T12:41:44.000Z</time><ele>236.6</ele></trkpt><trkpt lat="48.74962" lon="17.700607"><time>2024-05-01T12:41:46.000Z</time><ele>236.2</ele></trkpt><trkpt lat="48.749588" lon="17.700605"><time>2024-05-01T12:41:48.000Z</time><ele>235.8</ele></trkpt><trkpt lat="48.749554" lon="17.70064"><time>2024-05-01T12:41:50.000Z</time><ele>235</ele></trkpt><trkpt lat="48.749527" lon="17.700674"><time>2024-05-01T12:41:52.000Z</time><ele>234.4</ele></trkpt><trkpt lat="48.749516" lon="17.700727"><time>2024-05-01T12:41:54.000Z</time><ele>234.6</ele></trkpt><trkpt lat="48.74955" lon="17.700768"><time>2024-05-01T12:41:56.000Z</time><ele>235</ele></trkpt><trkpt lat="48.749577" lon="17.700804"><time>2024-05-01T12:41:58.000Z</time><ele>235.4</ele></trkpt><trkpt lat="48.7496" lon="17.700846"><time>2024-05-01T12:42:00.000Z</time><ele>235.6</ele></trkpt><trkpt lat="48.749615" lon="17.700897"><time>2024-05-01T12:42:02.000Z</time><ele>235.4</ele></trkpt><trkpt lat="48.74965" lon="17.700935"><time>2024-05-01T12:42:04.000Z</time><ele>234.8</ele></trkpt><trkpt lat="48.749676" lon="17.700962"><time>2024-05-01T12:42:06.000Z</time><ele>234.6</ele></trkpt><trkpt lat="48.749714" lon="17.701008"><time>2024-05-01T12:42:08.000Z</time><ele>234.4</ele></trkpt><trkpt lat="48.749767" lon="17.701084"><time>2024-05-01T12:42:11.000Z</time><ele>235.6</ele></trkpt><trkpt lat="48.7498" lon="17.701109"><time>2024-05-01T12:42:14.000Z</time><ele>236.6</ele></trkpt><trkpt lat="48.749847" lon="17.70118"><time>2024-05-01T12:42:17.000Z</time><ele>237.8</ele></trkpt><trkpt lat="48.749886" lon="17.7012"><time>2024-05-01T12:42:20.000Z</time><ele>238</ele></trkpt><trkpt lat="48.749912" lon="17.701237"><time>2024-05-01T12:42:22.000Z</time><ele>238</ele></trkpt><trkpt lat="48.749935" lon="17.701275"><time>2024-05-01T12:42:24.000Z</time><ele>238.2</ele></trkpt><trkpt lat="48.749966" lon="17.701307"><time>2024-05-01T12:42:26.000Z</time><ele>238</ele></trkpt><trkpt lat="48.749996" lon="17.701344"><time>2024-05-01T12:42:28.000Z</time><ele>237.8</ele></trkpt><trkpt lat="48.750023" lon="17.701391"><time>2024-05-01T12:42:30.000Z</time><ele>237.8</ele></trkpt><trkpt lat="48.750057" lon="17.70144"><time>2024-05-01T12:42:33.000Z</time><ele>237.8</ele></trkpt><trkpt lat="48.750095" lon="17.70148"><time>2024-05-01T12:42:35.000Z</time><ele>237.8</ele></trkpt><trkpt lat="48.750126" lon="17.701511"><time>2024-05-01T12:42:37.000Z</time><ele>238.6</ele></trkpt><trkpt lat="48.75017" lon="17.701536"><time>2024-05-01T12:42:39.000Z</time><ele>239.4</ele></trkpt><trkpt lat="48.750214" lon="17.701572"><time>2024-05-01T12:42:41.000Z</time><ele>240</ele></trkpt><trkpt lat="48.750244" lon="17.70162"><time>2024-05-01T12:42:43.000Z</time><ele>240.6</ele></trkpt><trkpt lat="48.750286" lon="17.70167"><time>2024-05-01T12:42:45.000Z</time><ele>241.2</ele></trkpt><trkpt lat="48.75031" lon="17.701733"><time>2024-05-01T12:42:47.000Z</time><ele>241.2</ele></trkpt><trkpt lat="48.75034" lon="17.701773"><time>2024-05-01T12:42:49.000Z</time><ele>241.2</ele></trkpt><trkpt lat="48.750362" lon="17.701817"><time>2024-05-01T12:42:51.000Z</time><ele>241.4</ele></trkpt><trkpt lat="48.7504" lon="17.701855"><time>2024-05-01T12:42:53.000Z</time><ele>241.8</ele></trkpt><trkpt lat="48.750446" lon="17.701887"><time>2024-05-01T12:42:55.000Z</time><ele>242.2</ele></trkpt><trkpt lat="48.750496" lon="17.701918"><time>2024-05-01T12:42:57.000Z</time><ele>243</ele></trkpt><trkpt lat="48.750523" lon="17.701933"><time>2024-05-01T12:42:58.000Z</time><ele>243.8</ele></trkpt><trkpt lat="48.750553" lon="17.701944"><time>2024-05-01T12:42:59.000Z</time><ele>244.2</ele></trkpt><trkpt lat="48.750584" lon="17.701952"><time>2024-05-01T12:43:00.000Z</time><ele>244.6</ele></trkpt><trkpt lat="48.750614" lon="17.701954"><time>2024-05-01T12:43:01.000Z</time><ele>244.8</ele></trkpt><trkpt lat="48.750664" lon="17.701963"><time>2024-05-01T12:43:03.000Z</time><ele>245.2</ele></trkpt><trkpt lat="48.75069" lon="17.70198"><time>2024-05-01T12:43:04.000Z</time><ele>245.4</ele></trkpt><trkpt lat="48.75072" lon="17.702002"><time>2024-05-01T12:43:06.000Z</time><ele>246</ele></trkpt><trkpt lat="48.750755" lon="17.70204"><time>2024-05-01T12:43:08.000Z</time><ele>246.8</ele></trkpt><trkpt lat="48.75078" lon="17.702057"><time>2024-05-01T12:43:09.000Z</time><ele>248</ele></trkpt><trkpt lat="48.75081" lon="17.70207"><time>2024-05-01T12:43:10.000Z</time><ele>248.6</ele></trkpt><trkpt lat="48.75083" lon="17.702085"><time>2024-05-01T12:43:11.000Z</time><ele>249.4</ele></trkpt><trkpt lat="48.75084" lon="17.702084"><time>2024-05-01T12:43:12.000Z</time><ele>250</ele></trkpt><trkpt lat="48.750854" lon="17.702097"><time>2024-05-01T12:43:13.000Z</time><ele>250</ele></trkpt><trkpt lat="48.75089" lon="17.702131"><time>2024-05-01T12:43:15.000Z</time><ele>249.6</ele></trkpt><trkpt lat="48.75092" lon="17.702156"><time>2024-05-01T12:43:17.000Z</time><ele>249.8</ele></trkpt><trkpt lat="48.750957" lon="17.70218"><time>2024-05-01T12:43:19.000Z</time><ele>250.6</ele></trkpt><trkpt lat="48.750996" lon="17.70221"><time>2024-05-01T12:43:21.000Z</time><ele>251.4</ele></trkpt><trkpt lat="48.751022" lon="17.702244"><time>2024-05-01T12:43:23.000Z</time><ele>252.6</ele></trkpt><trkpt lat="48.75106" lon="17.70227"><time>2024-05-01T12:43:25.000Z</time><ele>253.8</ele></trkpt><trkpt lat="48.751095" lon="17.702284"><time>2024-05-01T12:43:27.000Z</time><ele>255</ele></trkpt><trkpt lat="48.751125" lon="17.702295"><time>2024-05-01T12:43:29.000Z</time><ele>255.6</ele></trkpt><trkpt lat="48.751152" lon="17.702328"><time>2024-05-01T12:43:31.000Z</time><ele>256.4</ele></trkpt><trkpt lat="48.751183" lon="17.702353"><time>2024-05-01T12:43:33.000Z</time><ele>256.8</ele></trkpt><trkpt lat="48.751205" lon="17.702368"><time>2024-05-01T12:43:34.000Z</time><ele>257.4</ele></trkpt><trkpt lat="48.751244" lon="17.702389"><time>2024-05-01T12:43:36.000Z</time><ele>257.8</ele></trkpt><trkpt lat="48.75128" lon="17.70241"><time>2024-05-01T12:43:38.000Z</time><ele>258.4</ele></trkpt><trkpt lat="48.751328" lon="17.702448"><time>2024-05-01T12:43:40.000Z</time><ele>258.6</ele></trkpt><trkpt lat="48.751377" lon="17.702469"><time>2024-05-01T12:43:42.000Z</time><ele>258.8</ele></trkpt><trkpt lat="48.751423" lon="17.7025"><time>2024-05-01T12:43:44.000Z</time><ele>258.6</ele></trkpt><trkpt lat="48.751472" lon="17.702518"><time>2024-05-01T12:43:46.000Z</time><ele>258.2</ele></trkpt><trkpt lat="48.75151" lon="17.70254"><time>2024-05-01T12:43:48.000Z</time><ele>257.6</ele></trkpt><trkpt lat="48.751556" lon="17.70255"><time>2024-05-01T12:43:50.000Z</time><ele>257.4</ele></trkpt><trkpt lat="48.75153" lon="17.702555"><time>2024-05-01T12:43:54.000Z</time><ele>257.4</ele></trkpt><trkpt lat="48.751495" lon="17.70256"><time>2024-05-01T12:43:57.000Z</time><ele>257.6</ele></trkpt><trkpt lat="48.75146" lon="17.702587"><time>2024-05-01T12:44:00.000Z</time><ele>257.4</ele></trkpt><trkpt lat="48.751408" lon="17.702606"><time>2024-05-01T12:44:02.000Z</time><ele>257.2</ele></trkpt><trkpt lat="48.751385" lon="17.702612"><time>2024-05-01T12:44:03.000Z</time><ele>256.6</ele></trkpt><trkpt lat="48.751354" lon="17.702623"><time>2024-05-01T12:44:04.000Z</time><ele>256.2</ele></trkpt><trkpt lat="48.75132" lon="17.702642"><time>2024-05-01T12:44:06.000Z</time><ele>256</ele></trkpt><trkpt lat="48.75127" lon="17.702644"><time>2024-05-01T12:44:08.000Z</time><ele>256.2</ele></trkpt><trkpt lat="48.751225" lon="17.702662"><time>2024-05-01T12:44:10.000Z</time><ele>256</ele></trkpt><trkpt lat="48.751198" lon="17.702665"><time>2024-05-01T12:44:11.000Z</time><ele>256.2</ele></trkpt><trkpt lat="48.751144" lon="17.702656"><time>2024-05-01T12:44:13.000Z</time><ele>256</ele></trkpt><trkpt lat="48.751114" lon="17.70265"><time>2024-05-01T12:44:14.000Z</time><ele>255.6</ele></trkpt><trkpt lat="48.75107" lon="17.702637"><time>2024-05-01T12:44:16.000Z</time><ele>255.2</ele></trkpt><trkpt lat="48.75104" lon="17.702633"><time>2024-05-01T12:44:17.000Z</time><ele>255.2</ele></trkpt><trkpt lat="48.751003" lon="17.702627"><time>2024-05-01T12:44:18.000Z</time><ele>255.2</ele></trkpt><trkpt lat="48.75097" lon="17.70262"><time>2024-05-01T12:44:19.000Z</time><ele>255.2</ele></trkpt><trkpt lat="48.750935" lon="17.70261"><time>2024-05-01T12:44:20.000Z</time><ele>255.2</ele></trkpt><trkpt lat="48.75091" lon="17.702604"><time>2024-05-01T12:44:21.000Z</time><ele>255.4</ele></trkpt><trkpt lat="48.75088" lon="17.702599"><time>2024-05-01T12:44:22.000Z</time><ele>256</ele></trkpt><trkpt lat="48.750835" lon="17.702593"><time>2024-05-01T12:44:24.000Z</time><ele>256.4</ele></trkpt><trkpt lat="48.7508" lon="17.702593"><time>2024-05-01T12:44:25.000Z</time><ele>257</ele></trkpt><trkpt lat="48.750767" lon="17.702587"><time>2024-05-01T12:44:26.000Z</time><ele>257.8</ele></trkpt><trkpt lat="48.750713" lon="17.70258"><time>2024-05-01T12:44:28.000Z</time><ele>258.4</ele></trkpt><trkpt lat="48.75068" lon="17.702572"><time>2024-05-01T12:44:29.000Z</time><ele>258.8</ele></trkpt><trkpt lat="48.750633" lon="17.70256"><time>2024-05-01T12:44:31.000Z</time><ele>259.4</ele></trkpt><trkpt lat="48.7506" lon="17.702553"><time>2024-05-01T12:44:32.000Z</time><ele>259.8</ele></trkpt><trkpt lat="48.75057" lon="17.702547"><time>2024-05-01T12:44:33.000Z</time><ele>260.4</ele></trkpt><trkpt lat="48.75054" lon="17.702538"><time>2024-05-01T12:44:34.000Z</time><ele>260.8</ele></trkpt><trkpt lat="48.75051" lon="17.702528"><time>2024-05-01T12:44:35.000Z</time><ele>261.2</ele></trkpt><trkpt lat="48.750484" lon="17.702517"><time>2024-05-01T12:44:36.000Z</time><ele>261.6</ele></trkpt><trkpt lat="48.750458" lon="17.7025"><time>2024-05-01T12:44:37.000Z</time><ele>262.2</ele></trkpt><trkpt lat="48.75043" lon="17.702477"><time>2024-05-01T12:44:38.000Z</time><ele>262.4</ele></trkpt><trkpt lat="48.750404" lon="17.702456"><time>2024-05-01T12:44:39.000Z</time><ele>263.2</ele></trkpt><trkpt lat="48.750378" lon="17.70244"><time>2024-05-01T12:44:40.000Z</time><ele>264</ele></trkpt><trkpt lat="48.75034" lon="17.702423"><time>2024-05-01T12:44:42.000Z</time><ele>264.8</ele></trkpt><trkpt lat="48.750313" lon="17.702404"><time>2024-05-01T12:44:43.000Z</time><ele>265.6</ele></trkpt><trkpt lat="48.75028" lon="17.702393"><time>2024-05-01T12:44:44.000Z</time><ele>266.2</ele></trkpt><trkpt lat="48.750248" lon="17.70238"><time>2024-05-01T12:44:45.000Z</time><ele>266.4</ele></trkpt><trkpt lat="48.750214" lon="17.702356"><time>2024-05-01T12:44:46.000Z</time><ele>266.4</ele></trkpt><trkpt lat="48.750183" lon="17.70234"><time>2024-05-01T12:44:47.000Z</time><ele>266.2</ele></trkpt><trkpt lat="48.750153" lon="17.702326"><time>2024-05-01T12:44:48.000Z</time><ele>266</ele></trkpt><trkpt lat="48.750126" lon="17.702316"><time>2024-05-01T12:44:49.000Z</time><ele>265.8</ele></trkpt><trkpt lat="48.750095" lon="17.7023"><time>2024-05-01T12:44:50.000Z</time><ele>265.4</ele></trkpt><trkpt lat="48.750076" lon="17.702274"><time>2024-05-01T12:44:51.000Z</time><ele>265.2</ele></trkpt><trkpt lat="48.75005" lon="17.70225"><time>2024-05-01T12:44:52.000Z</time><ele>265</ele></trkpt><trkpt lat="48.75" lon="17.702215"><time>2024-05-01T12:44:54.000Z</time><ele>264.6</ele></trkpt><trkpt lat="48.749966" lon="17.702198"><time>2024-05-01T12:44:55.000Z</time><ele>264.6</ele></trkpt><trkpt lat="48.749935" lon="17.702171"><time>2024-05-01T12:44:56.000Z</time><ele>265</ele></trkpt><trkpt lat="48.749912" lon="17.702145"><time>2024-05-01T12:44:57.000Z</time><ele>265.2</ele></trkpt><trkpt lat="48.749886" lon="17.70212"><time>2024-05-01T12:44:58.000Z</time><ele>265.6</ele></trkpt><trkpt lat="48.74985" lon="17.702108"><time>2024-05-01T12:44:59.000Z</time><ele>266.2</ele></trkpt><trkpt lat="48.749825" lon="17.702099"><time>2024-05-01T12:45:00.000Z</time><ele>267</ele></trkpt><trkpt lat="48.749786" lon="17.702076"><time>2024-05-01T12:45:02.000Z</time><ele>267.4</ele></trkpt><trkpt lat="48.749756" lon="17.702065"><time>2024-05-01T12:45:04.000Z</time><ele>267.8</ele></trkpt><trkpt lat="48.74972" lon="17.70204"><time>2024-05-01T12:45:06.000Z</time><ele>268</ele></trkpt><trkpt lat="48.749676" lon="17.702017"><time>2024-05-01T12:45:08.000Z</time><ele>267.8</ele></trkpt><trkpt lat="48.74964" lon="17.701996"><time>2024-05-01T12:45:10.000Z</time><ele>267</ele></trkpt><trkpt lat="48.749607" lon="17.701984"><time>2024-05-01T12:45:12.000Z</time><ele>266.6</ele></trkpt><trkpt lat="48.749565" lon="17.701977"><time>2024-05-01T12:45:14.000Z</time><ele>266.4</ele></trkpt><trkpt lat="48.749535" lon="17.70198"><time>2024-05-01T12:45:16.000Z</time><ele>266.6</ele></trkpt><trkpt lat="48.7495" lon="17.701992"><time>2024-05-01T12:45:18.000Z</time><ele>267.2</ele></trkpt><trkpt lat="48.749454" lon="17.702028"><time>2024-05-01T12:45:20.000Z</time><ele>267.6</ele></trkpt><trkpt lat="48.749413" lon="17.702065"><time>2024-05-01T12:45:22.000Z</time><ele>267.4</ele></trkpt><trkpt lat="48.74939" lon="17.702084"><time>2024-05-01T12:45:23.000Z</time><ele>267</ele></trkpt><trkpt lat="48.74936" lon="17.70211"><time>2024-05-01T12:45:24.000Z</time><ele>266.2</ele></trkpt><trkpt lat="48.749336" lon="17.702133"><time>2024-05-01T12:45:25.000Z</time><ele>265.6</ele></trkpt><trkpt lat="48.749313" lon="17.702164"><time>2024-05-01T12:45:26.000Z</time><ele>265.4</ele></trkpt><trkpt lat="48.74929" lon="17.702196"><time>2024-05-01T12:45:27.000Z</time><ele>265.8</ele></trkpt><trkpt lat="48.749256" lon="17.70226"><time>2024-05-01T12:45:29.000Z</time><ele>266.2</ele></trkpt><trkpt lat="48.74924" lon="17.702295"><time>2024-05-01T12:45:30.000Z</time><ele>266.8</ele></trkpt><trkpt lat="48.74921" lon="17.702372"><time>2024-05-01T12:45:32.000Z</time><ele>267.4</ele></trkpt><trkpt lat="48.749187" lon="17.702433"><time>2024-05-01T12:45:34.000Z</time><ele>267.8</ele></trkpt><trkpt lat="48.749165" lon="17.702494"><time>2024-05-01T12:45:36.000Z</time><ele>267.8</ele></trkpt><trkpt lat="48.749126" lon="17.70254"><time>2024-05-01T12:45:38.000Z</time><ele>267.4</ele></trkpt><trkpt lat="48.749096" lon="17.702585"><time>2024-05-01T12:45:40.000Z</time><ele>266.2</ele></trkpt><trkpt lat="48.74906" lon="17.70264"><time>2024-05-01T12:45:42.000Z</time><ele>264.8</ele></trkpt><trkpt lat="48.74904" lon="17.702675"><time>2024-05-01T12:45:43.000Z</time><ele>263.6</ele></trkpt><trkpt lat="48.748947" lon="17.702797"><time>2024-05-01T12:45:46.000Z</time><ele>262.4</ele></trkpt><trkpt lat="48.748928" lon="17.702831"><time>2024-05-01T12:45:47.000Z</time><ele>262.8</ele></trkpt><trkpt lat="48.748905" lon="17.70288"><time>2024-05-01T12:45:49.000Z</time><ele>263.6</ele></trkpt><trkpt lat="48.748886" lon="17.702898"><time>2024-05-01T12:45:54.000Z</time><ele>265</ele></trkpt><trkpt lat="48.7488" lon="17.703024"><time>2024-05-01T12:45:58.000Z</time><ele>266.8</ele></trkpt><trkpt lat="48.748768" lon="17.703066"><time>2024-05-01T12:45:59.000Z</time><ele>266.8</ele></trkpt><trkpt lat="48.748737" lon="17.7031"><time>2024-05-01T12:46:00.000Z</time><ele>266.2</ele></trkpt><trkpt lat="48.7487" lon="17.70313"><time>2024-05-01T12:46:01.000Z</time><ele>265.8</ele></trkpt><trkpt lat="48.74866" lon="17.703163"><time>2024-05-01T12:46:02.000Z</time><ele>265.4</ele></trkpt><trkpt lat="48.748627" lon="17.703196"><time>2024-05-01T12:46:03.000Z</time><ele>265</ele></trkpt><trkpt lat="48.748596" lon="17.703232"><time>2024-05-01T12:46:04.000Z</time><ele>264.4</ele></trkpt><trkpt lat="48.74856" lon="17.703268"><time>2024-05-01T12:46:05.000Z</time><ele>264</ele></trkpt><trkpt lat="48.74853" lon="17.7033"><time>2024-05-01T12:46:06.000Z</time><ele>263.6</ele></trkpt><trkpt lat="48.748497" lon="17.703337"><time>2024-05-01T12:46:07.000Z</time><ele>263.2</ele></trkpt><trkpt lat="48.74846" lon="17.70338"><time>2024-05-01T12:46:08.000Z</time><ele>263</ele></trkpt><trkpt lat="48.748432" lon="17.703417"><time>2024-05-01T12:46:09.000Z</time><ele>262.6</ele></trkpt><trkpt lat="48.7484" lon="17.703444"><time>2024-05-01T12:46:10.000Z</time><ele>262.2</ele></trkpt><trkpt lat="48.748363" lon="17.703465"><time>2024-05-01T12:46:11.000Z</time><ele>261.8</ele></trkpt><trkpt lat="48.74833" lon="17.703484"><time>2024-05-01T12:46:12.000Z</time><ele>261.6</ele></trkpt><trkpt lat="48.748287" lon="17.7035"><time>2024-05-01T12:46:13.000Z</time><ele>261.8</ele></trkpt><trkpt lat="48.748234" lon="17.703524"><time>2024-05-01T12:46:15.000Z</time><ele>262.2</ele></trkpt><trkpt lat="48.74818" lon="17.703531"><time>2024-05-01T12:46:17.000Z</time><ele>262.8</ele></trkpt><trkpt lat="48.74814" lon="17.70354"><time>2024-05-01T12:46:18.000Z</time><ele>263.4</ele></trkpt><trkpt lat="48.7481" lon="17.703545"><time>2024-05-01T12:46:19.000Z</time><ele>264</ele></trkpt><trkpt lat="48.748074" lon="17.703548"><time>2024-05-01T12:46:20.000Z</time><ele>264.2</ele></trkpt><trkpt lat="48.748035" lon="17.70356"><time>2024-05-01T12:46:21.000Z</time><ele>264.6</ele></trkpt><trkpt lat="48.748" lon="17.703568"><time>2024-05-01T12:46:22.000Z</time><ele>264.8</ele></trkpt><trkpt lat="48.747955" lon="17.703585"><time>2024-05-01T12:46:23.000Z</time><ele>265</ele></trkpt><trkpt lat="48.747913" lon="17.7036"><time>2024-05-01T12:46:24.000Z</time><ele>265</ele></trkpt><trkpt lat="48.74787" lon="17.703611"><time>2024-05-01T12:46:25.000Z</time><ele>265</ele></trkpt><trkpt lat="48.747776" lon="17.703625"><time>2024-05-01T12:46:27.000Z</time><ele>265</ele></trkpt><trkpt lat="48.747746" lon="17.703629"><time>2024-05-01T12:46:28.000Z</time><ele>264.8</ele></trkpt><trkpt lat="48.74771" lon="17.703634"><time>2024-05-01T12:46:29.000Z</time><ele>265</ele></trkpt><trkpt lat="48.74768" lon="17.70364"><time>2024-05-01T12:46:30.000Z</time><ele>265</ele></trkpt><trkpt lat="48.747646" lon="17.703651"><time>2024-05-01T12:46:31.000Z</time><ele>265.2</ele></trkpt><trkpt lat="48.747604" lon="17.703667"><time>2024-05-01T12:46:32.000Z</time><ele>265.4</ele></trkpt><trkpt lat="48.747574" lon="17.703678"><time>2024-05-01T12:46:33.000Z</time><ele>266.2</ele></trkpt><trkpt lat="48.747543" lon="17.703695"><time>2024-05-01T12:46:34.000Z</time><ele>266.8</ele></trkpt><trkpt lat="48.74751" lon="17.703716"><time>2024-05-01T12:46:35.000Z</time><ele>267.4</ele></trkpt><trkpt lat="48.74748" lon="17.703732"><time>2024-05-01T12:46:36.000Z</time><ele>267.8</ele></trkpt><trkpt lat="48.747433" lon="17.703758"><time>2024-05-01T12:46:38.000Z</time><ele>268.4</ele></trkpt><trkpt lat="48.7474" lon="17.703768"><time>2024-05-01T12:46:39.000Z</time><ele>268.8</ele></trkpt><trkpt lat="48.747364" lon="17.703768"><time>2024-05-01T12:46:40.000Z</time><ele>268.8</ele></trkpt><trkpt lat="48.74733" lon="17.703772"><time>2024-05-01T12:46:41.000Z</time><ele>269.2</ele></trkpt><trkpt lat="48.747295" lon="17.703781"><time>2024-05-01T12:46:42.000Z</time><ele>269.4</ele></trkpt><trkpt lat="48.747265" lon="17.703798"><time>2024-05-01T12:46:43.000Z</time><ele>269.4</ele></trkpt><trkpt lat="48.74723" lon="17.703812"><time>2024-05-01T12:46:44.000Z</time><ele>269.4</ele></trkpt><trkpt lat="48.747204" lon="17.703829"><time>2024-05-01T12:46:45.000Z</time><ele>270</ele></trkpt><trkpt lat="48.747154" lon="17.703875"><time>2024-05-01T12:46:47.000Z</time><ele>270.4</ele></trkpt><trkpt lat="48.74712" lon="17.703897"><time>2024-05-01T12:46:48.000Z</time><ele>271</ele></trkpt><trkpt lat="48.747093" lon="17.70392"><time>2024-05-01T12:46:49.000Z</time><ele>271.6</ele></trkpt><trkpt lat="48.747044" lon="17.703932"><time>2024-05-01T12:46:51.000Z</time><ele>271.6</ele></trkpt><trkpt lat="48.74702" lon="17.70394"><time>2024-05-01T12:46:52.000Z</time><ele>271.2</ele></trkpt><trkpt lat="48.74699" lon="17.703953"><time>2024-05-01T12:46:53.000Z</time><ele>270.8</ele></trkpt><trkpt lat="48.746937" lon="17.70398"><time>2024-05-01T12:46:55.000Z</time><ele>270.4</ele></trkpt><trkpt lat="48.746902" lon="17.703985"><time>2024-05-01T12:46:56.000Z</time><ele>269.8</ele></trkpt><trkpt lat="48.746872" lon="17.703997"><time>2024-05-01T12:46:57.000Z</time><ele>269.6</ele></trkpt><trkpt lat="48.746838" lon="17.704008"><time>2024-05-01T12:46:58.000Z</time><ele>269.6</ele></trkpt><trkpt lat="48.746803" lon="17.704027"><time>2024-05-01T12:46:59.000Z</time><ele>269.6</ele></trkpt><trkpt lat="48.74676" lon="17.704075"><time>2024-05-01T12:47:01.000Z</time><ele>269.6</ele></trkpt><trkpt lat="48.74673" lon="17.70411"><time>2024-05-01T12:47:02.000Z</time><ele>270</ele></trkpt><trkpt lat="48.746696" lon="17.704176"><time>2024-05-01T12:47:04.000Z</time><ele>270.2</ele></trkpt><trkpt lat="48.746677" lon="17.70421"><time>2024-05-01T12:47:05.000Z</time><ele>270.2</ele></trkpt><trkpt lat="48.74665" lon="17.704262"><time>2024-05-01T12:47:07.000Z</time><ele>270</ele></trkpt><trkpt lat="48.746616" lon="17.704311"><time>2024-05-01T12:47:09.000Z</time><ele>270</ele></trkpt><trkpt lat="48.746593" lon="17.704351"><time>2024-05-01T12:47:11.000Z</time><ele>269.8</ele></trkpt><trkpt lat="48.74657" lon="17.704393"><time>2024-05-01T12:47:13.000Z</time><ele>269.6</ele></trkpt><trkpt lat="48.746544" lon="17.704424"><time>2024-05-01T12:47:15.000Z</time><ele>269.6</ele></trkpt><trkpt lat="48.746525" lon="17.704466"><time>2024-05-01T12:47:17.000Z</time><ele>269.6</ele></trkpt><trkpt lat="48.7465" lon="17.704514"><time>2024-05-01T12:47:19.000Z</time><ele>269</ele></trkpt><trkpt lat="48.746475" lon="17.704576"><time>2024-05-01T12:47:21.000Z</time><ele>268.4</ele></trkpt><trkpt lat="48.746452" lon="17.704609"><time>2024-05-01T12:47:22.000Z</time><ele>268.2</ele></trkpt><trkpt lat="48.74643" lon="17.704628"><time>2024-05-01T12:47:23.000Z</time><ele>267.8</ele></trkpt><trkpt lat="48.7464" lon="17.704643"><time>2024-05-01T12:47:24.000Z</time><ele>267.6</ele></trkpt><trkpt lat="48.746357" lon="17.704653"><time>2024-05-01T12:47:26.000Z</time><ele>268.2</ele></trkpt><trkpt lat="48.746326" lon="17.704666"><time>2024-05-01T12:47:27.000Z</time><ele>268.8</ele></trkpt><trkpt lat="48.7463" lon="17.704676"><time>2024-05-01T12:47:28.000Z</time><ele>269.2</ele></trkpt><trkpt lat="48.746277" lon="17.704697"><time>2024-05-01T12:47:29.000Z</time><ele>269.8</ele></trkpt><trkpt lat="48.746246" lon="17.704737"><time>2024-05-01T12:47:31.000Z</time><ele>270.2</ele></trkpt><trkpt lat="48.746223" lon="17.70477"><time>2024-05-01T12:47:33.000Z</time><ele>270.6</ele></trkpt><trkpt lat="48.746185" lon="17.70482"><time>2024-05-01T12:47:35.000Z</time><ele>271.6</ele></trkpt><trkpt lat="48.74616" lon="17.704847"><time>2024-05-01T12:47:36.000Z</time><ele>273</ele></trkpt><trkpt lat="48.746136" lon="17.704876"><time>2024-05-01T12:47:37.000Z</time><ele>274.4</ele></trkpt><trkpt lat="48.74611" lon="17.704903"><time>2024-05-01T12:47:38.000Z</time><ele>276.2</ele></trkpt><trkpt lat="48.746086" lon="17.704927"><time>2024-05-01T12:47:39.000Z</time><ele>277.6</ele></trkpt><trkpt lat="48.74605" lon="17.704983"><time>2024-05-01T12:47:41.000Z</time><ele>278.8</ele></trkpt><trkpt lat="48.746033" lon="17.705011"><time>2024-05-01T12:47:42.000Z</time><ele>279.6</ele></trkpt><trkpt lat="48.74601" lon="17.705038"><time>2024-05-01T12:47:43.000Z</time><ele>280.2</ele></trkpt><trkpt lat="48.745975" lon="17.705088"><time>2024-05-01T12:47:45.000Z</time><ele>280.4</ele></trkpt><trkpt lat="48.74596" lon="17.70512"><time>2024-05-01T12:47:46.000Z</time><ele>281</ele></trkpt><trkpt lat="48.745937" lon="17.705156"><time>2024-05-01T12:47:47.000Z</time><ele>281.2</ele></trkpt><trkpt lat="48.745903" lon="17.70522"><time>2024-05-01T12:47:49.000Z</time><ele>281.2</ele></trkpt><trkpt lat="48.745884" lon="17.705252"><time>2024-05-01T12:47:50.000Z</time><ele>281.2</ele></trkpt><trkpt lat="48.745853" lon="17.705313"><time>2024-05-01T12:47:52.000Z</time><ele>281</ele></trkpt><trkpt lat="48.745823" lon="17.705376"><time>2024-05-01T12:47:54.000Z</time><ele>279.8</ele></trkpt><trkpt lat="48.7458" lon="17.705425"><time>2024-05-01T12:47:55.000Z</time><ele>278.4</ele></trkpt><trkpt lat="48.74576" lon="17.70548"><time>2024-05-01T12:47:58.000Z</time><ele>278.2</ele></trkpt><trkpt lat="48.74574" lon="17.705507"><time>2024-05-01T12:47:59.000Z</time><ele>278</ele></trkpt><trkpt lat="48.74572" lon="17.70554"><time>2024-05-01T12:48:00.000Z</time><ele>278.2</ele></trkpt><trkpt lat="48.745693" lon="17.705593"><time>2024-05-01T12:48:02.000Z</time><ele>279</ele></trkpt><trkpt lat="48.745674" lon="17.705631"><time>2024-05-01T12:48:03.000Z</time><ele>280.4</ele></trkpt><trkpt lat="48.745647" lon="17.70567"><time>2024-05-01T12:48:04.000Z</time><ele>281</ele></trkpt><trkpt lat="48.745632" lon="17.705704"><time>2024-05-01T12:48:05.000Z</time><ele>281.8</ele></trkpt><trkpt lat="48.745613" lon="17.70574"><time>2024-05-01T12:48:06.000Z</time><ele>282.8</ele></trkpt><trkpt lat="48.745598" lon="17.705778"><time>2024-05-01T12:48:07.000Z</time><ele>283.8</ele></trkpt><trkpt lat="48.74557" lon="17.705849"><time>2024-05-01T12:48:09.000Z</time><ele>284.6</ele></trkpt><trkpt lat="48.745556" lon="17.705912"><time>2024-05-01T12:48:11.000Z</time><ele>285</ele></trkpt><trkpt lat="48.745544" lon="17.705952"><time>2024-05-01T12:48:12.000Z</time><ele>285</ele></trkpt><trkpt lat="48.74553" lon="17.70599"><time>2024-05-01T12:48:13.000Z</time><ele>285</ele></trkpt><trkpt lat="48.74551" lon="17.70606"><time>2024-05-01T12:48:15.000Z</time><ele>285</ele></trkpt><trkpt lat="48.745487" lon="17.70613"><time>2024-05-01T12:48:17.000Z</time><ele>285</ele></trkpt><trkpt lat="48.745476" lon="17.706167"><time>2024-05-01T12:48:18.000Z</time><ele>285.2</ele></trkpt><trkpt lat="48.745464" lon="17.706207"><time>2024-05-01T12:48:19.000Z</time><ele>285.8</ele></trkpt><trkpt lat="48.745434" lon="17.706264"><time>2024-05-01T12:48:21.000Z</time><ele>286.2</ele></trkpt><trkpt lat="48.745407" lon="17.706312"><time>2024-05-01T12:48:23.000Z</time><ele>286.8</ele></trkpt><trkpt lat="48.74538" lon="17.706358"><time>2024-05-01T12:48:25.000Z</time><ele>287.2</ele></trkpt><trkpt lat="48.745354" lon="17.706415"><time>2024-05-01T12:48:27.000Z</time><ele>287.6</ele></trkpt><trkpt lat="48.745323" lon="17.706476"><time>2024-05-01T12:48:29.000Z</time><ele>288</ele></trkpt><trkpt lat="48.745308" lon="17.706512"><time>2024-05-01T12:48:30.000Z</time><ele>288.6</ele></trkpt><trkpt lat="48.745285" lon="17.706577"><time>2024-05-01T12:48:32.000Z</time><ele>288.8</ele></trkpt><trkpt lat="48.745262" lon="17.706636"><time>2024-05-01T12:48:34.000Z</time><ele>288.8</ele></trkpt><trkpt lat="48.745247" lon="17.706673"><time>2024-05-01T12:48:35.000Z</time><ele>289</ele></trkpt><trkpt lat="48.745224" lon="17.706709"><time>2024-05-01T12:48:36.000Z</time><ele>289</ele></trkpt><trkpt lat="48.7452" lon="17.70674"><time>2024-05-01T12:48:37.000Z</time><ele>288.8</ele></trkpt><trkpt lat="48.74517" lon="17.706776"><time>2024-05-01T12:48:38.000Z</time><ele>289</ele></trkpt><trkpt lat="48.745148" lon="17.706812"><time>2024-05-01T12:48:39.000Z</time><ele>289.4</ele></trkpt><trkpt lat="48.745125" lon="17.706846"><time>2024-05-01T12:48:40.000Z</time><ele>289.6</ele></trkpt><trkpt lat="48.745094" lon="17.70691"><time>2024-05-01T12:48:42.000Z</time><ele>290.2</ele></trkpt><trkpt lat="48.74506" lon="17.706976"><time>2024-05-01T12:48:44.000Z</time><ele>290.8</ele></trkpt><trkpt lat="48.74504" lon="17.707012"><time>2024-05-01T12:48:45.000Z</time><ele>291.2</ele></trkpt><trkpt lat="48.74502" lon="17.70707"><time>2024-05-01T12:48:47.000Z</time><ele>291.4</ele></trkpt><trkpt lat="48.745" lon="17.707136"><time>2024-05-01T12:48:49.000Z</time><ele>291.6</ele></trkpt><trkpt lat="48.744984" lon="17.707176"><time>2024-05-01T12:48:50.000Z</time><ele>291.4</ele></trkpt><trkpt lat="48.744965" lon="17.707214"><time>2024-05-01T12:48:51.000Z</time><ele>291</ele></trkpt><trkpt lat="48.744953" lon="17.707256"><time>2024-05-01T12:48:52.000Z</time><ele>290.8</ele></trkpt><trkpt lat="48.744938" lon="17.707298"><time>2024-05-01T12:48:53.000Z</time><ele>290.8</ele></trkpt><trkpt lat="48.74492" lon="17.707344"><time>2024-05-01T12:48:54.000Z</time><ele>290.8</ele></trkpt><trkpt lat="48.744904" lon="17.707388"><time>2024-05-01T12:48:55.000Z</time><ele>291</ele></trkpt><trkpt lat="48.744884" lon="17.707428"><time>2024-05-01T12:48:56.000Z</time><ele>291.6</ele></trkpt><trkpt lat="48.74487" lon="17.707468"><time>2024-05-01T12:48:57.000Z</time><ele>292</ele></trkpt><trkpt lat="48.744846" lon="17.707504"><time>2024-05-01T12:48:58.000Z</time><ele>292.6</ele></trkpt><trkpt lat="48.744823" lon="17.707554"><time>2024-05-01T12:49:00.000Z</time><ele>293.6</ele></trkpt><trkpt lat="48.74481" lon="17.707592"><time>2024-05-01T12:49:01.000Z</time><ele>294.4</ele></trkpt><trkpt lat="48.744785" lon="17.707647"><time>2024-05-01T12:49:03.000Z</time><ele>295.2</ele></trkpt><trkpt lat="48.744774" lon="17.707687"><time>2024-05-01T12:49:04.000Z</time><ele>296.2</ele></trkpt><trkpt lat="48.74476" lon="17.707733"><time>2024-05-01T12:49:05.000Z</time><ele>297</ele></trkpt><trkpt lat="48.74475" lon="17.707775"><time>2024-05-01T12:49:06.000Z</time><ele>297.6</ele></trkpt><trkpt lat="48.744743" lon="17.707817"><time>2024-05-01T12:49:07.000Z</time><ele>298</ele></trkpt><trkpt lat="48.74473" lon="17.70786"><time>2024-05-01T12:49:08.000Z</time><ele>298</ele></trkpt><trkpt lat="48.744728" lon="17.707905"><time>2024-05-01T12:49:09.000Z</time><ele>297.6</ele></trkpt><trkpt lat="48.74472" lon="17.707947"><time>2024-05-01T12:49:10.000Z</time><ele>297.2</ele></trkpt><trkpt lat="48.744713" lon="17.707987"><time>2024-05-01T12:49:11.000Z</time><ele>296.4</ele></trkpt><trkpt lat="48.744698" lon="17.708023"><time>2024-05-01T12:49:12.000Z</time><ele>296</ele></trkpt><trkpt lat="48.744682" lon="17.708063"><time>2024-05-01T12:49:13.000Z</time><ele>295.8</ele></trkpt><trkpt lat="48.744675" lon="17.708103"><time>2024-05-01T12:49:14.000Z</time><ele>295.8</ele></trkpt><trkpt lat="48.744656" lon="17.708166"><time>2024-05-01T12:49:16.000Z</time><ele>296.2</ele></trkpt><trkpt lat="48.744633" lon="17.708235"><time>2024-05-01T12:49:18.000Z</time><ele>296.8</ele></trkpt><trkpt lat="48.744617" lon="17.70828"><time>2024-05-01T12:49:19.000Z</time><ele>297.4</ele></trkpt><trkpt lat="48.7446" lon="17.708323"><time>2024-05-01T12:49:20.000Z</time><ele>298</ele></trkpt><trkpt lat="48.744587" lon="17.708368"><time>2024-05-01T12:49:21.000Z</time><ele>298.4</ele></trkpt><trkpt lat="48.744576" lon="17.70841"><time>2024-05-01T12:49:22.000Z</time><ele>298.2</ele></trkpt><trkpt lat="48.74456" lon="17.708458"><time>2024-05-01T12:49:23.000Z</time><ele>297.8</ele></trkpt><trkpt lat="48.744545" lon="17.708506"><time>2024-05-01T12:49:24.000Z</time><ele>297.2</ele></trkpt><trkpt lat="48.74453" lon="17.708551"><time>2024-05-01T12:49:25.000Z</time><ele>296.6</ele></trkpt><trkpt lat="48.744514" lon="17.708593"><time>2024-05-01T12:49:26.000Z</time><ele>296.2</ele></trkpt><trkpt lat="48.744503" lon="17.708633"><time>2024-05-01T12:49:27.000Z</time><ele>296</ele></trkpt><trkpt lat="48.744495" lon="17.708677"><time>2024-05-01T12:49:28.000Z</time><ele>295.8</ele></trkpt><trkpt lat="48.74449" lon="17.708721"><time>2024-05-01T12:49:29.000Z</time><ele>295.6</ele></trkpt><trkpt lat="48.74449" lon="17.708767"><time>2024-05-01T12:49:30.000Z</time><ele>295.4</ele></trkpt><trkpt lat="48.7445" lon="17.708813"><time>2024-05-01T12:49:31.000Z</time><ele>295.2</ele></trkpt><trkpt lat="48.744507" lon="17.708853"><time>2024-05-01T12:49:32.000Z</time><ele>295</ele></trkpt><trkpt lat="48.74451" lon="17.708921"><time>2024-05-01T12:49:34.000Z</time><ele>295.2</ele></trkpt><trkpt lat="48.744514" lon="17.708998"><time>2024-05-01T12:49:36.000Z</time><ele>295.2</ele></trkpt><trkpt lat="48.74452" lon="17.709064"><time>2024-05-01T12:49:38.000Z</time><ele>295.4</ele></trkpt><trkpt lat="48.7445" lon="17.709127"><time>2024-05-01T12:49:40.000Z</time><ele>295.6</ele></trkpt><trkpt lat="48.74448" lon="17.709162"><time>2024-05-01T12:49:41.000Z</time><ele>295.8</ele></trkpt><trkpt lat="48.744392" lon="17.709293"><time>2024-05-01T12:49:44.000Z</time><ele>295.4</ele></trkpt><trkpt lat="48.744366" lon="17.709335"><time>2024-05-01T12:49:45.000Z</time><ele>295.2</ele></trkpt><trkpt lat="48.744335" lon="17.709385"><time>2024-05-01T12:49:46.000Z</time><ele>294.8</ele></trkpt><trkpt lat="48.744305" lon="17.70944"><time>2024-05-01T12:49:47.000Z</time><ele>294.4</ele></trkpt><trkpt lat="48.744274" lon="17.709488"><time>2024-05-01T12:49:48.000Z</time><ele>293.8</ele></trkpt><trkpt lat="48.744247" lon="17.709536"><time>2024-05-01T12:49:49.000Z</time><ele>293.2</ele></trkpt><trkpt lat="48.744217" lon="17.709599"><time>2024-05-01T12:49:50.000Z</time><ele>292.6</ele></trkpt><trkpt lat="48.744183" lon="17.70966"><time>2024-05-01T12:49:51.000Z</time><ele>292.2</ele></trkpt><trkpt lat="48.744152" lon="17.709724"><time>2024-05-01T12:49:52.000Z</time><ele>292.2</ele></trkpt><trkpt lat="48.74412" lon="17.709791"><time>2024-05-01T12:49:53.000Z</time><ele>292.2</ele></trkpt><trkpt lat="48.744087" lon="17.709866"><time>2024-05-01T12:49:54.000Z</time><ele>292.2</ele></trkpt><trkpt lat="48.744057" lon="17.709925"><time>2024-05-01T12:49:55.000Z</time><ele>292.2</ele></trkpt><trkpt lat="48.744026" lon="17.709972"><time>2024-05-01T12:49:56.000Z</time><ele>292.2</ele></trkpt><trkpt lat="48.744" lon="17.71003"><time>2024-05-01T12:49:57.000Z</time><ele>292.2</ele></trkpt><trkpt lat="48.74396" lon="17.710075"><time>2024-05-01T12:49:58.000Z</time><ele>292.4</ele></trkpt><trkpt lat="48.743927" lon="17.710121"><time>2024-05-01T12:49:59.000Z</time><ele>292.6</ele></trkpt><trkpt lat="48.74389" lon="17.710169"><time>2024-05-01T12:50:00.000Z</time><ele>292.6</ele></trkpt><trkpt lat="48.74385" lon="17.710215"><time>2024-05-01T12:50:01.000Z</time><ele>292.6</ele></trkpt><trkpt lat="48.743816" lon="17.71026"><time>2024-05-01T12:50:02.000Z</time><ele>292.2</ele></trkpt><trkpt lat="48.743786" lon="17.710306"><time>2024-05-01T12:50:03.000Z</time><ele>291.8</ele></trkpt><trkpt lat="48.74375" lon="17.71036"><time>2024-05-01T12:50:04.000Z</time><ele>291.2</ele></trkpt><trkpt lat="48.743725" lon="17.710403"><time>2024-05-01T12:50:05.000Z</time><ele>291</ele></trkpt><trkpt lat="48.743687" lon="17.71046"><time>2024-05-01T12:50:06.000Z</time><ele>290.6</ele></trkpt><trkpt lat="48.74365" lon="17.710512"><time>2024-05-01T12:50:07.000Z</time><ele>290.6</ele></trkpt><trkpt lat="48.743614" lon="17.710564"><time>2024-05-01T12:50:08.000Z</time><ele>290.6</ele></trkpt><trkpt lat="48.743446" lon="17.710838"><time>2024-05-01T12:50:13.000Z</time><ele>291.2</ele></trkpt><trkpt lat="48.74343" lon="17.710894"><time>2024-05-01T12:50:14.000Z</time><ele>291</ele></trkpt><trkpt lat="48.74341" lon="17.710934"><time>2024-05-01T12:50:15.000Z</time><ele>291</ele></trkpt><trkpt lat="48.743385" lon="17.710974"><time>2024-05-01T12:50:16.000Z</time><ele>291</ele></trkpt><trkpt lat="48.743378" lon="17.711023"><time>2024-05-01T12:50:17.000Z</time><ele>291</ele></trkpt><trkpt lat="48.74338" lon="17.711067"><time>2024-05-01T12:50:18.000Z</time><ele>291</ele></trkpt><trkpt lat="48.743416" lon="17.711117"><time>2024-05-01T12:50:20.000Z</time><ele>291.2</ele></trkpt><trkpt lat="48.74346" lon="17.711147"><time>2024-05-01T12:50:22.000Z</time><ele>291.2</ele></trkpt><trkpt lat="48.743507" lon="17.711163"><time>2024-05-01T12:50:24.000Z</time><ele>291.4</ele></trkpt><trkpt lat="48.74353" lon="17.711142"><time>2024-05-01T12:50:25.000Z</time><ele>291.8</ele></trkpt><trkpt lat="48.74356" lon="17.711111"><time>2024-05-01T12:50:26.000Z</time><ele>292.2</ele></trkpt><trkpt lat="48.743587" lon="17.711088"><time>2024-05-01T12:50:27.000Z</time><ele>292.4</ele></trkpt><trkpt lat="48.74361" lon="17.71106"><time>2024-05-01T12:50:28.000Z</time><ele>292.8</ele></trkpt><trkpt lat="48.743633" lon="17.711027"><time>2024-05-01T12:50:29.000Z</time><ele>293</ele></trkpt><trkpt lat="48.74366" lon="17.710987"><time>2024-05-01T12:50:30.000Z</time><ele>293</ele></trkpt><trkpt lat="48.743683" lon="17.710957"><time>2024-05-01T12:50:31.000Z</time><ele>293</ele></trkpt><trkpt lat="48.74371" lon="17.710924"><time>2024-05-01T12:50:32.000Z</time><ele>293.2</ele></trkpt><trkpt lat="48.743732" lon="17.710888"><time>2024-05-01T12:50:33.000Z</time><ele>293.4</ele></trkpt><trkpt lat="48.74375" lon="17.710857"><time>2024-05-01T12:50:34.000Z</time><ele>293.6</ele></trkpt><trkpt lat="48.743774" lon="17.710829"><time>2024-05-01T12:50:35.000Z</time><ele>294</ele></trkpt><trkpt lat="48.7438" lon="17.710804"><time>2024-05-01T12:50:36.000Z</time><ele>294.2</ele></trkpt><trkpt lat="48.74382" lon="17.710775"><time>2024-05-01T12:50:37.000Z</time><ele>294.2</ele></trkpt><trkpt lat="48.743843" lon="17.710749"><time>2024-05-01T12:50:38.000Z</time><ele>294.2</ele></trkpt><trkpt lat="48.74387" lon="17.71072"><time>2024-05-01T12:50:39.000Z</time><ele>294.2</ele></trkpt><trkpt lat="48.74389" lon="17.710695"><time>2024-05-01T12:50:40.000Z</time><ele>294</ele></trkpt><trkpt lat="48.74393" lon="17.71065"><time>2024-05-01T12:50:42.000Z</time><ele>294.2</ele></trkpt><trkpt lat="48.743954" lon="17.710627"><time>2024-05-01T12:50:43.000Z</time><ele>294.6</ele></trkpt><trkpt lat="48.743977" lon="17.7106"><time>2024-05-01T12:50:44.000Z</time><ele>295</ele></trkpt><trkpt lat="48.744" lon="17.71057"><time>2024-05-01T12:50:45.000Z</time><ele>295.6</ele></trkpt><trkpt lat="48.744034" lon="17.710518"><time>2024-05-01T12:50:47.000Z</time><ele>296.6</ele></trkpt><trkpt lat="48.744076" lon="17.71046"><time>2024-05-01T12:50:49.000Z</time><ele>297.2</ele></trkpt><trkpt lat="48.744102" lon="17.710436"><time>2024-05-01T12:50:50.000Z</time><ele>297.8</ele></trkpt><trkpt lat="48.744133" lon="17.710407"><time>2024-05-01T12:50:51.000Z</time><ele>298.2</ele></trkpt><trkpt lat="48.744175" lon="17.710373"><time>2024-05-01T12:50:53.000Z</time><ele>298.6</ele></trkpt><trkpt lat="48.7442" lon="17.710348"><time>2024-05-01T12:50:54.000Z</time><ele>298.6</ele></trkpt><trkpt lat="48.744236" lon="17.710308"><time>2024-05-01T12:50:57.000Z</time><ele>299</ele></trkpt><trkpt lat="48.74428" lon="17.710276"><time>2024-05-01T12:50:59.000Z</time><ele>299.4</ele></trkpt><trkpt lat="48.74432" lon="17.710236"><time>2024-05-01T12:51:01.000Z</time><ele>300</ele></trkpt><trkpt lat="48.744343" lon="17.710209"><time>2024-05-01T12:51:02.000Z</time><ele>300.4</ele></trkpt><trkpt lat="48.744373" lon="17.710192"><time>2024-05-01T12:51:03.000Z</time><ele>300.8</ele></trkpt><trkpt lat="48.744415" lon="17.71016"><time>2024-05-01T12:51:05.000Z</time><ele>301.2</ele></trkpt><trkpt lat="48.744457" lon="17.710115"><time>2024-05-01T12:51:07.000Z</time><ele>301.2</ele></trkpt><trkpt lat="48.74448" lon="17.71009"><time>2024-05-01T12:51:08.000Z</time><ele>301.4</ele></trkpt><trkpt lat="48.744503" lon="17.71006"><time>2024-05-01T12:51:09.000Z</time><ele>301.4</ele></trkpt><trkpt lat="48.744545" lon="17.710028"><time>2024-05-01T12:51:11.000Z</time><ele>301.8</ele></trkpt><trkpt lat="48.744576" lon="17.710009"><time>2024-05-01T12:51:13.000Z</time><ele>302.4</ele></trkpt><trkpt lat="48.74461" lon="17.709984"><time>2024-05-01T12:51:15.000Z</time><ele>303.4</ele></trkpt><trkpt lat="48.744633" lon="17.70996"><time>2024-05-01T12:51:16.000Z</time><ele>304.2</ele></trkpt><trkpt lat="48.74466" lon="17.709936"><time>2024-05-01T12:51:17.000Z</time><ele>305</ele></trkpt><trkpt lat="48.744686" lon="17.70992"><time>2024-05-01T12:51:18.000Z</time><ele>305.4</ele></trkpt><trkpt lat="48.744728" lon="17.709885"><time>2024-05-01T12:51:20.000Z</time><ele>305.4</ele></trkpt><trkpt lat="48.744778" lon="17.709856"><time>2024-05-01T12:51:22.000Z</time><ele>305.4</ele></trkpt><trkpt lat="48.7448" lon="17.709835"><time>2024-05-01T12:51:23.000Z</time><ele>305.4</ele></trkpt><trkpt lat="48.74484" lon="17.709805"><time>2024-05-01T12:51:25.000Z</time><ele>306</ele></trkpt><trkpt lat="48.744884" lon="17.709791"><time>2024-05-01T12:51:27.000Z</time><ele>306.4</ele></trkpt><trkpt lat="48.744938" lon="17.70976"><time>2024-05-01T12:51:29.000Z</time><ele>306.8</ele></trkpt><trkpt lat="48.74496" lon="17.70974"><time>2024-05-01T12:51:30.000Z</time><ele>307</ele></trkpt><trkpt lat="48.744984" lon="17.70972"><time>2024-05-01T12:51:31.000Z</time><ele>307</ele></trkpt><trkpt lat="48.745037" lon="17.709703"><time>2024-05-01T12:51:33.000Z</time><ele>306.6</ele></trkpt><trkpt lat="48.74508" lon="17.709692"><time>2024-05-01T12:51:35.000Z</time><ele>306.6</ele></trkpt><trkpt lat="48.745106" lon="17.70968"><time>2024-05-01T12:51:36.000Z</time><ele>306.6</ele></trkpt><trkpt lat="48.745144" lon="17.709652"><time>2024-05-01T12:51:38.000Z</time><ele>306.6</ele></trkpt><trkpt lat="48.74517" lon="17.70963"><time>2024-05-01T12:51:40.000Z</time><ele>307</ele></trkpt><trkpt lat="48.7452" lon="17.709616"><time>2024-05-01T12:51:41.000Z</time><ele>307.2</ele></trkpt><trkpt lat="48.745235" lon="17.7096"><time>2024-05-01T12:51:42.000Z</time><ele>307</ele></trkpt><trkpt lat="48.745262" lon="17.709587"><time>2024-05-01T12:51:43.000Z</time><ele>306.8</ele></trkpt><trkpt lat="48.745304" lon="17.709566"><time>2024-05-01T12:51:45.000Z</time><ele>306.4</ele></trkpt><trkpt lat="48.74536" lon="17.70955"><time>2024-05-01T12:51:47.000Z</time><ele>305.6</ele></trkpt><trkpt lat="48.745388" lon="17.70954"><time>2024-05-01T12:51:48.000Z</time><ele>305</ele></trkpt><trkpt lat="48.74544" lon="17.709536"><time>2024-05-01T12:51:50.000Z</time><ele>305</ele></trkpt><trkpt lat="48.74547" lon="17.709532"><time>2024-05-01T12:51:51.000Z</time><ele>305</ele></trkpt><trkpt lat="48.7455" lon="17.709528"><time>2024-05-01T12:51:52.000Z</time><ele>305.4</ele></trkpt><trkpt lat="48.745537" lon="17.709522"><time>2024-05-01T12:51:53.000Z</time><ele>306</ele></trkpt><trkpt lat="48.745567" lon="17.70952"><time>2024-05-01T12:51:54.000Z</time><ele>306.4</ele></trkpt><trkpt lat="48.74559" lon="17.709524"><time>2024-05-01T12:51:55.000Z</time><ele>306.6</ele></trkpt><trkpt lat="48.745647" lon="17.709538"><time>2024-05-01T12:51:57.000Z</time><ele>307</ele></trkpt><trkpt lat="48.745674" lon="17.709538"><time>2024-05-01T12:51:58.000Z</time><ele>307.2</ele></trkpt><trkpt lat="48.745705" lon="17.709536"><time>2024-05-01T12:51:59.000Z</time><ele>307.6</ele></trkpt><trkpt lat="48.745735" lon="17.70952"><time>2024-05-01T12:52:00.000Z</time><ele>308.2</ele></trkpt><trkpt lat="48.74576" lon="17.7095"><time>2024-05-01T12:52:01.000Z</time><ele>308.6</ele></trkpt><trkpt lat="48.74579" lon="17.709476"><time>2024-05-01T12:52:02.000Z</time><ele>308.8</ele></trkpt><trkpt lat="48.745815" lon="17.70944"><time>2024-05-01T12:52:03.000Z</time><ele>309</ele></trkpt><trkpt lat="48.745846" lon="17.709423"><time>2024-05-01T12:52:04.000Z</time><ele>309.2</ele></trkpt><trkpt lat="48.74587" lon="17.7094"><time>2024-05-01T12:52:05.000Z</time><ele>309.4</ele></trkpt><trkpt lat="48.745895" lon="17.709375"><time>2024-05-01T12:52:06.000Z</time><ele>309.6</ele></trkpt><trkpt lat="48.745926" lon="17.70935"><time>2024-05-01T12:52:07.000Z</time><ele>309.8</ele></trkpt><trkpt lat="48.745953" lon="17.70932"><time>2024-05-01T12:52:08.000Z</time><ele>310.2</ele></trkpt><trkpt lat="48.745983" lon="17.709293"><time>2024-05-01T12:52:09.000Z</time><ele>310.4</ele></trkpt><trkpt lat="48.746014" lon="17.709272"><time>2024-05-01T12:52:10.000Z</time><ele>310.6</ele></trkpt><trkpt lat="48.746044" lon="17.70925"><time>2024-05-01T12:52:11.000Z</time><ele>310.8</ele></trkpt><trkpt lat="48.74607" lon="17.709225"><time>2024-05-01T12:52:12.000Z</time><ele>311</ele></trkpt><trkpt lat="48.746098" lon="17.709196"><time>2024-05-01T12:52:13.000Z</time><ele>311.2</ele></trkpt><trkpt lat="48.746128" lon="17.709171"><time>2024-05-01T12:52:14.000Z</time><ele>311.4</ele></trkpt><trkpt lat="48.74616" lon="17.709148"><time>2024-05-01T12:52:15.000Z</time><ele>311.6</ele></trkpt><trkpt lat="48.746193" lon="17.709127"><time>2024-05-01T12:52:16.000Z</time><ele>311.8</ele></trkpt><trkpt lat="48.74622" lon="17.709103"><time>2024-05-01T12:52:17.000Z</time><ele>312</ele></trkpt><trkpt lat="48.746246" lon="17.709076"><time>2024-05-01T12:52:18.000Z</time><ele>312</ele></trkpt><trkpt lat="48.746277" lon="17.709055"><time>2024-05-01T12:52:19.000Z</time><ele>312.2</ele></trkpt><trkpt lat="48.746304" lon="17.709028"><time>2024-05-01T12:52:20.000Z</time><ele>312.4</ele></trkpt><trkpt lat="48.746338" lon="17.709"><time>2024-05-01T12:52:21.000Z</time><ele>312.6</ele></trkpt><trkpt lat="48.74636" lon="17.708977"><time>2024-05-01T12:52:22.000Z</time><ele>312.8</ele></trkpt><trkpt lat="48.746387" lon="17.708952"><time>2024-05-01T12:52:23.000Z</time><ele>313.2</ele></trkpt><trkpt lat="48.746414" lon="17.708927"><time>2024-05-01T12:52:24.000Z</time><ele>313.4</ele></trkpt><trkpt lat="48.74644" lon="17.708904"><time>2024-05-01T12:52:25.000Z</time><ele>313.6</ele></trkpt><trkpt lat="48.746468" lon="17.70888"><time>2024-05-01T12:52:26.000Z</time><ele>313.8</ele></trkpt><trkpt lat="48.7465" lon="17.708857"><time>2024-05-01T12:52:27.000Z</time><ele>314</ele></trkpt><trkpt lat="48.746532" lon="17.70883"><time>2024-05-01T12:52:28.000Z</time><ele>314</ele></trkpt><trkpt lat="48.746563" lon="17.7088"><time>2024-05-01T12:52:29.000Z</time><ele>314</ele></trkpt><trkpt lat="48.7466" lon="17.708769"><time>2024-05-01T12:52:30.000Z</time><ele>314</ele></trkpt><trkpt lat="48.746635" lon="17.708742"><time>2024-05-01T12:52:31.000Z</time><ele>314</ele></trkpt><trkpt lat="48.746674" lon="17.708715"><time>2024-05-01T12:52:32.000Z</time><ele>314</ele></trkpt><trkpt lat="48.746708" lon="17.708685"><time>2024-05-01T12:52:33.000Z</time><ele>314</ele></trkpt><trkpt lat="48.746742" lon="17.708652"><time>2024-05-01T12:52:34.000Z</time><ele>314</ele></trkpt><trkpt lat="48.746777" lon="17.70862"><time>2024-05-01T12:52:35.000Z</time><ele>314</ele></trkpt><trkpt lat="48.74681" lon="17.708586"><time>2024-05-01T12:52:36.000Z</time><ele>314</ele></trkpt><trkpt lat="48.74685" lon="17.708557"><time>2024-05-01T12:52:37.000Z</time><ele>314.2</ele></trkpt><trkpt lat="48.746883" lon="17.708529"><time>2024-05-01T12:52:38.000Z</time><ele>314.4</ele></trkpt><trkpt lat="48.74692" lon="17.708494"><time>2024-05-01T12:52:39.000Z</time><ele>314.6</ele></trkpt><trkpt lat="48.746956" lon="17.708456"><time>2024-05-01T12:52:40.000Z</time><ele>314.8</ele></trkpt><trkpt lat="48.746986" lon="17.708416"><time>2024-05-01T12:52:41.000Z</time><ele>315</ele></trkpt><trkpt lat="48.74702" lon="17.708374"><time>2024-05-01T12:52:42.000Z</time><ele>315</ele></trkpt><trkpt lat="48.747055" lon="17.70834"><time>2024-05-01T12:52:43.000Z</time><ele>315</ele></trkpt><trkpt lat="48.747093" lon="17.708303"><time>2024-05-01T12:52:44.000Z</time><ele>315</ele></trkpt><trkpt lat="48.747124" lon="17.708273"><time>2024-05-01T12:52:45.000Z</time><ele>315.2</ele></trkpt><trkpt lat="48.747154" lon="17.708244"><time>2024-05-01T12:52:46.000Z</time><ele>315.4</ele></trkpt><trkpt lat="48.74719" lon="17.70821"><time>2024-05-01T12:52:47.000Z</time><ele>315.6</ele></trkpt><trkpt lat="48.747223" lon="17.708178"><time>2024-05-01T12:52:48.000Z</time><ele>315.8</ele></trkpt><trkpt lat="48.747253" lon="17.708147"><time>2024-05-01T12:52:49.000Z</time><ele>316</ele></trkpt><trkpt lat="48.747284" lon="17.70812"><time>2024-05-01T12:52:50.000Z</time><ele>316</ele></trkpt><trkpt lat="48.747314" lon="17.708092"><time>2024-05-01T12:52:51.000Z</time><ele>316.2</ele></trkpt><trkpt lat="48.74735" lon="17.708063"><time>2024-05-01T12:52:52.000Z</time><ele>316.4</ele></trkpt><trkpt lat="48.747375" lon="17.708038"><time>2024-05-01T12:52:53.000Z</time><ele>316.8</ele></trkpt><trkpt lat="48.74741" lon="17.708008"><time>2024-05-01T12:52:54.000Z</time><ele>317.2</ele></trkpt><trkpt lat="48.74744" lon="17.70798"><time>2024-05-01T12:52:55.000Z</time><ele>317.6</ele></trkpt><trkpt lat="48.747467" lon="17.707952"><time>2024-05-01T12:52:56.000Z</time><ele>318</ele></trkpt><trkpt lat="48.7475" lon="17.70792"><time>2024-05-01T12:52:57.000Z</time><ele>318.4</ele></trkpt><trkpt lat="48.747528" lon="17.70789"><time>2024-05-01T12:52:58.000Z</time><ele>318.6</ele></trkpt><trkpt lat="48.747555" lon="17.707865"><time>2024-05-01T12:52:59.000Z</time><ele>318.8</ele></trkpt><trkpt lat="48.747585" lon="17.707836"><time>2024-05-01T12:53:00.000Z</time><ele>319</ele></trkpt><trkpt lat="48.747612" lon="17.707808"><time>2024-05-01T12:53:01.000Z</time><ele>319</ele></trkpt><trkpt lat="48.74764" lon="17.707785"><time>2024-05-01T12:53:02.000Z</time><ele>319</ele></trkpt><trkpt lat="48.747673" lon="17.70776"><time>2024-05-01T12:53:03.000Z</time><ele>319</ele></trkpt><trkpt lat="48.747704" lon="17.707731"><time>2024-05-01T12:53:04.000Z</time><ele>319</ele></trkpt><trkpt lat="48.74773" lon="17.7077"><time>2024-05-01T12:53:05.000Z</time><ele>318.8</ele></trkpt><trkpt lat="48.747765" lon="17.707668"><time>2024-05-01T12:53:06.000Z</time><ele>318.6</ele></trkpt><trkpt lat="48.74779" lon="17.707636"><time>2024-05-01T12:53:07.000Z</time><ele>318.4</ele></trkpt><trkpt lat="48.747826" lon="17.707607"><time>2024-05-01T12:53:08.000Z</time><ele>318.2</ele></trkpt><trkpt lat="48.747852" lon="17.707584"><time>2024-05-01T12:53:09.000Z</time><ele>318</ele></trkpt><trkpt lat="48.747883" lon="17.707561"><time>2024-05-01T12:53:10.000Z</time><ele>317.8</ele></trkpt><trkpt lat="48.747917" lon="17.707533"><time>2024-05-01T12:53:11.000Z</time><ele>317.8</ele></trkpt><trkpt lat="48.747948" lon="17.7075"><time>2024-05-01T12:53:12.000Z</time><ele>317.6</ele></trkpt><trkpt lat="48.74798" lon="17.707472"><time>2024-05-01T12:53:13.000Z</time><ele>317.4</ele></trkpt><trkpt lat="48.748013" lon="17.707445"><time>2024-05-01T12:53:14.000Z</time><ele>317.2</ele></trkpt><trkpt lat="48.74804" lon="17.707417"><time>2024-05-01T12:53:15.000Z</time><ele>317.2</ele></trkpt><trkpt lat="48.748077" lon="17.707386"><time>2024-05-01T12:53:16.000Z</time><ele>316.8</ele></trkpt><trkpt lat="48.748108" lon="17.707355"><time>2024-05-01T12:53:17.000Z</time><ele>316.4</ele></trkpt><trkpt lat="48.748135" lon="17.707321"><time>2024-05-01T12:53:18.000Z</time><ele>316.2</ele></trkpt><trkpt lat="48.74816" lon="17.707289"><time>2024-05-01T12:53:19.000Z</time><ele>316</ele></trkpt><trkpt lat="48.748184" lon="17.707249"><time>2024-05-01T12:53:20.000Z</time><ele>315.6</ele></trkpt><trkpt lat="48.748207" lon="17.707212"><time>2024-05-01T12:53:21.000Z</time><ele>315.4</ele></trkpt><trkpt lat="48.74824" lon="17.707186"><time>2024-05-01T12:53:22.000Z</time><ele>315.2</ele></trkpt><trkpt lat="48.748264" lon="17.70716"><time>2024-05-01T12:53:23.000Z</time><ele>315</ele></trkpt><trkpt lat="48.748295" lon="17.707129"><time>2024-05-01T12:53:24.000Z</time><ele>314.6</ele></trkpt><trkpt lat="48.74833" lon="17.7071"><time>2024-05-01T12:53:25.000Z</time><ele>314.4</ele></trkpt><trkpt lat="48.748363" lon="17.707071"><time>2024-05-01T12:53:26.000Z</time><ele>314.4</ele></trkpt><trkpt lat="48.74839" lon="17.707052"><time>2024-05-01T12:53:27.000Z</time><ele>314.6</ele></trkpt><trkpt lat="48.748425" lon="17.707031"><time>2024-05-01T12:53:28.000Z</time><ele>314.8</ele></trkpt><trkpt lat="48.74845" lon="17.707018"><time>2024-05-01T12:53:29.000Z</time><ele>315.2</ele></trkpt><trkpt lat="48.74848" lon="17.707"><time>2024-05-01T12:53:30.000Z</time><ele>315.8</ele></trkpt><trkpt lat="48.748516" lon="17.706978"><time>2024-05-01T12:53:31.000Z</time><ele>316.2</ele></trkpt><trkpt lat="48.748554" lon="17.706957"><time>2024-05-01T12:53:32.000Z</time><ele>316.8</ele></trkpt><trkpt lat="48.748592" lon="17.706932"><time>2024-05-01T12:53:33.000Z</time><ele>317.2</ele></trkpt><trkpt lat="48.748623" lon="17.706911"><time>2024-05-01T12:53:34.000Z</time><ele>317.6</ele></trkpt><trkpt lat="48.748657" lon="17.706892"><time>2024-05-01T12:53:35.000Z</time><ele>317.8</ele></trkpt><trkpt lat="48.74868" lon="17.706867"><time>2024-05-01T12:53:36.000Z</time><ele>318</ele></trkpt><trkpt lat="48.74871" lon="17.706846"><time>2024-05-01T12:53:37.000Z</time><ele>318</ele></trkpt><trkpt lat="48.748745" lon="17.70682"><time>2024-05-01T12:53:38.000Z</time><ele>318</ele></trkpt><trkpt lat="48.748775" lon="17.706799"><time>2024-05-01T12:53:39.000Z</time><ele>318</ele></trkpt><trkpt lat="48.74881" lon="17.706776"><time>2024-05-01T12:53:40.000Z</time><ele>318</ele></trkpt><trkpt lat="48.748848" lon="17.706753"><time>2024-05-01T12:53:41.000Z</time><ele>318</ele></trkpt><trkpt lat="48.748886" lon="17.70672"><time>2024-05-01T12:53:42.000Z</time><ele>317.8</ele></trkpt><trkpt lat="48.748928" lon="17.706684"><time>2024-05-01T12:53:43.000Z</time><ele>317.4</ele></trkpt><trkpt lat="48.748962" lon="17.706657"><time>2024-05-01T12:53:44.000Z</time><ele>317</ele></trkpt><trkpt lat="48.748997" lon="17.706644"><time>2024-05-01T12:53:45.000Z</time><ele>316.6</ele></trkpt><trkpt lat="48.74903" lon="17.706636"><time>2024-05-01T12:53:46.000Z</time><ele>316.2</ele></trkpt><trkpt lat="48.749077" lon="17.706615"><time>2024-05-01T12:53:47.000Z</time><ele>316.2</ele></trkpt><trkpt lat="48.749172" lon="17.706556"><time>2024-05-01T12:53:49.000Z</time><ele>316.4</ele></trkpt><trkpt lat="48.749207" lon="17.706532"><time>2024-05-01T12:53:50.000Z</time><ele>316.6</ele></trkpt><trkpt lat="48.74924" lon="17.7065"><time>2024-05-01T12:53:51.000Z</time><ele>316.8</ele></trkpt><trkpt lat="48.74927" lon="17.706478"><time>2024-05-01T12:53:52.000Z</time><ele>317</ele></trkpt><trkpt lat="48.749306" lon="17.706438"><time>2024-05-01T12:53:53.000Z</time><ele>317</ele></trkpt><trkpt lat="48.749332" lon="17.706411"><time>2024-05-01T12:53:54.000Z</time><ele>317.6</ele></trkpt><trkpt lat="48.74937" lon="17.706375"><time>2024-05-01T12:53:55.000Z</time><ele>318</ele></trkpt><trkpt lat="48.749416" lon="17.706347"><time>2024-05-01T12:53:56.000Z</time><ele>318.2</ele></trkpt><trkpt lat="48.749454" lon="17.706312"><time>2024-05-01T12:53:57.000Z</time><ele>318.2</ele></trkpt><trkpt lat="48.74949" lon="17.706285"><time>2024-05-01T12:53:58.000Z</time><ele>318.4</ele></trkpt><trkpt lat="48.74951" lon="17.706251"><time>2024-05-01T12:53:59.000Z</time><ele>318.2</ele></trkpt><trkpt lat="48.749737" lon="17.706043"><time>2024-05-01T12:54:06.000Z</time><ele>319</ele></trkpt><trkpt lat="48.749798" lon="17.705978"><time>2024-05-01T12:54:08.000Z</time><ele>319.6</ele></trkpt><trkpt lat="48.749825" lon="17.70595"><time>2024-05-01T12:54:09.000Z</time><ele>319.8</ele></trkpt><trkpt lat="48.749866" lon="17.70592"><time>2024-05-01T12:54:11.000Z</time><ele>320.2</ele></trkpt><trkpt lat="48.749912" lon="17.705889"><time>2024-05-01T12:54:13.000Z</time><ele>320.4</ele></trkpt><trkpt lat="48.74995" lon="17.70586"><time>2024-05-01T12:54:15.000Z</time><ele>320.8</ele></trkpt><trkpt lat="48.749928" lon="17.705828"><time>2024-05-01T12:54:19.000Z</time><ele>320.6</ele></trkpt><trkpt lat="48.74989" lon="17.705824"><time>2024-05-01T12:54:21.000Z</time><ele>320.4</ele></trkpt><trkpt lat="48.749844" lon="17.705828"><time>2024-05-01T12:54:23.000Z</time><ele>320.6</ele></trkpt><trkpt lat="48.74981" lon="17.70584"><time>2024-05-01T12:54:25.000Z</time><ele>321</ele></trkpt><trkpt lat="48.749767" lon="17.70585"><time>2024-05-01T12:54:27.000Z</time><ele>321.2</ele></trkpt><trkpt lat="48.74973" lon="17.705853"><time>2024-05-01T12:54:29.000Z</time><ele>322.2</ele></trkpt><trkpt lat="48.749687" lon="17.70586"><time>2024-05-01T12:54:32.000Z</time><ele>323</ele></trkpt><trkpt lat="48.749645" lon="17.705872"><time>2024-05-01T12:54:34.000Z</time><ele>323.2</ele></trkpt><trkpt lat="48.74959" lon="17.705875"><time>2024-05-01T12:54:36.000Z</time><ele>323</ele></trkpt><trkpt lat="48.749565" lon="17.705868"><time>2024-05-01T12:54:37.000Z</time><ele>322.8</ele></trkpt><trkpt lat="48.749527" lon="17.705832"><time>2024-05-01T12:54:39.000Z</time><ele>322.6</ele></trkpt><trkpt lat="48.74951" lon="17.705772"><time>2024-05-01T12:54:41.000Z</time><ele>322.4</ele></trkpt><trkpt lat="48.74949" lon="17.705723"><time>2024-05-01T12:54:43.000Z</time><ele>322.2</ele></trkpt><trkpt lat="48.74944" lon="17.705746"><time>2024-05-01T12:54:45.000Z</time><ele>322.2</ele></trkpt><trkpt lat="48.749393" lon="17.705776"><time>2024-05-01T12:54:47.000Z</time><ele>322.2</ele></trkpt><trkpt lat="48.749344" lon="17.70579"><time>2024-05-01T12:54:49.000Z</time><ele>322.2</ele></trkpt><trkpt lat="48.749306" lon="17.705816"><time>2024-05-01T12:54:51.000Z</time><ele>322.8</ele></trkpt><trkpt lat="48.749264" lon="17.705847"><time>2024-05-01T12:54:53.000Z</time><ele>323.4</ele></trkpt><trkpt lat="48.74925" lon="17.70585"><time>2024-05-01T12:54:55.000Z</time><ele>323.6</ele></trkpt><trkpt lat="48.749233" lon="17.70584"><time>2024-05-01T12:56:01.000Z</time><ele>324</ele></trkpt><trkpt lat="48.74923" lon="17.705841"><time>2024-05-01T12:56:02.000Z</time><ele>324.2</ele></trkpt><trkpt lat="48.749226" lon="17.705847"><time>2024-05-01T12:56:03.000Z</time><ele>324</ele></trkpt><trkpt lat="48.74922" lon="17.705841"><time>2024-05-01T12:56:04.000Z</time><ele>324</ele></trkpt><trkpt lat="48.749207" lon="17.705845"><time>2024-05-01T12:56:06.000Z</time><ele>324.2</ele></trkpt><trkpt lat="48.749176" lon="17.705835"><time>2024-05-01T12:56:08.000Z</time><ele>324</ele></trkpt><trkpt lat="48.749123" lon="17.705856"><time>2024-05-01T12:56:10.000Z</time><ele>323.6</ele></trkpt><trkpt lat="48.74908" lon="17.705868"><time>2024-05-01T12:56:12.000Z</time><ele>323.4</ele></trkpt><trkpt lat="48.749035" lon="17.705877"><time>2024-05-01T12:56:14.000Z</time><ele>322.8</ele></trkpt><trkpt lat="48.74901" lon="17.7059"><time>2024-05-01T12:56:15.000Z</time><ele>322.4</ele></trkpt><trkpt lat="48.748985" lon="17.705923"><time>2024-05-01T12:56:16.000Z</time><ele>322</ele></trkpt><trkpt lat="48.74896" lon="17.705952"><time>2024-05-01T12:56:17.000Z</time><ele>321.8</ele></trkpt><trkpt lat="48.748913" lon="17.70598"><time>2024-05-01T12:56:19.000Z</time><ele>321.4</ele></trkpt><trkpt lat="48.748882" lon="17.705984"><time>2024-05-01T12:56:20.000Z</time><ele>321.2</ele></trkpt><trkpt lat="48.748856" lon="17.70597"><time>2024-05-01T12:56:21.000Z</time><ele>321</ele></trkpt><trkpt lat="48.748833" lon="17.705936"><time>2024-05-01T12:56:22.000Z</time><ele>320.8</ele></trkpt><trkpt lat="48.74871" lon="17.705732"><time>2024-05-01T12:56:27.000Z</time><ele>318.6</ele></trkpt><trkpt lat="48.74871" lon="17.705729"><time>2024-05-01T12:56:28.000Z</time><ele>317.8</ele></trkpt><trkpt lat="48.748688" lon="17.705685"><time>2024-05-01T12:57:15.000Z</time><ele>317.8</ele></trkpt><trkpt lat="48.748703" lon="17.705698"><time>2024-05-01T12:57:18.000Z</time><ele>318</ele></trkpt><trkpt lat="48.74871" lon="17.705702"><time>2024-05-01T12:57:19.000Z</time><ele>318.2</ele></trkpt><trkpt lat="48.74871" lon="17.705711"><time>2024-05-01T12:57:21.000Z</time><ele>318.6</ele></trkpt><trkpt lat="48.74873" lon="17.705755"><time>2024-05-01T13:00:13.000Z</time><ele>319.6</ele></trkpt><trkpt lat="48.748726" lon="17.705755"><time>2024-05-01T13:00:14.000Z</time><ele>319.8</ele></trkpt><trkpt lat="48.748714" lon="17.70575"><time>2024-05-01T13:01:46.000Z</time><ele>320</ele></trkpt><trkpt lat="48.74872" lon="17.705748"><time>2024-05-01T13:01:47.000Z</time><ele>320.2</ele></trkpt><trkpt lat="48.74871" lon="17.70574"><time>2024-05-01T13:01:50.000Z</time><ele>320.4</ele></trkpt><trkpt lat="48.748695" lon="17.705734"><time>2024-05-01T13:01:51.000Z</time><ele>319.8</ele></trkpt><trkpt lat="48.74869" lon="17.705734"><time>2024-05-01T13:01:53.000Z</time><ele>319.6</ele></trkpt><trkpt lat="48.74832" lon="17.705687"><time>2024-05-01T13:02:13.000Z</time><ele>316.6</ele></trkpt><trkpt lat="48.748295" lon="17.705627"><time>2024-05-01T13:02:14.000Z</time><ele>316</ele></trkpt><trkpt lat="48.748276" lon="17.70559"><time>2024-05-01T13:02:15.000Z</time><ele>315.8</ele></trkpt><trkpt lat="48.74819" lon="17.705671"><time>2024-05-01T13:02:17.000Z</time><ele>315.2</ele></trkpt><trkpt lat="48.74816" lon="17.705692"><time>2024-05-01T13:02:18.000Z</time><ele>315</ele></trkpt><trkpt lat="48.748127" lon="17.705708"><time>2024-05-01T13:02:19.000Z</time><ele>314.8</ele></trkpt><trkpt lat="48.74808" lon="17.70572"><time>2024-05-01T13:02:21.000Z</time><ele>314.2</ele></trkpt><trkpt lat="48.74805" lon="17.705717"><time>2024-05-01T13:02:22.000Z</time><ele>313.4</ele></trkpt><trkpt lat="48.748024" lon="17.705713"><time>2024-05-01T13:02:23.000Z</time><ele>312.6</ele></trkpt><trkpt lat="48.74797" lon="17.705736"><time>2024-05-01T13:02:25.000Z</time><ele>311.8</ele></trkpt><trkpt lat="48.74792" lon="17.70571"><time>2024-05-01T13:02:27.000Z</time><ele>310.6</ele></trkpt><trkpt lat="48.747883" lon="17.705696"><time>2024-05-01T13:02:28.000Z</time><ele>309.6</ele></trkpt><trkpt lat="48.747852" lon="17.705688"><time>2024-05-01T13:02:29.000Z</time><ele>308.8</ele></trkpt><trkpt lat="48.747814" lon="17.705671"><time>2024-05-01T13:02:30.000Z</time><ele>308</ele></trkpt><trkpt lat="48.74778" lon="17.70564"><time>2024-05-01T13:02:31.000Z</time><ele>306.8</ele></trkpt><trkpt lat="48.747753" lon="17.705587"><time>2024-05-01T13:02:32.000Z</time><ele>305.6</ele></trkpt><trkpt lat="48.747726" lon="17.705536"><time>2024-05-01T13:02:33.000Z</time><ele>304.4</ele></trkpt><trkpt lat="48.74771" lon="17.705477"><time>2024-05-01T13:02:34.000Z</time><ele>303.4</ele></trkpt><trkpt lat="48.74769" lon="17.705425"><time>2024-05-01T13:02:35.000Z</time><ele>302.4</ele></trkpt><trkpt lat="48.747646" lon="17.705393"><time>2024-05-01T13:02:36.000Z</time><ele>302</ele></trkpt><trkpt lat="48.747616" lon="17.70539"><time>2024-05-01T13:02:37.000Z</time><ele>301.4</ele></trkpt><trkpt lat="48.747543" lon="17.705309"><time>2024-05-01T13:02:39.000Z</time><ele>300.2</ele></trkpt><trkpt lat="48.747543" lon="17.705256"><time>2024-05-01T13:02:40.000Z</time><ele>299.8</ele></trkpt><trkpt lat="48.74754" lon="17.705156"><time>2024-05-01T13:02:42.000Z</time><ele>299.4</ele></trkpt><trkpt lat="48.747486" lon="17.705147"><time>2024-05-01T13:02:44.000Z</time><ele>299.6</ele></trkpt><trkpt lat="48.74727" lon="17.704952"><time>2024-05-01T13:02:52.000Z</time><ele>294</ele></trkpt><trkpt lat="48.74724" lon="17.704903"><time>2024-05-01T13:02:54.000Z</time><ele>293.6</ele></trkpt><trkpt lat="48.7472" lon="17.7049"><time>2024-05-01T13:02:56.000Z</time><ele>292.4</ele></trkpt><trkpt lat="48.74717" lon="17.704906"><time>2024-05-01T13:02:57.000Z</time><ele>291.2</ele></trkpt><trkpt lat="48.747124" lon="17.704905"><time>2024-05-01T13:02:59.000Z</time><ele>289.4</ele></trkpt><trkpt lat="48.74708" lon="17.704891"><time>2024-05-01T13:03:01.000Z</time><ele>286.4</ele></trkpt><trkpt lat="48.74704" lon="17.704884"><time>2024-05-01T13:03:11.000Z</time><ele>286.8</ele></trkpt><trkpt lat="48.74705" lon="17.70487"><time>2024-05-01T13:03:13.000Z</time><ele>287.6</ele></trkpt><trkpt lat="48.747063" lon="17.70487"><time>2024-05-01T13:03:16.000Z</time><ele>289.2</ele></trkpt><trkpt lat="48.74709" lon="17.704845"><time>2024-05-01T13:03:19.000Z</time><ele>291.2</ele></trkpt><trkpt lat="48.7471" lon="17.704832"><time>2024-05-01T13:03:21.000Z</time><ele>293</ele></trkpt><trkpt lat="48.74709" lon="17.704868"><time>2024-05-01T13:03:27.000Z</time><ele>294</ele></trkpt><trkpt lat="48.747055" lon="17.704857"><time>2024-05-01T13:03:30.000Z</time><ele>294.4</ele></trkpt><trkpt lat="48.747025" lon="17.70485"><time>2024-05-01T13:03:32.000Z</time><ele>294.6</ele></trkpt><trkpt lat="48.747017" lon="17.704847"><time>2024-05-01T13:03:33.000Z</time><ele>294.2</ele></trkpt><trkpt lat="48.74699" lon="17.704847"><time>2024-05-01T13:03:35.000Z</time><ele>293.6</ele></trkpt><trkpt lat="48.746964" lon="17.704857"><time>2024-05-01T13:03:37.000Z</time><ele>293</ele></trkpt><trkpt lat="48.746944" lon="17.704851"><time>2024-05-01T13:03:39.000Z</time><ele>292.4</ele></trkpt><trkpt lat="48.74693" lon="17.704908"><time>2024-05-01T13:08:39.000Z</time><ele>291.8</ele></trkpt><trkpt lat="48.746902" lon="17.704935"><time>2024-05-01T13:08:42.000Z</time><ele>291.4</ele></trkpt><trkpt lat="48.746876" lon="17.70496"><time>2024-05-01T13:08:44.000Z</time><ele>291</ele></trkpt><trkpt lat="48.746822" lon="17.704975"><time>2024-05-01T13:08:46.000Z</time><ele>290.4</ele></trkpt><trkpt lat="48.746788" lon="17.704966"><time>2024-05-01T13:08:47.000Z</time><ele>290</ele></trkpt><trkpt lat="48.74664" lon="17.704933"><time>2024-05-01T13:08:50.000Z</time><ele>289.6</ele></trkpt><trkpt lat="48.74659" lon="17.704905"><time>2024-05-01T13:08:52.000Z</time><ele>289.4</ele></trkpt><trkpt lat="48.74644" lon="17.704876"><time>2024-05-01T13:08:55.000Z</time><ele>287.6</ele></trkpt><trkpt lat="48.746326" lon="17.704828"><time>2024-05-01T13:08:58.000Z</time><ele>286</ele></trkpt><trkpt lat="48.746304" lon="17.704796"><time>2024-05-01T13:08:59.000Z</time><ele>285.6</ele></trkpt><trkpt lat="48.746166" lon="17.704733"><time>2024-05-01T13:09:02.000Z</time><ele>285</ele></trkpt><trkpt lat="48.746128" lon="17.704756"><time>2024-05-01T13:09:03.000Z</time><ele>285.4</ele></trkpt><trkpt lat="48.746086" lon="17.704792"><time>2024-05-01T13:09:04.000Z</time><ele>285.8</ele></trkpt><trkpt lat="48.74593" lon="17.704859"><time>2024-05-01T13:09:07.000Z</time><ele>285.8</ele></trkpt><trkpt lat="48.74588" lon="17.704865"><time>2024-05-01T13:09:08.000Z</time><ele>285.4</ele></trkpt><trkpt lat="48.74585" lon="17.704865"><time>2024-05-01T13:09:09.000Z</time><ele>285</ele></trkpt><trkpt lat="48.745796" lon="17.704857"><time>2024-05-01T13:09:10.000Z</time><ele>284.6</ele></trkpt><trkpt lat="48.74574" lon="17.704876"><time>2024-05-01T13:09:11.000Z</time><ele>283.6</ele></trkpt><trkpt lat="48.745686" lon="17.704884"><time>2024-05-01T13:09:12.000Z</time><ele>282.4</ele></trkpt><trkpt lat="48.745625" lon="17.70492"><time>2024-05-01T13:09:13.000Z</time><ele>281.8</ele></trkpt><trkpt lat="48.74554" lon="17.704931"><time>2024-05-01T13:09:14.000Z</time><ele>280.4</ele></trkpt><trkpt lat="48.74548" lon="17.705"><time>2024-05-01T13:09:15.000Z</time><ele>279</ele></trkpt><trkpt lat="48.74541" lon="17.705029"><time>2024-05-01T13:09:16.000Z</time><ele>278</ele></trkpt><trkpt lat="48.74536" lon="17.705053"><time>2024-05-01T13:09:17.000Z</time><ele>276.6</ele></trkpt><trkpt lat="48.745296" lon="17.705095"><time>2024-05-01T13:09:18.000Z</time><ele>274.8</ele></trkpt><trkpt lat="48.745243" lon="17.705135"><time>2024-05-01T13:09:19.000Z</time><ele>272.6</ele></trkpt><trkpt lat="48.74519" lon="17.705133"><time>2024-05-01T13:09:20.000Z</time><ele>271</ele></trkpt><trkpt lat="48.74514" lon="17.70511"><time>2024-05-01T13:09:21.000Z</time><ele>269.6</ele></trkpt><trkpt lat="48.745083" lon="17.705065"><time>2024-05-01T13:09:22.000Z</time><ele>268.4</ele></trkpt><trkpt lat="48.745033" lon="17.705069"><time>2024-05-01T13:09:23.000Z</time><ele>267.4</ele></trkpt><trkpt lat="48.744972" lon="17.705067"><time>2024-05-01T13:09:24.000Z</time><ele>267.2</ele></trkpt><trkpt lat="48.744926" lon="17.705091"><time>2024-05-01T13:09:25.000Z</time><ele>266.8</ele></trkpt><trkpt lat="48.744873" lon="17.70509"><time>2024-05-01T13:09:26.000Z</time><ele>266.2</ele></trkpt><trkpt lat="48.74481" lon="17.705105"><time>2024-05-01T13:09:27.000Z</time><ele>265.6</ele></trkpt><trkpt lat="48.74476" lon="17.7051"><time>2024-05-01T13:09:28.000Z</time><ele>265</ele></trkpt><trkpt lat="48.74472" lon="17.705097"><time>2024-05-01T13:09:29.000Z</time><ele>264</ele></trkpt><trkpt lat="48.744682" lon="17.705095"><time>2024-05-01T13:09:30.000Z</time><ele>262.8</ele></trkpt><trkpt lat="48.74464" lon="17.70511"><time>2024-05-01T13:09:31.000Z</time><ele>261.6</ele></trkpt><trkpt lat="48.744568" lon="17.705095"><time>2024-05-01T13:09:32.000Z</time><ele>260.4</ele></trkpt><trkpt lat="48.744503" lon="17.705091"><time>2024-05-01T13:09:33.000Z</time><ele>259.2</ele></trkpt><trkpt lat="48.74444" lon="17.705093"><time>2024-05-01T13:09:34.000Z</time><ele>258.4</ele></trkpt><trkpt lat="48.744392" lon="17.705116"><time>2024-05-01T13:09:35.000Z</time><ele>257.8</ele></trkpt><trkpt lat="48.744335" lon="17.70512"><time>2024-05-01T13:09:36.000Z</time><ele>257.4</ele></trkpt><trkpt lat="48.744293" lon="17.705116"><time>2024-05-01T13:09:37.000Z</time><ele>257</ele></trkpt><trkpt lat="48.744236" lon="17.705149"><time>2024-05-01T13:09:38.000Z</time><ele>256.4</ele></trkpt><trkpt lat="48.744175" lon="17.70515"><time>2024-05-01T13:09:39.000Z</time><ele>255.8</ele></trkpt><trkpt lat="48.744125" lon="17.705158"><time>2024-05-01T13:09:40.000Z</time><ele>255.4</ele></trkpt><trkpt lat="48.744064" lon="17.705168"><time>2024-05-01T13:09:41.000Z</time><ele>255</ele></trkpt><trkpt lat="48.744007" lon="17.705185"><time>2024-05-01T13:09:42.000Z</time><ele>254.6</ele></trkpt><trkpt lat="48.743935" lon="17.705175"><time>2024-05-01T13:09:43.000Z</time><ele>254.2</ele></trkpt><trkpt lat="48.743896" lon="17.705132"><time>2024-05-01T13:09:44.000Z</time><ele>254.4</ele></trkpt><trkpt lat="48.743855" lon="17.705109"><time>2024-05-01T13:09:45.000Z</time><ele>254</ele></trkpt><trkpt lat="48.743805" lon="17.705084"><time>2024-05-01T13:09:46.000Z</time><ele>253.6</ele></trkpt><trkpt lat="48.74375" lon="17.705076"><time>2024-05-01T13:09:47.000Z</time><ele>253.4</ele></trkpt><trkpt lat="48.743687" lon="17.705072"><time>2024-05-01T13:09:48.000Z</time><ele>253.4</ele></trkpt><trkpt lat="48.743603" lon="17.705067"><time>2024-05-01T13:09:49.000Z</time><ele>252.6</ele></trkpt><trkpt lat="48.743546" lon="17.705088"><time>2024-05-01T13:09:50.000Z</time><ele>252</ele></trkpt><trkpt lat="48.743484" lon="17.705095"><time>2024-05-01T13:09:51.000Z</time><ele>251.2</ele></trkpt><trkpt lat="48.743446" lon="17.705076"><time>2024-05-01T13:09:52.000Z</time><ele>250.4</ele></trkpt><trkpt lat="48.743427" lon="17.705048"><time>2024-05-01T13:09:53.000Z</time><ele>249.4</ele></trkpt><trkpt lat="48.743393" lon="17.705025"><time>2024-05-01T13:09:54.000Z</time><ele>248.6</ele></trkpt><trkpt lat="48.74335" lon="17.705032"><time>2024-05-01T13:09:55.000Z</time><ele>247.8</ele></trkpt><trkpt lat="48.743294" lon="17.705011"><time>2024-05-01T13:09:56.000Z</time><ele>246.8</ele></trkpt><trkpt lat="48.74323" lon="17.704996"><time>2024-05-01T13:09:57.000Z</time><ele>245.4</ele></trkpt><trkpt lat="48.743168" lon="17.704988"><time>2024-05-01T13:09:58.000Z</time><ele>244.2</ele></trkpt><trkpt lat="48.74303" lon="17.704956"><time>2024-05-01T13:10:00.000Z</time><ele>241.8</ele></trkpt><trkpt lat="48.742973" lon="17.704931"><time>2024-05-01T13:10:01.000Z</time><ele>240.8</ele></trkpt><trkpt lat="48.742912" lon="17.704914"><time>2024-05-01T13:10:02.000Z</time><ele>240</ele></trkpt><trkpt lat="48.742867" lon="17.704903"><time>2024-05-01T13:10:03.000Z</time><ele>239</ele></trkpt><trkpt lat="48.74282" lon="17.704905"><time>2024-05-01T13:10:04.000Z</time><ele>238</ele></trkpt><trkpt lat="48.742775" lon="17.704885"><time>2024-05-01T13:10:05.000Z</time><ele>237</ele></trkpt><trkpt lat="48.742737" lon="17.704863"><time>2024-05-01T13:10:06.000Z</time><ele>235.8</ele></trkpt><trkpt lat="48.742695" lon="17.704832"><time>2024-05-01T13:10:07.000Z</time><ele>234.4</ele></trkpt><trkpt lat="48.742672" lon="17.704794"><time>2024-05-01T13:10:08.000Z</time><ele>233.4</ele></trkpt><trkpt lat="48.742676" lon="17.704737"><time>2024-05-01T13:10:10.000Z</time><ele>232.6</ele></trkpt><trkpt lat="48.74272" lon="17.704716"><time>2024-05-01T13:10:12.000Z</time><ele>232</ele></trkpt><trkpt lat="48.742752" lon="17.704704"><time>2024-05-01T13:10:13.000Z</time><ele>231.8</ele></trkpt><trkpt lat="48.742783" lon="17.704693"><time>2024-05-01T13:10:14.000Z</time><ele>232</ele></trkpt><trkpt lat="48.74282" lon="17.704672"><time>2024-05-01T13:10:15.000Z</time><ele>232</ele></trkpt><trkpt lat="48.742855" lon="17.704647"><time>2024-05-01T13:10:16.000Z</time><ele>231.8</ele></trkpt><trkpt lat="48.742897" lon="17.704628"><time>2024-05-01T13:10:17.000Z</time><ele>231.8</ele></trkpt><trkpt lat="48.742935" lon="17.704603"><time>2024-05-01T13:10:18.000Z</time><ele>231.8</ele></trkpt><trkpt lat="48.742977" lon="17.704563"><time>2024-05-01T13:10:19.000Z</time><ele>231.8</ele></trkpt><trkpt lat="48.743015" lon="17.704542"><time>2024-05-01T13:10:20.000Z</time><ele>231.8</ele></trkpt><trkpt lat="48.74306" lon="17.704515"><time>2024-05-01T13:10:21.000Z</time><ele>232</ele></trkpt><trkpt lat="48.74311" lon="17.704512"><time>2024-05-01T13:10:22.000Z</time><ele>232</ele></trkpt><trkpt lat="48.743156" lon="17.704472"><time>2024-05-01T13:10:23.000Z</time><ele>232</ele></trkpt><trkpt lat="48.7432" lon="17.704445"><time>2024-05-01T13:10:24.000Z</time><ele>232</ele></trkpt><trkpt lat="48.743244" lon="17.704412"><time>2024-05-01T13:10:25.000Z</time><ele>232</ele></trkpt><trkpt lat="48.743294" lon="17.70438"><time>2024-05-01T13:10:26.000Z</time><ele>232</ele></trkpt><trkpt lat="48.743343" lon="17.70436"><time>2024-05-01T13:10:27.000Z</time><ele>231.8</ele></trkpt><trkpt lat="48.743393" lon="17.704327"><time>2024-05-01T13:10:28.000Z</time><ele>231.6</ele></trkpt><trkpt lat="48.74343" lon="17.704287"><time>2024-05-01T13:10:29.000Z</time><ele>231.4</ele></trkpt><trkpt lat="48.74348" lon="17.704256"><time>2024-05-01T13:10:30.000Z</time><ele>231.2</ele></trkpt><trkpt lat="48.74353" lon="17.704224"><time>2024-05-01T13:10:31.000Z</time><ele>231</ele></trkpt><trkpt lat="48.74358" lon="17.704203"><time>2024-05-01T13:10:32.000Z</time><ele>231</ele></trkpt><trkpt lat="48.74363" lon="17.70418"><time>2024-05-01T13:10:33.000Z</time><ele>231</ele></trkpt><trkpt lat="48.743675" lon="17.70415"><time>2024-05-01T13:10:34.000Z</time><ele>231</ele></trkpt><trkpt lat="48.74373" lon="17.704128"><time>2024-05-01T13:10:35.000Z</time><ele>231</ele></trkpt><trkpt lat="48.743774" lon="17.70411"><time>2024-05-01T13:10:36.000Z</time><ele>231</ele></trkpt><trkpt lat="48.743824" lon="17.704084"><time>2024-05-01T13:10:37.000Z</time><ele>231</ele></trkpt><trkpt lat="48.743877" lon="17.70406"><time>2024-05-01T13:10:38.000Z</time><ele>231</ele></trkpt><trkpt lat="48.743927" lon="17.704048"><time>2024-05-01T13:10:39.000Z</time><ele>231</ele></trkpt><trkpt lat="48.744144" lon="17.70398"><time>2024-05-01T13:10:42.000Z</time><ele>231.4</ele></trkpt><trkpt lat="48.7442" lon="17.703968"><time>2024-05-01T13:10:44.000Z</time><ele>231.6</ele></trkpt><trkpt lat="48.744255" lon="17.703957"><time>2024-05-01T13:10:45.000Z</time><ele>232</ele></trkpt><trkpt lat="48.74431" lon="17.70394"><time>2024-05-01T13:10:46.000Z</time><ele>232.4</ele></trkpt><trkpt lat="48.744366" lon="17.703924"><time>2024-05-01T13:10:47.000Z</time><ele>232.6</ele></trkpt><trkpt lat="48.744415" lon="17.70391"><time>2024-05-01T13:10:48.000Z</time><ele>232.8</ele></trkpt><trkpt lat="48.74447" lon="17.703892"><time>2024-05-01T13:10:49.000Z</time><ele>233</ele></trkpt><trkpt lat="48.744514" lon="17.703875"><time>2024-05-01T13:10:50.000Z</time><ele>233</ele></trkpt><trkpt lat="48.744568" lon="17.703846"><time>2024-05-01T13:10:51.000Z</time><ele>233.2</ele></trkpt><trkpt lat="48.74462" lon="17.703823"><time>2024-05-01T13:10:52.000Z</time><ele>233.2</ele></trkpt><trkpt lat="48.744675" lon="17.703793"><time>2024-05-01T13:10:53.000Z</time><ele>233</ele></trkpt><trkpt lat="48.744736" lon="17.70376"><time>2024-05-01T13:10:54.000Z</time><ele>233</ele></trkpt><trkpt lat="48.744793" lon="17.70372"><time>2024-05-01T13:10:55.000Z</time><ele>232.8</ele></trkpt><trkpt lat="48.744843" lon="17.703682"><time>2024-05-01T13:10:56.000Z</time><ele>232.4</ele></trkpt><trkpt lat="48.744896" lon="17.703644"><time>2024-05-01T13:10:57.000Z</time><ele>232.2</ele></trkpt><trkpt lat="48.744946" lon="17.703594"><time>2024-05-01T13:10:58.000Z</time><ele>232.2</ele></trkpt><trkpt lat="48.745" lon="17.703571"><time>2024-05-01T13:10:59.000Z</time><ele>232</ele></trkpt><trkpt lat="48.74505" lon="17.703545"><time>2024-05-01T13:11:00.000Z</time><ele>232</ele></trkpt><trkpt lat="48.745094" lon="17.70352"><time>2024-05-01T13:11:01.000Z</time><ele>232</ele></trkpt><trkpt lat="48.745144" lon="17.703491"><time>2024-05-01T13:11:02.000Z</time><ele>232</ele></trkpt><trkpt lat="48.7452" lon="17.703474"><time>2024-05-01T13:11:03.000Z</time><ele>232</ele></trkpt><trkpt lat="48.745247" lon="17.703451"><time>2024-05-01T13:11:04.000Z</time><ele>232.2</ele></trkpt><trkpt lat="48.745296" lon="17.703428"><time>2024-05-01T13:11:05.000Z</time><ele>232.4</ele></trkpt><trkpt lat="48.745342" lon="17.7034"><time>2024-05-01T13:11:06.000Z</time><ele>232.6</ele></trkpt><trkpt lat="48.74539" lon="17.703365"><time>2024-05-01T13:11:07.000Z</time><ele>232.8</ele></trkpt><trkpt lat="48.74544" lon="17.703339"><time>2024-05-01T13:11:08.000Z</time><ele>233.2</ele></trkpt><trkpt lat="48.745483" lon="17.7033"><time>2024-05-01T13:11:09.000Z</time><ele>233.2</ele></trkpt><trkpt lat="48.74569" lon="17.703129"><time>2024-05-01T13:11:12.000Z</time><ele>233</ele></trkpt><trkpt lat="48.745735" lon="17.70308"><time>2024-05-01T13:11:14.000Z</time><ele>232.8</ele></trkpt><trkpt lat="48.745785" lon="17.703028"><time>2024-05-01T13:11:15.000Z</time><ele>232.6</ele></trkpt><trkpt lat="48.745823" lon="17.702978"><time>2024-05-01T13:11:16.000Z</time><ele>232.4</ele></trkpt><trkpt lat="48.74587" lon="17.702932"><time>2024-05-01T13:11:17.000Z</time><ele>232.2</ele></trkpt><trkpt lat="48.74591" lon="17.702875"><time>2024-05-01T13:11:18.000Z</time><ele>232</ele></trkpt><trkpt lat="48.745953" lon="17.70282"><time>2024-05-01T13:11:19.000Z</time><ele>231.8</ele></trkpt><trkpt lat="48.745995" lon="17.70276"><time>2024-05-01T13:11:20.000Z</time><ele>231.6</ele></trkpt><trkpt lat="48.746044" lon="17.70271"><time>2024-05-01T13:11:21.000Z</time><ele>231.6</ele></trkpt><trkpt lat="48.746086" lon="17.702658"><time>2024-05-01T13:11:22.000Z</time><ele>231.6</ele></trkpt><trkpt lat="48.74613" lon="17.702604"><time>2024-05-01T13:11:23.000Z</time><ele>231.6</ele></trkpt><trkpt lat="48.746178" lon="17.702559"><time>2024-05-01T13:11:24.000Z</time><ele>231.8</ele></trkpt><trkpt lat="48.746216" lon="17.702503"><time>2024-05-01T13:11:25.000Z</time><ele>232</ele></trkpt><trkpt lat="48.74626" lon="17.702454"><time>2024-05-01T13:11:26.000Z</time><ele>232</ele></trkpt><trkpt lat="48.746304" lon="17.702402"><time>2024-05-01T13:11:27.000Z</time><ele>232</ele></trkpt><trkpt lat="48.746357" lon="17.702364"><time>2024-05-01T13:11:28.000Z</time><ele>232</ele></trkpt><trkpt lat="48.746395" lon="17.702314"><time>2024-05-01T13:11:29.000Z</time><ele>231.8</ele></trkpt><trkpt lat="48.74645" lon="17.702269"><time>2024-05-01T13:11:30.000Z</time><ele>231.6</ele></trkpt><trkpt lat="48.746487" lon="17.702211"><time>2024-05-01T13:11:31.000Z</time><ele>231.4</ele></trkpt><trkpt lat="48.746532" lon="17.702171"><time>2024-05-01T13:11:32.000Z</time><ele>231.2</ele></trkpt><trkpt lat="48.74657" lon="17.702124"><time>2024-05-01T13:11:33.000Z</time><ele>231</ele></trkpt><trkpt lat="48.74662" lon="17.702074"><time>2024-05-01T13:11:34.000Z</time><ele>231</ele></trkpt><trkpt lat="48.746662" lon="17.702024"><time>2024-05-01T13:11:35.000Z</time><ele>231</ele></trkpt><trkpt lat="48.74671" lon="17.701967"><time>2024-05-01T13:11:36.000Z</time><ele>231</ele></trkpt><trkpt lat="48.74676" lon="17.70192"><time>2024-05-01T13:11:37.000Z</time><ele>231.2</ele></trkpt><trkpt lat="48.7468" lon="17.70187"><time>2024-05-01T13:11:38.000Z</time><ele>231.2</ele></trkpt><trkpt lat="48.74684" lon="17.70182"><time>2024-05-01T13:11:39.000Z</time><ele>231.2</ele></trkpt><trkpt lat="48.746883" lon="17.701773"><time>2024-05-01T13:11:40.000Z</time><ele>231.2</ele></trkpt><trkpt lat="48.74693" lon="17.701729"><time>2024-05-01T13:11:41.000Z</time><ele>231</ele></trkpt><trkpt lat="48.746967" lon="17.70168"><time>2024-05-01T13:11:42.000Z</time><ele>230.6</ele></trkpt><trkpt lat="48.747017" lon="17.701645"><time>2024-05-01T13:11:43.000Z</time><ele>230.6</ele></trkpt><trkpt lat="48.747055" lon="17.701603"><time>2024-05-01T13:11:44.000Z</time><ele>230.6</ele></trkpt><trkpt lat="48.747093" lon="17.70156"><time>2024-05-01T13:11:45.000Z</time><ele>230.6</ele></trkpt><trkpt lat="48.747143" lon="17.701529"><time>2024-05-01T13:11:46.000Z</time><ele>230.8</ele></trkpt><trkpt lat="48.74719" lon="17.701487"><time>2024-05-01T13:11:47.000Z</time><ele>231</ele></trkpt><trkpt lat="48.74724" lon="17.701448"><time>2024-05-01T13:11:48.000Z</time><ele>230.8</ele></trkpt><trkpt lat="48.747295" lon="17.701412"><time>2024-05-01T13:11:49.000Z</time><ele>230.6</ele></trkpt><trkpt lat="48.74735" lon="17.70138"><time>2024-05-01T13:11:50.000Z</time><ele>230.4</ele></trkpt><trkpt lat="48.7474" lon="17.701351"><time>2024-05-01T13:11:51.000Z</time><ele>230.2</ele></trkpt><trkpt lat="48.74745" lon="17.701328"><time>2024-05-01T13:11:52.000Z</time><ele>230</ele></trkpt><trkpt lat="48.7475" lon="17.701292"><time>2024-05-01T13:11:53.000Z</time><ele>230</ele></trkpt><trkpt lat="48.747547" lon="17.701265"><time>2024-05-01T13:11:54.000Z</time><ele>230.2</ele></trkpt><trkpt lat="48.7476" lon="17.70124"><time>2024-05-01T13:11:55.000Z</time><ele>230.2</ele></trkpt><trkpt lat="48.747646" lon="17.701223"><time>2024-05-01T13:11:56.000Z</time><ele>230.2</ele></trkpt><trkpt lat="48.747696" lon="17.701227"><time>2024-05-01T13:11:57.000Z</time><ele>230.2</ele></trkpt><trkpt lat="48.747738" lon="17.701244"><time>2024-05-01T13:11:58.000Z</time><ele>230.4</ele></trkpt><trkpt lat="48.747772" lon="17.701267"><time>2024-05-01T13:11:59.000Z</time><ele>230.6</ele></trkpt><trkpt lat="48.7478" lon="17.701284"><time>2024-05-01T13:12:00.000Z</time><ele>231</ele></trkpt><trkpt lat="48.747837" lon="17.701294"><time>2024-05-01T13:12:01.000Z</time><ele>231.6</ele></trkpt><trkpt lat="48.747875" lon="17.701292"><time>2024-05-01T13:12:02.000Z</time><ele>232</ele></trkpt><trkpt lat="48.747925" lon="17.701271"><time>2024-05-01T13:12:03.000Z</time><ele>232.2</ele></trkpt><trkpt lat="48.747967" lon="17.701256"><time>2024-05-01T13:12:04.000Z</time><ele>232</ele></trkpt><trkpt lat="48.748016" lon="17.701233"><time>2024-05-01T13:12:05.000Z</time><ele>232</ele></trkpt><trkpt lat="48.74806" lon="17.701212"><time>2024-05-01T13:12:06.000Z</time><ele>231.8</ele></trkpt><trkpt lat="48.74811" lon="17.701187"><time>2024-05-01T13:12:07.000Z</time><ele>232</ele></trkpt><trkpt lat="48.748158" lon="17.701164"><time>2024-05-01T13:12:08.000Z</time><ele>232.2</ele></trkpt><trkpt lat="48.748207" lon="17.701143"><time>2024-05-01T13:12:09.000Z</time><ele>232.4</ele></trkpt><trkpt lat="48.74826" lon="17.701124"><time>2024-05-01T13:12:10.000Z</time><ele>232.6</ele></trkpt><trkpt lat="48.748302" lon="17.701113"><time>2024-05-01T13:12:11.000Z</time><ele>232.8</ele></trkpt><trkpt lat="48.74835" lon="17.701092"><time>2024-05-01T13:12:12.000Z</time><ele>232.8</ele></trkpt><trkpt lat="48.74839" lon="17.701077"><time>2024-05-01T13:12:13.000Z</time><ele>233</ele></trkpt><trkpt lat="48.74843" lon="17.701057"><time>2024-05-01T13:12:14.000Z</time><ele>233.4</ele></trkpt><trkpt lat="48.748466" lon="17.701036"><time>2024-05-01T13:12:15.000Z</time><ele>233.8</ele></trkpt><trkpt lat="48.74851" lon="17.701014"><time>2024-05-01T13:12:16.000Z</time><ele>234.2</ele></trkpt><trkpt lat="48.748543" lon="17.701008"><time>2024-05-01T13:12:17.000Z</time><ele>234.6</ele></trkpt><trkpt lat="48.748577" lon="17.700983"><time>2024-05-01T13:12:18.000Z</time><ele>234.8</ele></trkpt><trkpt lat="48.748608" lon="17.70096"><time>2024-05-01T13:12:19.000Z</time><ele>234.6</ele></trkpt><trkpt lat="48.74864" lon="17.700949"><time>2024-05-01T13:12:20.000Z</time><ele>234.2</ele></trkpt><trkpt lat="48.748672" lon="17.700932"><time>2024-05-01T13:12:21.000Z</time><ele>234</ele></trkpt><trkpt lat="48.748707" lon="17.700916"><time>2024-05-01T13:12:22.000Z</time><ele>233.8</ele></trkpt><trkpt lat="48.748745" lon="17.700897"><time>2024-05-01T13:12:23.000Z</time><ele>233.4</ele></trkpt><trkpt lat="48.748783" lon="17.70088"><time>2024-05-01T13:12:24.000Z</time><ele>233.4</ele></trkpt><trkpt lat="48.748825" lon="17.700865"><time>2024-05-01T13:12:25.000Z</time><ele>233.4</ele></trkpt><trkpt lat="48.74886" lon="17.70085"><time>2024-05-01T13:12:26.000Z</time><ele>233.6</ele></trkpt><trkpt lat="48.7489" lon="17.700834"><time>2024-05-01T13:12:27.000Z</time><ele>233.6</ele></trkpt><trkpt lat="48.748936" lon="17.700825"><time>2024-05-01T13:12:28.000Z</time><ele>234</ele></trkpt><trkpt lat="48.748974" lon="17.700804"><time>2024-05-01T13:12:29.000Z</time><ele>234.2</ele></trkpt><trkpt lat="48.74901" lon="17.700788"><time>2024-05-01T13:12:30.000Z</time><ele>234.6</ele></trkpt><trkpt lat="48.749043" lon="17.700775"><time>2024-05-01T13:12:31.000Z</time><ele>234.6</ele></trkpt><trkpt lat="48.74908" lon="17.700768"><time>2024-05-01T13:12:32.000Z</time><ele>234.8</ele></trkpt><trkpt lat="48.749474" lon="17.70074"><time>2024-05-01T13:12:41.000Z</time><ele>234.6</ele></trkpt><trkpt lat="48.749504" lon="17.700748"><time>2024-05-01T13:12:42.000Z</time><ele>235</ele></trkpt><trkpt lat="48.749535" lon="17.700768"><time>2024-05-01T13:12:43.000Z</time><ele>235.6</ele></trkpt><trkpt lat="48.74957" lon="17.700787"><time>2024-05-01T13:12:44.000Z</time><ele>236.2</ele></trkpt><trkpt lat="48.7496" lon="17.700808"><time>2024-05-01T13:12:45.000Z</time><ele>236.8</ele></trkpt><trkpt lat="48.74962" lon="17.700834"><time>2024-05-01T13:12:46.000Z</time><ele>237.4</ele></trkpt><trkpt lat="48.749653" lon="17.700893"><time>2024-05-01T13:12:48.000Z</time><ele>237.8</ele></trkpt><trkpt lat="48.749683" lon="17.70094"><time>2024-05-01T13:12:50.000Z</time><ele>238.2</ele></trkpt><trkpt lat="48.74972" lon="17.700983"><time>2024-05-01T13:12:52.000Z</time><ele>238.2</ele></trkpt><trkpt lat="48.74974" lon="17.701033"><time>2024-05-01T13:12:54.000Z</time><ele>238</ele></trkpt><trkpt lat="48.749767" lon="17.701077"><time>2024-05-01T13:12:56.000Z</time><ele>238</ele></trkpt><trkpt lat="48.74981" lon="17.701113"><time>2024-05-01T13:12:58.000Z</time><ele>238.4</ele></trkpt><trkpt lat="48.74984" lon="17.701153"><time>2024-05-01T13:13:00.000Z</time><ele>238.8</ele></trkpt><trkpt lat="48.74987" lon="17.701187"><time>2024-05-01T13:13:02.000Z</time><ele>239.6</ele></trkpt><trkpt lat="48.749912" lon="17.701227"><time>2024-05-01T13:13:04.000Z</time><ele>240.8</ele></trkpt><trkpt lat="48.74995" lon="17.70127"><time>2024-05-01T13:13:06.000Z</time><ele>241.6</ele></trkpt><trkpt lat="48.749977" lon="17.701324"><time>2024-05-01T13:13:08.000Z</time><ele>241.6</ele></trkpt><trkpt lat="48.749996" lon="17.70137"><time>2024-05-01T13:13:10.000Z</time><ele>241.4</ele></trkpt><trkpt lat="48.75003" lon="17.701416"><time>2024-05-01T13:13:12.000Z</time><ele>241.2</ele></trkpt><trkpt lat="48.75007" lon="17.70146"><time>2024-05-01T13:13:14.000Z</time><ele>240.8</ele></trkpt><trkpt lat="48.75009" lon="17.701485"><time>2024-05-01T13:13:15.000Z</time><ele>240.6</ele></trkpt><trkpt lat="48.750137" lon="17.70152"><time>2024-05-01T13:13:17.000Z</time><ele>240.6</ele></trkpt><trkpt lat="48.75018" lon="17.701563"><time>2024-05-01T13:13:19.000Z</time><ele>240.8</ele></trkpt><trkpt lat="48.75021" lon="17.70158"><time>2024-05-01T13:13:20.000Z</time><ele>240.8</ele></trkpt><trkpt lat="48.750256" lon="17.701616"><time>2024-05-01T13:13:22.000Z</time><ele>240.8</ele></trkpt><trkpt lat="48.75032" lon="17.701712"><time>2024-05-01T13:13:25.000Z</time><ele>241</ele></trkpt><trkpt lat="48.75039" lon="17.701824"><time>2024-05-01T13:13:28.000Z</time><ele>241.4</ele></trkpt><trkpt lat="48.750423" lon="17.701836"><time>2024-05-01T13:13:30.000Z</time><ele>241.8</ele></trkpt><trkpt lat="48.750458" lon="17.70186"><time>2024-05-01T13:13:32.000Z</time><ele>242.2</ele></trkpt><trkpt lat="48.750484" lon="17.701885"><time>2024-05-01T13:13:34.000Z</time><ele>242.6</ele></trkpt><trkpt lat="48.750565" lon="17.701942"><time>2024-05-01T13:13:37.000Z</time><ele>243.8</ele></trkpt><trkpt lat="48.750626" lon="17.701975"><time>2024-05-01T13:13:39.000Z</time><ele>244.4</ele></trkpt><trkpt lat="48.750713" lon="17.701996"><time>2024-05-01T13:13:43.000Z</time><ele>245.8</ele></trkpt><trkpt lat="48.750744" lon="17.701992"><time>2024-05-01T13:13:46.000Z</time><ele>246.6</ele></trkpt><trkpt lat="48.75079" lon="17.702011"><time>2024-05-01T13:13:49.000Z</time><ele>247.4</ele></trkpt><trkpt lat="48.75083" lon="17.70204"><time>2024-05-01T13:13:51.000Z</time><ele>247.8</ele></trkpt><trkpt lat="48.750862" lon="17.702065"><time>2024-05-01T13:13:53.000Z</time><ele>248</ele></trkpt><trkpt lat="48.750896" lon="17.702087"><time>2024-05-01T13:13:55.000Z</time><ele>248</ele></trkpt><trkpt lat="48.750927" lon="17.702116"><time>2024-05-01T13:13:57.000Z</time><ele>248.2</ele></trkpt><trkpt lat="48.751007" lon="17.70216"><time>2024-05-01T13:14:00.000Z</time><ele>249.2</ele></trkpt><trkpt lat="48.751125" lon="17.702196"><time>2024-05-01T13:14:05.000Z</time><ele>250.4</ele></trkpt><trkpt lat="48.751137" lon="17.702208"><time>2024-05-01T13:14:06.000Z</time><ele>250.4</ele></trkpt><trkpt lat="48.751152" lon="17.702225"><time>2024-05-01T13:14:07.000Z</time><ele>250.6</ele></trkpt><trkpt lat="48.751183" lon="17.702265"><time>2024-05-01T13:14:09.000Z</time><ele>249.8</ele></trkpt><trkpt lat="48.751217" lon="17.70228"><time>2024-05-01T13:14:12.000Z</time><ele>249.6</ele></trkpt><trkpt lat="48.751255" lon="17.702291"><time>2024-05-01T13:14:14.000Z</time><ele>249.6</ele></trkpt><trkpt lat="48.75128" lon="17.70232"><time>2024-05-01T13:14:16.000Z</time><ele>249.8</ele></trkpt><trkpt lat="48.751324" lon="17.702341"><time>2024-05-01T13:14:18.000Z</time><ele>249.6</ele></trkpt><trkpt lat="48.75137" lon="17.702366"><time>2024-05-01T13:14:20.000Z</time><ele>250.2</ele></trkpt><trkpt lat="48.751404" lon="17.702394"><time>2024-05-01T13:14:22.000Z</time><ele>251</ele></trkpt><trkpt lat="48.75143" lon="17.702412"><time>2024-05-01T13:14:23.000Z</time><ele>251.6</ele></trkpt><trkpt lat="48.751472" lon="17.702427"><time>2024-05-01T13:14:25.000Z</time><ele>252.4</ele></trkpt><trkpt lat="48.751534" lon="17.702456"><time>2024-05-01T13:14:28.000Z</time><ele>254.6</ele></trkpt><trkpt lat="48.75156" lon="17.702463"><time>2024-05-01T13:14:31.000Z</time><ele>255.2</ele></trkpt><trkpt lat="48.751583" lon="17.7025"><time>2024-05-01T13:14:33.000Z</time><ele>255.8</ele></trkpt><trkpt lat="48.751614" lon="17.702524"><time>2024-05-01T13:14:35.000Z</time><ele>256.2</ele></trkpt><trkpt lat="48.75165" lon="17.702547"><time>2024-05-01T13:14:37.000Z</time><ele>256.6</ele></trkpt><trkpt lat="48.751816" lon="17.702612"><time>2024-05-01T13:14:46.000Z</time><ele>262.6</ele></trkpt><trkpt lat="48.751953" lon="17.70264"><time>2024-05-01T13:14:49.000Z</time><ele>263.4</ele></trkpt><trkpt lat="48.75199" lon="17.702648"><time>2024-05-01T13:14:51.000Z</time><ele>263.4</ele></trkpt><trkpt lat="48.752026" lon="17.702644"><time>2024-05-01T13:14:53.000Z</time><ele>263.2</ele></trkpt><trkpt lat="48.75207" lon="17.70263"><time>2024-05-01T13:14:54.000Z</time><ele>263.2</ele></trkpt><trkpt lat="48.752113" lon="17.70262"><time>2024-05-01T13:14:55.000Z</time><ele>263.2</ele></trkpt><trkpt lat="48.752148" lon="17.702602"><time>2024-05-01T13:14:56.000Z</time><ele>263.2</ele></trkpt><trkpt lat="48.75224" lon="17.70261"><time>2024-05-01T13:14:58.000Z</time><ele>262.4</ele></trkpt><trkpt lat="48.75228" lon="17.702623"><time>2024-05-01T13:15:00.000Z</time><ele>262.2</ele></trkpt><trkpt lat="48.75237" lon="17.702652"><time>2024-05-01T13:15:02.000Z</time><ele>261.8</ele></trkpt><trkpt lat="48.752396" lon="17.702662"><time>2024-05-01T13:15:03.000Z</time><ele>261.8</ele></trkpt><trkpt lat="48.75256" lon="17.702724"><time>2024-05-01T13:15:07.000Z</time><ele>262.4</ele></trkpt><trkpt lat="48.752636" lon="17.702747"><time>2024-05-01T13:15:09.000Z</time><ele>262.2</ele></trkpt><trkpt lat="48.752666" lon="17.702757"><time>2024-05-01T13:15:11.000Z</time><ele>262.2</ele></trkpt><trkpt lat="48.752712" lon="17.70278"><time>2024-05-01T13:15:13.000Z</time><ele>262</ele></trkpt><trkpt lat="48.75277" lon="17.7028"><time>2024-05-01T13:15:15.000Z</time><ele>262.2</ele></trkpt><trkpt lat="48.75281" lon="17.702805"><time>2024-05-01T13:15:18.000Z</time><ele>262.6</ele></trkpt><trkpt lat="48.75285" lon="17.7028"><time>2024-05-01T13:15:20.000Z</time><ele>263.2</ele></trkpt><trkpt lat="48.75288" lon="17.702791"><time>2024-05-01T13:15:22.000Z</time><ele>264</ele></trkpt><trkpt lat="48.752937" lon="17.70279"><time>2024-05-01T13:15:24.000Z</time><ele>264.6</ele></trkpt><trkpt lat="48.752983" lon="17.702784"><time>2024-05-01T13:15:26.000Z</time><ele>265.8</ele></trkpt><trkpt lat="48.75302" lon="17.702776"><time>2024-05-01T13:15:28.000Z</time><ele>266.8</ele></trkpt><trkpt lat="48.75305" lon="17.702778"><time>2024-05-01T13:15:30.000Z</time><ele>267.8</ele></trkpt><trkpt lat="48.753098" lon="17.702787"><time>2024-05-01T13:15:33.000Z</time><ele>268.4</ele></trkpt><trkpt lat="48.75312" lon="17.702797"><time>2024-05-01T13:15:34.000Z</time><ele>269</ele></trkpt><trkpt lat="48.753143" lon="17.702806"><time>2024-05-01T13:15:35.000Z</time><ele>268.8</ele></trkpt><trkpt lat="48.75319" lon="17.702822"><time>2024-05-01T13:15:37.000Z</time><ele>268.6</ele></trkpt><trkpt lat="48.753223" lon="17.702835"><time>2024-05-01T13:15:38.000Z</time><ele>268.4</ele></trkpt><trkpt lat="48.753273" lon="17.70284"><time>2024-05-01T13:15:40.000Z</time><ele>268.6</ele></trkpt><trkpt lat="48.7533" lon="17.702831"><time>2024-05-01T13:15:41.000Z</time><ele>269.4</ele></trkpt><trkpt lat="48.75342" lon="17.70269"><time>2024-05-01T13:15:46.000Z</time><ele>270.8</ele></trkpt><trkpt lat="48.75345" lon="17.702671"><time>2024-05-01T13:15:48.000Z</time><ele>270.6</ele></trkpt><trkpt lat="48.75348" lon="17.702667"><time>2024-05-01T13:15:49.000Z</time><ele>270.8</ele></trkpt><trkpt lat="48.753536" lon="17.70264"><time>2024-05-01T13:15:51.000Z</time><ele>271.4</ele></trkpt><trkpt lat="48.75356" lon="17.702637"><time>2024-05-01T13:15:53.000Z</time><ele>271.8</ele></trkpt><trkpt lat="48.753826" lon="17.702156"><time>2024-05-01T13:16:03.000Z</time><ele>269.6</ele></trkpt><trkpt lat="48.75384" lon="17.7021"><time>2024-05-01T13:16:04.000Z</time><ele>269</ele></trkpt><trkpt lat="48.753845" lon="17.70204"><time>2024-05-01T13:16:05.000Z</time><ele>268.6</ele></trkpt><trkpt lat="48.75386" lon="17.702003"><time>2024-05-01T13:16:06.000Z</time><ele>267.8</ele></trkpt><trkpt lat="48.75388" lon="17.70197"><time>2024-05-01T13:16:07.000Z</time><ele>266.8</ele></trkpt><trkpt lat="48.753902" lon="17.701944"><time>2024-05-01T13:16:09.000Z</time><ele>265.8</ele></trkpt><trkpt lat="48.75395" lon="17.701923"><time>2024-05-01T13:16:14.000Z</time><ele>264.2</ele></trkpt><trkpt lat="48.75397" lon="17.701893"><time>2024-05-01T13:16:15.000Z</time><ele>262.6</ele></trkpt><trkpt lat="48.75416" lon="17.701462"><time>2024-05-01T13:16:21.000Z</time><ele>256.6</ele></trkpt><trkpt lat="48.754196" lon="17.701418"><time>2024-05-01T13:16:22.000Z</time><ele>255.8</ele></trkpt><trkpt lat="48.754208" lon="17.701382"><time>2024-05-01T13:16:23.000Z</time><ele>255.4</ele></trkpt><trkpt lat="48.754227" lon="17.70135"><time>2024-05-01T13:16:24.000Z</time><ele>255.2</ele></trkpt><trkpt lat="48.754337" lon="17.701294"><time>2024-05-01T13:16:26.000Z</time><ele>255</ele></trkpt><trkpt lat="48.754387" lon="17.701242"><time>2024-05-01T13:16:28.000Z</time><ele>254</ele></trkpt><trkpt lat="48.754417" lon="17.701216"><time>2024-05-01T13:16:30.000Z</time><ele>253.4</ele></trkpt><trkpt lat="48.75446" lon="17.70119"><time>2024-05-01T13:16:32.000Z</time><ele>252.8</ele></trkpt><trkpt lat="48.754498" lon="17.701159"><time>2024-05-01T13:16:33.000Z</time><ele>252.8</ele></trkpt><trkpt lat="48.754528" lon="17.70112"><time>2024-05-01T13:16:34.000Z</time><ele>252.8</ele></trkpt><trkpt lat="48.754555" lon="17.701092"><time>2024-05-01T13:16:35.000Z</time><ele>253</ele></trkpt><trkpt lat="48.75466" lon="17.700974"><time>2024-05-01T13:16:37.000Z</time><ele>253.6</ele></trkpt><trkpt lat="48.75469" lon="17.700914"><time>2024-05-01T13:16:38.000Z</time><ele>253.6</ele></trkpt><trkpt lat="48.754826" lon="17.700584"><time>2024-05-01T13:16:42.000Z</time><ele>250.8</ele></trkpt><trkpt lat="48.75487" lon="17.700544"><time>2024-05-01T13:16:43.000Z</time><ele>249.2</ele></trkpt><trkpt lat="48.754997" lon="17.700506"><time>2024-05-01T13:16:45.000Z</time><ele>245.8</ele></trkpt><trkpt lat="48.755035" lon="17.70051"><time>2024-05-01T13:16:47.000Z</time><ele>245.4</ele></trkpt><trkpt lat="48.75508" lon="17.700518"><time>2024-05-01T13:16:48.000Z</time><ele>244.8</ele></trkpt><trkpt lat="48.755116" lon="17.70051"><time>2024-05-01T13:16:49.000Z</time><ele>244.2</ele></trkpt><trkpt lat="48.75515" lon="17.700508"><time>2024-05-01T13:16:50.000Z</time><ele>243.4</ele></trkpt><trkpt lat="48.755207" lon="17.7005"><time>2024-05-01T13:16:51.000Z</time><ele>242.6</ele></trkpt><trkpt lat="48.75527" lon="17.70048"><time>2024-05-01T13:16:53.000Z</time><ele>241.8</ele></trkpt><trkpt lat="48.7553" lon="17.700464"><time>2024-05-01T13:16:54.000Z</time><ele>241.8</ele></trkpt><trkpt lat="48.755333" lon="17.700457"><time>2024-05-01T13:16:55.000Z</time><ele>241.6</ele></trkpt><trkpt lat="48.755367" lon="17.700443"><time>2024-05-01T13:16:56.000Z</time><ele>241.8</ele></trkpt><trkpt lat="48.75541" lon="17.700424"><time>2024-05-01T13:16:57.000Z</time><ele>241.6</ele></trkpt><trkpt lat="48.755432" lon="17.700405"><time>2024-05-01T13:16:58.000Z</time><ele>241.6</ele></trkpt><trkpt lat="48.755455" lon="17.700384"><time>2024-05-01T13:16:59.000Z</time><ele>241</ele></trkpt><trkpt lat="48.755493" lon="17.700352"><time>2024-05-01T13:17:00.000Z</time><ele>241</ele></trkpt><trkpt lat="48.755527" lon="17.700315"><time>2024-05-01T13:17:01.000Z</time><ele>240.8</ele></trkpt><trkpt lat="48.755554" lon="17.700283"><time>2024-05-01T13:17:02.000Z</time><ele>240.8</ele></trkpt><trkpt lat="48.755726" lon="17.70014"><time>2024-05-01T13:17:05.000Z</time><ele>241.2</ele></trkpt><trkpt lat="48.755955" lon="17.699928"><time>2024-05-01T13:17:10.000Z</time><ele>239.6</ele></trkpt><trkpt lat="48.75611" lon="17.69982"><time>2024-05-01T13:17:13.000Z</time><ele>239</ele></trkpt><trkpt lat="48.75616" lon="17.699768"><time>2024-05-01T13:17:15.000Z</time><ele>239</ele></trkpt><trkpt lat="48.756203" lon="17.69972"><time>2024-05-01T13:17:16.000Z</time><ele>239</ele></trkpt><trkpt lat="48.75625" lon="17.699673"><time>2024-05-01T13:17:17.000Z</time><ele>239</ele></trkpt><trkpt lat="48.756287" lon="17.699629"><time>2024-05-01T13:17:18.000Z</time><ele>239</ele></trkpt><trkpt lat="48.75632" lon="17.699572"><time>2024-05-01T13:17:19.000Z</time><ele>239</ele></trkpt><trkpt lat="48.75636" lon="17.699524"><time>2024-05-01T13:17:20.000Z</time><ele>239</ele></trkpt><trkpt lat="48.756405" lon="17.699497"><time>2024-05-01T13:17:21.000Z</time><ele>239</ele></trkpt><trkpt lat="48.75644" lon="17.699476"><time>2024-05-01T13:17:22.000Z</time><ele>239.2</ele></trkpt><trkpt lat="48.756477" lon="17.699453"><time>2024-05-01T13:17:23.000Z</time><ele>239.4</ele></trkpt><trkpt lat="48.75651" lon="17.69942"><time>2024-05-01T13:17:24.000Z</time><ele>239.8</ele></trkpt><trkpt lat="48.75654" lon="17.699396"><time>2024-05-01T13:17:25.000Z</time><ele>240.2</ele></trkpt><trkpt lat="48.75657" lon="17.699375"><time>2024-05-01T13:17:26.000Z</time><ele>240.6</ele></trkpt><trkpt lat="48.7566" lon="17.69936"><time>2024-05-01T13:17:27.000Z</time><ele>241</ele></trkpt><trkpt lat="48.756622" lon="17.699348"><time>2024-05-01T13:17:28.000Z</time><ele>241.4</ele></trkpt><trkpt lat="48.75667" lon="17.699331"><time>2024-05-01T13:17:30.000Z</time><ele>241.8</ele></trkpt><trkpt lat="48.756714" lon="17.69932"><time>2024-05-01T13:17:32.000Z</time><ele>242.2</ele></trkpt><trkpt lat="48.756756" lon="17.699312"><time>2024-05-01T13:17:34.000Z</time><ele>242.8</ele></trkpt><trkpt lat="48.756805" lon="17.699308"><time>2024-05-01T13:17:36.000Z</time><ele>243</ele></trkpt><trkpt lat="48.75685" lon="17.699305"><time>2024-05-01T13:17:38.000Z</time><ele>243.2</ele></trkpt><trkpt lat="48.756893" lon="17.699299"><time>2024-05-01T13:17:40.000Z</time><ele>243.4</ele></trkpt><trkpt lat="48.756935" lon="17.699287"><time>2024-05-01T13:17:42.000Z</time><ele>243.4</ele></trkpt><trkpt lat="48.756966" lon="17.699291"><time>2024-05-01T13:17:44.000Z</time><ele>243.4</ele></trkpt><trkpt lat="48.756996" lon="17.699291"><time>2024-05-01T13:17:46.000Z</time><ele>243.8</ele></trkpt><trkpt lat="48.75703" lon="17.699297"><time>2024-05-01T13:17:48.000Z</time><ele>244.6</ele></trkpt><trkpt lat="48.75706" lon="17.699297"><time>2024-05-01T13:17:50.000Z</time><ele>245.4</ele></trkpt><trkpt lat="48.757095" lon="17.6993"><time>2024-05-01T13:17:52.000Z</time><ele>246.4</ele></trkpt><trkpt lat="48.757137" lon="17.699305"><time>2024-05-01T13:17:54.000Z</time><ele>247.2</ele></trkpt><trkpt lat="48.757183" lon="17.6993"><time>2024-05-01T13:17:56.000Z</time><ele>247.8</ele></trkpt><trkpt lat="48.75723" lon="17.699291"><time>2024-05-01T13:17:58.000Z</time><ele>248</ele></trkpt><trkpt lat="48.757256" lon="17.699276"><time>2024-05-01T13:18:00.000Z</time><ele>247.8</ele></trkpt><trkpt lat="48.757298" lon="17.699257"><time>2024-05-01T13:18:02.000Z</time><ele>247.8</ele></trkpt><trkpt lat="48.75733" lon="17.699234"><time>2024-05-01T13:18:04.000Z</time><ele>247.8</ele></trkpt><trkpt lat="48.757366" lon="17.699234"><time>2024-05-01T13:18:06.000Z</time><ele>247.6</ele></trkpt><trkpt lat="48.75741" lon="17.699228"><time>2024-05-01T13:18:08.000Z</time><ele>247.6</ele></trkpt><trkpt lat="48.757416" lon="17.699232"><time>2024-05-01T13:18:09.000Z</time><ele>247.8</ele></trkpt><trkpt lat="48.757435" lon="17.699224"><time>2024-05-01T13:19:33.000Z</time><ele>247.8</ele></trkpt><trkpt lat="48.757446" lon="17.699217"><time>2024-05-01T13:19:56.000Z</time><ele>248.6</ele></trkpt><trkpt lat="48.75743" lon="17.69922"><time>2024-05-01T13:19:58.000Z</time><ele>247.8</ele></trkpt><trkpt lat="48.75744" lon="17.69922"><time>2024-05-01T13:20:18.000Z</time><ele>247.2</ele></trkpt><trkpt lat="48.757446" lon="17.699232"><time>2024-05-01T13:20:20.000Z</time><ele>247</ele></trkpt><trkpt lat="48.757446" lon="17.69923"><time>2024-05-01T13:20:29.000Z</time><ele>247.2</ele></trkpt><trkpt lat="48.757446" lon="17.699226"><time>2024-05-01T13:20:30.000Z</time><ele>247.6</ele></trkpt><trkpt lat="48.75744" lon="17.699219"><time>2024-05-01T13:40:02.000Z</time><ele>248.8</ele></trkpt><trkpt lat="48.757446" lon="17.699219"><time>2024-05-01T13:40:03.000Z</time><ele>249.6</ele></trkpt><trkpt lat="48.757458" lon="17.699286"><time>2024-05-01T13:42:12.000Z</time><ele>249.2</ele></trkpt><trkpt lat="48.75745" lon="17.699284"><time>2024-05-01T13:42:13.000Z</time><ele>248.4</ele></trkpt><trkpt lat="48.757458" lon="17.699265"><time>2024-05-01T13:51:32.000Z</time><ele>248.6</ele></trkpt><trkpt lat="48.757458" lon="17.699268"><time>2024-05-01T13:51:33.000Z</time><ele>248.2</ele></trkpt><trkpt lat="48.75744" lon="17.699232"><time>2024-05-01T13:58:35.000Z</time><ele>248.4</ele></trkpt><trkpt lat="48.757435" lon="17.699224"><time>2024-05-01T13:58:36.000Z</time><ele>249.6</ele></trkpt><trkpt lat="48.75744" lon="17.699228"><time>2024-05-01T13:58:37.000Z</time><ele>250.8</ele></trkpt><trkpt lat="48.757435" lon="17.69924"><time>2024-05-01T13:58:38.000Z</time><ele>251</ele></trkpt><trkpt lat="48.757404" lon="17.699272"><time>2024-05-01T14:03:31.000Z</time><ele>249.6</ele></trkpt><trkpt lat="48.757378" lon="17.69927"><time>2024-05-01T14:03:33.000Z</time><ele>247.6</ele></trkpt><trkpt lat="48.75732" lon="17.699293"><time>2024-05-01T14:03:35.000Z</time><ele>245.8</ele></trkpt><trkpt lat="48.75729" lon="17.699303"><time>2024-05-01T14:03:36.000Z</time><ele>244</ele></trkpt><trkpt lat="48.75725" lon="17.699297"><time>2024-05-01T14:03:37.000Z</time><ele>242.2</ele></trkpt><trkpt lat="48.75722" lon="17.699276"><time>2024-05-01T14:03:38.000Z</time><ele>242</ele></trkpt><trkpt lat="48.757187" lon="17.699236"><time>2024-05-01T14:03:39.000Z</time><ele>242</ele></trkpt><trkpt lat="48.757164" lon="17.699184"><time>2024-05-01T14:03:40.000Z</time><ele>242</ele></trkpt><trkpt lat="48.757145" lon="17.699121"><time>2024-05-01T14:03:41.000Z</time><ele>242</ele></trkpt><trkpt lat="48.757133" lon="17.699059"><time>2024-05-01T14:03:42.000Z</time><ele>242</ele></trkpt><trkpt lat="48.75705" lon="17.698713"><time>2024-05-01T14:03:46.000Z</time><ele>243</ele></trkpt><trkpt lat="48.75704" lon="17.698648"><time>2024-05-01T14:03:47.000Z</time><ele>243.2</ele></trkpt><trkpt lat="48.757023" lon="17.698582"><time>2024-05-01T14:03:49.000Z</time><ele>243.2</ele></trkpt><trkpt lat="48.757" lon="17.698517"><time>2024-05-01T14:03:50.000Z</time><ele>243.4</ele></trkpt><trkpt lat="48.756905" lon="17.698193"><time>2024-05-01T14:03:54.000Z</time><ele>243.8</ele></trkpt><trkpt lat="48.756893" lon="17.698133"><time>2024-05-01T14:03:56.000Z</time><ele>243.8</ele></trkpt><trkpt lat="48.756813" lon="17.697784"><time>2024-05-01T14:04:02.000Z</time><ele>243</ele></trkpt><trkpt lat="48.75679" lon="17.697737"><time>2024-05-01T14:04:03.000Z</time><ele>243</ele></trkpt><trkpt lat="48.756767" lon="17.697704"><time>2024-05-01T14:04:04.000Z</time><ele>243</ele></trkpt><trkpt lat="48.756718" lon="17.697693"><time>2024-05-01T14:04:06.000Z</time><ele>243</ele></trkpt><trkpt lat="48.756676" lon="17.697647"><time>2024-05-01T14:04:08.000Z</time><ele>243</ele></trkpt><trkpt lat="48.75666" lon="17.697617"><time>2024-05-01T14:04:09.000Z</time><ele>243.2</ele></trkpt><trkpt lat="48.756657" lon="17.69756"><time>2024-05-01T14:04:11.000Z</time><ele>243.6</ele></trkpt><trkpt lat="48.756657" lon="17.697515"><time>2024-05-01T14:04:13.000Z</time><ele>244.4</ele></trkpt><trkpt lat="48.756687" lon="17.697401"><time>2024-05-01T14:04:16.000Z</time><ele>247</ele></trkpt><trkpt lat="48.756714" lon="17.697353"><time>2024-05-01T14:04:19.000Z</time><ele>248.4</ele></trkpt><trkpt lat="48.75674" lon="17.697306"><time>2024-05-01T14:04:21.000Z</time><ele>249.6</ele></trkpt><trkpt lat="48.756775" lon="17.697205"><time>2024-05-01T14:04:23.000Z</time><ele>250.8</ele></trkpt><trkpt lat="48.756805" lon="17.69716"><time>2024-05-01T14:04:25.000Z</time><ele>251.2</ele></trkpt><trkpt lat="48.756836" lon="17.697117"><time>2024-05-01T14:04:27.000Z</time><ele>251.4</ele></trkpt><trkpt lat="48.756863" lon="17.697063"><time>2024-05-01T14:04:29.000Z</time><ele>251.4</ele></trkpt><trkpt lat="48.7569" lon="17.696997"><time>2024-05-01T14:04:31.000Z</time><ele>251.2</ele></trkpt><trkpt lat="48.756924" lon="17.696962"><time>2024-05-01T14:04:32.000Z</time><ele>251</ele></trkpt><trkpt lat="48.756947" lon="17.696917"><time>2024-05-01T14:04:34.000Z</time><ele>251.2</ele></trkpt><trkpt lat="48.757" lon="17.696804"><time>2024-05-01T14:04:38.000Z</time><ele>252.2</ele></trkpt><trkpt lat="48.757023" lon="17.696753"><time>2024-05-01T14:04:40.000Z</time><ele>253.8</ele></trkpt><trkpt lat="48.75705" lon="17.6967"><time>2024-05-01T14:04:42.000Z</time><ele>255.6</ele></trkpt><trkpt lat="48.757076" lon="17.696648"><time>2024-05-01T14:04:44.000Z</time><ele>256.6</ele></trkpt><trkpt lat="48.757107" lon="17.696592"><time>2024-05-01T14:04:46.000Z</time><ele>257.8</ele></trkpt><trkpt lat="48.757137" lon="17.696531"><time>2024-05-01T14:04:48.000Z</time><ele>258.8</ele></trkpt><trkpt lat="48.75716" lon="17.696486"><time>2024-05-01T14:04:50.000Z</time><ele>259.2</ele></trkpt><trkpt lat="48.757217" lon="17.696377"><time>2024-05-01T14:04:54.000Z</time><ele>260.2</ele></trkpt><trkpt lat="48.757244" lon="17.696312"><time>2024-05-01T14:04:56.000Z</time><ele>260.6</ele></trkpt><trkpt lat="48.75727" lon="17.696259"><time>2024-05-01T14:04:58.000Z</time><ele>261.4</ele></trkpt><trkpt lat="48.757305" lon="17.696203"><time>2024-05-01T14:05:00.000Z</time><ele>262.4</ele></trkpt><trkpt lat="48.757324" lon="17.69614"><time>2024-05-01T14:05:02.000Z</time><ele>263.4</ele></trkpt><trkpt lat="48.757366" lon="17.696049"><time>2024-05-01T14:05:05.000Z</time><ele>266.2</ele></trkpt><trkpt lat="48.757393" lon="17.695988"><time>2024-05-01T14:05:07.000Z</time><ele>267.6</ele></trkpt><trkpt lat="48.757412" lon="17.69594"><time>2024-05-01T14:05:09.000Z</time><ele>269.2</ele></trkpt><trkpt lat="48.75744" lon="17.695889"><time>2024-05-01T14:05:11.000Z</time><ele>270.6</ele></trkpt><trkpt lat="48.757465" lon="17.695824"><time>2024-05-01T14:05:14.000Z</time><ele>272</ele></trkpt><trkpt lat="48.757492" lon="17.69578"><time>2024-05-01T14:05:16.000Z</time><ele>273.2</ele></trkpt><trkpt lat="48.75751" lon="17.695742"><time>2024-05-01T14:05:18.000Z</time><ele>274</ele></trkpt><trkpt lat="48.757545" lon="17.695696"><time>2024-05-01T14:05:20.000Z</time><ele>274</ele></trkpt><trkpt lat="48.757576" lon="17.695637"><time>2024-05-01T14:05:22.000Z</time><ele>274.2</ele></trkpt><trkpt lat="48.75759" lon="17.695572"><time>2024-05-01T14:05:24.000Z</time><ele>274.2</ele></trkpt><trkpt lat="48.757603" lon="17.69553"><time>2024-05-01T14:05:25.000Z</time><ele>274</ele></trkpt><trkpt lat="48.757626" lon="17.695494"><time>2024-05-01T14:05:26.000Z</time><ele>273.8</ele></trkpt><trkpt lat="48.757637" lon="17.695429"><time>2024-05-01T14:05:28.000Z</time><ele>274.2</ele></trkpt><trkpt lat="48.75767" lon="17.69537"><time>2024-05-01T14:05:30.000Z</time><ele>274.4</ele></trkpt><trkpt lat="48.75769" lon="17.69534"><time>2024-05-01T14:05:31.000Z</time><ele>274.6</ele></trkpt><trkpt lat="48.757713" lon="17.695309"><time>2024-05-01T14:05:32.000Z</time><ele>274.8</ele></trkpt><trkpt lat="48.757732" lon="17.695278"><time>2024-05-01T14:05:33.000Z</time><ele>275</ele></trkpt><trkpt lat="48.757774" lon="17.695154"><time>2024-05-01T14:05:36.000Z</time><ele>276</ele></trkpt><trkpt lat="48.757812" lon="17.69509"><time>2024-05-01T14:05:39.000Z</time><ele>276.8</ele></trkpt><trkpt lat="48.757828" lon="17.695051"><time>2024-05-01T14:05:40.000Z</time><ele>277.4</ele></trkpt><trkpt lat="48.757847" lon="17.695017"><time>2024-05-01T14:05:41.000Z</time><ele>278</ele></trkpt><trkpt lat="48.757866" lon="17.69498"><time>2024-05-01T14:05:42.000Z</time><ele>278.2</ele></trkpt><trkpt lat="48.75788" lon="17.694925"><time>2024-05-01T14:05:44.000Z</time><ele>278.4</ele></trkpt><trkpt lat="48.757896" lon="17.694864"><time>2024-05-01T14:05:46.000Z</time><ele>278.6</ele></trkpt><trkpt lat="48.757904" lon="17.694796"><time>2024-05-01T14:05:48.000Z</time><ele>279.6</ele></trkpt><trkpt lat="48.75792" lon="17.694723"><time>2024-05-01T14:05:50.000Z</time><ele>281</ele></trkpt><trkpt lat="48.757942" lon="17.694653"><time>2024-05-01T14:05:52.000Z</time><ele>282.4</ele></trkpt><trkpt lat="48.75796" lon="17.694614"><time>2024-05-01T14:05:53.000Z</time><ele>283.6</ele></trkpt><trkpt lat="48.75797" lon="17.694576"><time>2024-05-01T14:05:54.000Z</time><ele>284.6</ele></trkpt><trkpt lat="48.75798" lon="17.694536"><time>2024-05-01T14:05:55.000Z</time><ele>285.2</ele></trkpt><trkpt lat="48.75799" lon="17.694464"><time>2024-05-01T14:05:57.000Z</time><ele>285.2</ele></trkpt><trkpt lat="48.758003" lon="17.694395"><time>2024-05-01T14:05:59.000Z</time><ele>285.2</ele></trkpt><trkpt lat="48.75801" lon="17.694351"><time>2024-05-01T14:06:00.000Z</time><ele>285.2</ele></trkpt><trkpt lat="48.75802" lon="17.694307"><time>2024-05-01T14:06:01.000Z</time><ele>285.2</ele></trkpt><trkpt lat="48.75805" lon="17.69417"><time>2024-05-01T14:06:03.000Z</time><ele>285</ele></trkpt><trkpt lat="48.758057" lon="17.69412"><time>2024-05-01T14:06:05.000Z</time><ele>285.4</ele></trkpt><trkpt lat="48.758064" lon="17.69408"><time>2024-05-01T14:06:06.000Z</time><ele>285.8</ele></trkpt><trkpt lat="48.758076" lon="17.694042"><time>2024-05-01T14:06:07.000Z</time><ele>286</ele></trkpt><trkpt lat="48.758087" lon="17.693996"><time>2024-05-01T14:06:08.000Z</time><ele>286.2</ele></trkpt><trkpt lat="48.7581" lon="17.693935"><time>2024-05-01T14:06:09.000Z</time><ele>286.6</ele></trkpt><trkpt lat="48.758144" lon="17.693783"><time>2024-05-01T14:06:11.000Z</time><ele>287</ele></trkpt><trkpt lat="48.758163" lon="17.693668"><time>2024-05-01T14:06:13.000Z</time><ele>287.8</ele></trkpt><trkpt lat="48.75819" lon="17.693344"><time>2024-05-01T14:06:18.000Z</time><ele>290.6</ele></trkpt><trkpt lat="48.758183" lon="17.693289"><time>2024-05-01T14:06:20.000Z</time><ele>290.4</ele></trkpt><trkpt lat="48.758175" lon="17.693237"><time>2024-05-01T14:06:21.000Z</time><ele>290</ele></trkpt><trkpt lat="48.75817" lon="17.693083"><time>2024-05-01T14:06:23.000Z</time><ele>288.8</ele></trkpt><trkpt lat="48.75817" lon="17.693031"><time>2024-05-01T14:06:24.000Z</time><ele>289.4</ele></trkpt><trkpt lat="48.758163" lon="17.692883"><time>2024-05-01T14:06:27.000Z</time><ele>291.4</ele></trkpt><trkpt lat="48.75816" lon="17.692833"><time>2024-05-01T14:06:29.000Z</time><ele>292.8</ele></trkpt><trkpt lat="48.758144" lon="17.692747"><time>2024-05-01T14:06:31.000Z</time><ele>294.6</ele></trkpt><trkpt lat="48.75813" lon="17.692694"><time>2024-05-01T14:06:32.000Z</time><ele>296.4</ele></trkpt><trkpt lat="48.758106" lon="17.692648"><time>2024-05-01T14:06:33.000Z</time><ele>298</ele></trkpt><trkpt lat="48.758003" lon="17.692425"><time>2024-05-01T14:06:36.000Z</time><ele>300.2</ele></trkpt><trkpt lat="48.75791" lon="17.692202"><time>2024-05-01T14:06:40.000Z</time><ele>301.8</ele></trkpt><trkpt lat="48.757896" lon="17.69216"><time>2024-05-01T14:06:42.000Z</time><ele>302</ele></trkpt><trkpt lat="48.75787" lon="17.692076"><time>2024-05-01T14:06:44.000Z</time><ele>302.2</ele></trkpt><trkpt lat="48.757854" lon="17.69203"><time>2024-05-01T14:06:45.000Z</time><ele>302</ele></trkpt><trkpt lat="48.757847" lon="17.691984"><time>2024-05-01T14:06:46.000Z</time><ele>301.8</ele></trkpt><trkpt lat="48.757835" lon="17.691906"><time>2024-05-01T14:06:48.000Z</time><ele>301.4</ele></trkpt><trkpt lat="48.757824" lon="17.691858"><time>2024-05-01T14:06:49.000Z</time><ele>301</ele></trkpt><trkpt lat="48.757816" lon="17.691809"><time>2024-05-01T14:06:50.000Z</time><ele>300.6</ele></trkpt><trkpt lat="48.757812" lon="17.691765"><time>2024-05-01T14:06:51.000Z</time><ele>300.6</ele></trkpt><trkpt lat="48.757805" lon="17.691715"><time>2024-05-01T14:06:52.000Z</time><ele>300.6</ele></trkpt><trkpt lat="48.757767" lon="17.691517"><time>2024-05-01T14:06:55.000Z</time><ele>301.8</ele></trkpt><trkpt lat="48.757755" lon="17.691477"><time>2024-05-01T14:06:56.000Z</time><ele>302.2</ele></trkpt><trkpt lat="48.75774" lon="17.691383"><time>2024-05-01T14:06:58.000Z</time><ele>303.2</ele></trkpt><trkpt lat="48.75773" lon="17.69116"><time>2024-05-01T14:07:02.000Z</time><ele>305.6</ele></trkpt><trkpt lat="48.757744" lon="17.690895"><time>2024-05-01T14:07:07.000Z</time><ele>306.6</ele></trkpt><trkpt lat="48.75775" lon="17.690851"><time>2024-05-01T14:07:09.000Z</time><ele>306.6</ele></trkpt><trkpt lat="48.757755" lon="17.690805"><time>2024-05-01T14:07:10.000Z</time><ele>306.6</ele></trkpt><trkpt lat="48.757767" lon="17.690762"><time>2024-05-01T14:07:11.000Z</time><ele>306.8</ele></trkpt><trkpt lat="48.757786" lon="17.690683"><time>2024-05-01T14:07:13.000Z</time><ele>307.4</ele></trkpt><trkpt lat="48.75779" lon="17.690643"><time>2024-05-01T14:07:14.000Z</time><ele>307.6</ele></trkpt><trkpt lat="48.75782" lon="17.690464"><time>2024-05-01T14:07:17.000Z</time><ele>308.8</ele></trkpt><trkpt lat="48.757854" lon="17.690264"><time>2024-05-01T14:07:21.000Z</time><ele>311</ele></trkpt><trkpt lat="48.757877" lon="17.690174"><time>2024-05-01T14:07:23.000Z</time><ele>312.8</ele></trkpt><trkpt lat="48.757885" lon="17.690128"><time>2024-05-01T14:07:25.000Z</time><ele>314.2</ele></trkpt><trkpt lat="48.757896" lon="17.690083"><time>2024-05-01T14:07:26.000Z</time><ele>315.4</ele></trkpt><trkpt lat="48.75791" lon="17.690037"><time>2024-05-01T14:07:27.000Z</time><ele>316.8</ele></trkpt><trkpt lat="48.757927" lon="17.69"><time>2024-05-01T14:07:28.000Z</time><ele>318</ele></trkpt><trkpt lat="48.757965" lon="17.68986"><time>2024-05-01T14:07:31.000Z</time><ele>320.2</ele></trkpt><trkpt lat="48.757984" lon="17.689783"><time>2024-05-01T14:07:33.000Z</time><ele>321</ele></trkpt><trkpt lat="48.75801" lon="17.689714"><time>2024-05-01T14:07:35.000Z</time><ele>321.6</ele></trkpt><trkpt lat="48.75805" lon="17.689636"><time>2024-05-01T14:07:37.000Z</time><ele>322.8</ele></trkpt><trkpt lat="48.758064" lon="17.689596"><time>2024-05-01T14:07:38.000Z</time><ele>322.8</ele></trkpt><trkpt lat="48.758083" lon="17.689552"><time>2024-05-01T14:07:39.000Z</time><ele>323.4</ele></trkpt><trkpt lat="48.75812" lon="17.689487"><time>2024-05-01T14:07:41.000Z</time><ele>324.6</ele></trkpt><trkpt lat="48.758137" lon="17.689457"><time>2024-05-01T14:07:42.000Z</time><ele>325.2</ele></trkpt><trkpt lat="48.758156" lon="17.68942"><time>2024-05-01T14:07:43.000Z</time><ele>325.6</ele></trkpt><trkpt lat="48.758217" lon="17.689302"><time>2024-05-01T14:07:46.000Z</time><ele>326</ele></trkpt><trkpt lat="48.758232" lon="17.689257"><time>2024-05-01T14:07:47.000Z</time><ele>326.4</ele></trkpt><trkpt lat="48.758255" lon="17.689213"><time>2024-05-01T14:07:48.000Z</time><ele>327.2</ele></trkpt><trkpt lat="48.758278" lon="17.689169"><time>2024-05-01T14:07:50.000Z</time><ele>328</ele></trkpt><trkpt lat="48.758293" lon="17.689129"><time>2024-05-01T14:07:51.000Z</time><ele>328.6</ele></trkpt><trkpt lat="48.75831" lon="17.689093"><time>2024-05-01T14:07:52.000Z</time><ele>329.4</ele></trkpt><trkpt lat="48.758324" lon="17.689053"><time>2024-05-01T14:07:53.000Z</time><ele>330</ele></trkpt><trkpt lat="48.758347" lon="17.689016"><time>2024-05-01T14:07:54.000Z</time><ele>330.6</ele></trkpt><trkpt lat="48.758373" lon="17.688982"><time>2024-05-01T14:07:55.000Z</time><ele>331.4</ele></trkpt><trkpt lat="48.758396" lon="17.688948"><time>2024-05-01T14:07:56.000Z</time><ele>332</ele></trkpt><trkpt lat="48.758423" lon="17.688908"><time>2024-05-01T14:07:57.000Z</time><ele>332.6</ele></trkpt><trkpt lat="48.75845" lon="17.688868"><time>2024-05-01T14:07:58.000Z</time><ele>332.8</ele></trkpt><trkpt lat="48.758526" lon="17.688684"><time>2024-05-01T14:08:01.000Z</time><ele>332.8</ele></trkpt><trkpt lat="48.758537" lon="17.688631"><time>2024-05-01T14:08:03.000Z</time><ele>333.4</ele></trkpt><trkpt lat="48.75855" lon="17.688583"><time>2024-05-01T14:08:04.000Z</time><ele>334.2</ele></trkpt><trkpt lat="48.758553" lon="17.68854"><time>2024-05-01T14:08:05.000Z</time><ele>334.8</ele></trkpt><trkpt lat="48.75855" lon="17.688494"><time>2024-05-01T14:08:06.000Z</time><ele>335.6</ele></trkpt><trkpt lat="48.758533" lon="17.688448"><time>2024-05-01T14:08:07.000Z</time><ele>336.2</ele></trkpt><trkpt lat="48.758514" lon="17.688393"><time>2024-05-01T14:08:09.000Z</time><ele>336.8</ele></trkpt><trkpt lat="48.758465" lon="17.688322"><time>2024-05-01T14:08:11.000Z</time><ele>337.4</ele></trkpt><trkpt lat="48.758434" lon="17.688278"><time>2024-05-01T14:08:12.000Z</time><ele>338.2</ele></trkpt><trkpt lat="48.7584" lon="17.688236"><time>2024-05-01T14:08:13.000Z</time><ele>338.8</ele></trkpt><trkpt lat="48.75833" lon="17.688164"><time>2024-05-01T14:08:14.000Z</time><ele>339.6</ele></trkpt><trkpt lat="48.758297" lon="17.688135"><time>2024-05-01T14:08:16.000Z</time><ele>339.8</ele></trkpt><trkpt lat="48.75822" lon="17.688118"><time>2024-05-01T14:08:17.000Z</time><ele>339.6</ele></trkpt><trkpt lat="48.7581" lon="17.688251"><time>2024-05-01T14:08:20.000Z</time><ele>338.8</ele></trkpt><trkpt lat="48.758057" lon="17.688305"><time>2024-05-01T14:08:22.000Z</time><ele>338.4</ele></trkpt><trkpt lat="48.758007" lon="17.688349"><time>2024-05-01T14:08:23.000Z</time><ele>338</ele></trkpt><trkpt lat="48.75784" lon="17.688597"><time>2024-05-01T14:08:26.000Z</time><ele>337.4</ele></trkpt><trkpt lat="48.757793" lon="17.68867"><time>2024-05-01T14:08:27.000Z</time><ele>337.6</ele></trkpt><trkpt lat="48.75773" lon="17.688704"><time>2024-05-01T14:08:28.000Z</time><ele>338</ele></trkpt><trkpt lat="48.757576" lon="17.688765"><time>2024-05-01T14:08:31.000Z</time><ele>338</ele></trkpt><trkpt lat="48.75747" lon="17.68888"><time>2024-05-01T14:08:33.000Z</time><ele>337</ele></trkpt><trkpt lat="48.75743" lon="17.68894"><time>2024-05-01T14:08:34.000Z</time><ele>336.8</ele></trkpt><trkpt lat="48.757385" lon="17.689"><time>2024-05-01T14:08:35.000Z</time><ele>336.8</ele></trkpt><trkpt lat="48.757343" lon="17.689077"><time>2024-05-01T14:08:36.000Z</time><ele>337.6</ele></trkpt><trkpt lat="48.75731" lon="17.689144"><time>2024-05-01T14:08:37.000Z</time><ele>338</ele></trkpt><trkpt lat="48.75727" lon="17.68921"><time>2024-05-01T14:08:38.000Z</time><ele>338.2</ele></trkpt><trkpt lat="48.757233" lon="17.689283"><time>2024-05-01T14:08:39.000Z</time><ele>337.6</ele></trkpt><trkpt lat="48.75718" lon="17.689331"><time>2024-05-01T14:08:40.000Z</time><ele>336.6</ele></trkpt><trkpt lat="48.757133" lon="17.68938"><time>2024-05-01T14:08:41.000Z</time><ele>335.4</ele></trkpt><trkpt lat="48.757053" lon="17.689484"><time>2024-05-01T14:08:43.000Z</time><ele>333.6</ele></trkpt><trkpt lat="48.757008" lon="17.689505"><time>2024-05-01T14:08:44.000Z</time><ele>333.4</ele></trkpt><trkpt lat="48.75698" lon="17.68953"><time>2024-05-01T14:08:45.000Z</time><ele>333.6</ele></trkpt><trkpt lat="48.756927" lon="17.689604"><time>2024-05-01T14:08:47.000Z</time><ele>334.4</ele></trkpt><trkpt lat="48.75687" lon="17.689795"><time>2024-05-01T14:08:50.000Z</time><ele>336</ele></trkpt><trkpt lat="48.756824" lon="17.68997"><time>2024-05-01T14:08:52.000Z</time><ele>336.4</ele></trkpt><trkpt lat="48.75678" lon="17.690125"><time>2024-05-01T14:08:54.000Z</time><ele>336.2</ele></trkpt><trkpt lat="48.756763" lon="17.690208"><time>2024-05-01T14:08:55.000Z</time><ele>336</ele></trkpt><trkpt lat="48.756763" lon="17.690304"><time>2024-05-01T14:08:56.000Z</time><ele>336</ele></trkpt><trkpt lat="48.75675" lon="17.690489"><time>2024-05-01T14:08:58.000Z</time><ele>335.4</ele></trkpt><trkpt lat="48.756714" lon="17.690603"><time>2024-05-01T14:09:00.000Z</time><ele>335.2</ele></trkpt><trkpt lat="48.7567" lon="17.69064"><time>2024-05-01T14:09:01.000Z</time><ele>335</ele></trkpt><trkpt lat="48.75669" lon="17.690725"><time>2024-05-01T14:09:02.000Z</time><ele>335.2</ele></trkpt><trkpt lat="48.756638" lon="17.6909"><time>2024-05-01T14:09:05.000Z</time><ele>335.4</ele></trkpt><trkpt lat="48.75657" lon="17.691015"><time>2024-05-01T14:09:07.000Z</time><ele>335</ele></trkpt><trkpt lat="48.75653" lon="17.691044"><time>2024-05-01T14:09:08.000Z</time><ele>335</ele></trkpt><trkpt lat="48.756508" lon="17.69106"><time>2024-05-01T14:09:10.000Z</time><ele>335.2</ele></trkpt><trkpt lat="48.756447" lon="17.691032"><time>2024-05-01T14:09:12.000Z</time><ele>335.8</ele></trkpt><trkpt lat="48.75642" lon="17.690994"><time>2024-05-01T14:09:13.000Z</time><ele>336.8</ele></trkpt><trkpt lat="48.75639" lon="17.690975"><time>2024-05-01T14:09:14.000Z</time><ele>337.6</ele></trkpt><trkpt lat="48.756275" lon="17.690908"><time>2024-05-01T14:09:16.000Z</time><ele>339.2</ele></trkpt><trkpt lat="48.756233" lon="17.690903"><time>2024-05-01T14:09:18.000Z</time><ele>339.6</ele></trkpt><trkpt lat="48.75619" lon="17.690905"><time>2024-05-01T14:09:19.000Z</time><ele>340</ele></trkpt><trkpt lat="48.756157" lon="17.690908"><time>2024-05-01T14:09:20.000Z</time><ele>340.4</ele></trkpt><trkpt lat="48.75611" lon="17.691025"><time>2024-05-01T14:09:22.000Z</time><ele>341.4</ele></trkpt><trkpt lat="48.756203" lon="17.691948"><time>2024-05-01T14:09:32.000Z</time><ele>340.2</ele></trkpt><trkpt lat="48.756187" lon="17.691984"><time>2024-05-01T14:09:33.000Z</time><ele>340.2</ele></trkpt><trkpt lat="48.756172" lon="17.692156"><time>2024-05-01T14:09:36.000Z</time><ele>340.4</ele></trkpt><trkpt lat="48.756176" lon="17.692265"><time>2024-05-01T14:09:38.000Z</time><ele>341.4</ele></trkpt><trkpt lat="48.7562" lon="17.69232"><time>2024-05-01T14:09:39.000Z</time><ele>342</ele></trkpt><trkpt lat="48.75619" lon="17.692438"><time>2024-05-01T14:09:41.000Z</time><ele>342.6</ele></trkpt><trkpt lat="48.75618" lon="17.692493"><time>2024-05-01T14:09:43.000Z</time><ele>342.4</ele></trkpt><trkpt lat="48.75618" lon="17.69254"><time>2024-05-01T14:09:45.000Z</time><ele>342.2</ele></trkpt><trkpt lat="48.75617" lon="17.692593"><time>2024-05-01T14:09:47.000Z</time><ele>342.2</ele></trkpt><trkpt lat="48.75612" lon="17.692768"><time>2024-05-01T14:09:50.000Z</time><ele>343.2</ele></trkpt><trkpt lat="48.756184" lon="17.692844"><time>2024-05-01T14:09:52.000Z</time><ele>343.4</ele></trkpt><trkpt lat="48.756145" lon="17.69316"><time>2024-05-01T14:09:56.000Z</time><ele>342.8</ele></trkpt><trkpt lat="48.756145" lon="17.693258"><time>2024-05-01T14:09:57.000Z</time><ele>343</ele></trkpt><trkpt lat="48.75611" lon="17.693329"><time>2024-05-01T14:09:59.000Z</time><ele>342.8</ele></trkpt><trkpt lat="48.756058" lon="17.693375"><time>2024-05-01T14:10:00.000Z</time><ele>342.4</ele></trkpt><trkpt lat="48.75592" lon="17.693327"><time>2024-05-01T14:10:02.000Z</time><ele>341.6</ele></trkpt><trkpt lat="48.755756" lon="17.69331"><time>2024-05-01T14:10:05.000Z</time><ele>341</ele></trkpt><trkpt lat="48.755573" lon="17.693459"><time>2024-05-01T14:10:08.000Z</time><ele>340.2</ele></trkpt><trkpt lat="48.755493" lon="17.6934"><time>2024-05-01T14:10:10.000Z</time><ele>338.6</ele></trkpt><trkpt lat="48.755405" lon="17.693304"><time>2024-05-01T14:10:12.000Z</time><ele>337.4</ele></trkpt><trkpt lat="48.755363" lon="17.693289"><time>2024-05-01T14:10:14.000Z</time><ele>337.2</ele></trkpt><trkpt lat="48.75529" lon="17.693403"><time>2024-05-01T14:10:16.000Z</time><ele>337.8</ele></trkpt><trkpt lat="48.755287" lon="17.693544"><time>2024-05-01T14:10:18.000Z</time><ele>337.2</ele></trkpt><trkpt lat="48.755234" lon="17.693604"><time>2024-05-01T14:10:20.000Z</time><ele>336.6</ele></trkpt><trkpt lat="48.755203" lon="17.693663"><time>2024-05-01T14:10:21.000Z</time><ele>335.8</ele></trkpt><trkpt lat="48.755177" lon="17.693712"><time>2024-05-01T14:10:22.000Z</time><ele>335</ele></trkpt><trkpt lat="48.755123" lon="17.693775"><time>2024-05-01T14:10:23.000Z</time><ele>334.2</ele></trkpt><trkpt lat="48.75512" lon="17.693865"><time>2024-05-01T14:10:24.000Z</time><ele>333.6</ele></trkpt><trkpt lat="48.75528" lon="17.694069"><time>2024-05-01T14:10:27.000Z</time><ele>332.8</ele></trkpt><trkpt lat="48.755325" lon="17.694117"><time>2024-05-01T14:10:28.000Z</time><ele>332.8</ele></trkpt><trkpt lat="48.75532" lon="17.69417"><time>2024-05-01T14:10:29.000Z</time><ele>332.6</ele></trkpt><trkpt lat="48.755272" lon="17.69415"><time>2024-05-01T14:10:30.000Z</time><ele>332.8</ele></trkpt><trkpt lat="48.7552" lon="17.6941"><time>2024-05-01T14:10:32.000Z</time><ele>332.8</ele></trkpt><trkpt lat="48.755157" lon="17.694073"><time>2024-05-01T14:10:33.000Z</time><ele>332.4</ele></trkpt><trkpt lat="48.7551" lon="17.694069"><time>2024-05-01T14:10:35.000Z</time><ele>331.8</ele></trkpt><trkpt lat="48.75508" lon="17.694136"><time>2024-05-01T14:10:36.000Z</time><ele>331</ele></trkpt><trkpt lat="48.75508" lon="17.694185"><time>2024-05-01T14:10:37.000Z</time><ele>330.2</ele></trkpt><trkpt lat="48.75509" lon="17.694263"><time>2024-05-01T14:10:38.000Z</time><ele>329.6</ele></trkpt><trkpt lat="48.755135" lon="17.694344"><time>2024-05-01T14:10:39.000Z</time><ele>329.2</ele></trkpt><trkpt lat="48.755013" lon="17.69464"><time>2024-05-01T14:10:42.000Z</time><ele>327.2</ele></trkpt><trkpt lat="48.75491" lon="17.694689"><time>2024-05-01T14:10:44.000Z</time><ele>326</ele></trkpt><trkpt lat="48.754826" lon="17.694775"><time>2024-05-01T14:10:46.000Z</time><ele>325.6</ele></trkpt><trkpt lat="48.754787" lon="17.694828"><time>2024-05-01T14:10:47.000Z</time><ele>325.4</ele></trkpt><trkpt lat="48.754738" lon="17.694857"><time>2024-05-01T14:10:48.000Z</time><ele>325.6</ele></trkpt><trkpt lat="48.754696" lon="17.69488"><time>2024-05-01T14:10:49.000Z</time><ele>325.6</ele></trkpt><trkpt lat="48.75467" lon="17.694893"><time>2024-05-01T14:10:50.000Z</time><ele>325.6</ele></trkpt><trkpt lat="48.754387" lon="17.695"><time>2024-05-01T14:10:54.000Z</time><ele>320.8</ele></trkpt><trkpt lat="48.75407" lon="17.695229"><time>2024-05-01T14:10:58.000Z</time><ele>316.4</ele></trkpt><trkpt lat="48.75382" lon="17.695341"><time>2024-05-01T14:11:01.000Z</time><ele>312.6</ele></trkpt><trkpt lat="48.753742" lon="17.695349"><time>2024-05-01T14:11:03.000Z</time><ele>311.4</ele></trkpt><trkpt lat="48.75369" lon="17.695345"><time>2024-05-01T14:11:04.000Z</time><ele>310.6</ele></trkpt><trkpt lat="48.753616" lon="17.695396"><time>2024-05-01T14:11:05.000Z</time><ele>310</ele></trkpt><trkpt lat="48.753567" lon="17.695435"><time>2024-05-01T14:11:06.000Z</time><ele>309.6</ele></trkpt><trkpt lat="48.75352" lon="17.695478"><time>2024-05-01T14:11:07.000Z</time><ele>309.4</ele></trkpt><trkpt lat="48.753464" lon="17.695532"><time>2024-05-01T14:11:08.000Z</time><ele>309.4</ele></trkpt><trkpt lat="48.753326" lon="17.6956"><time>2024-05-01T14:11:10.000Z</time><ele>310.2</ele></trkpt><trkpt lat="48.75328" lon="17.695627"><time>2024-05-01T14:11:12.000Z</time><ele>310</ele></trkpt><trkpt lat="48.753212" lon="17.69562"><time>2024-05-01T14:11:13.000Z</time><ele>309.6</ele></trkpt><trkpt lat="48.75293" lon="17.695604"><time>2024-05-01T14:11:16.000Z</time><ele>308.8</ele></trkpt><trkpt lat="48.752663" lon="17.695671"><time>2024-05-01T14:11:20.000Z</time><ele>308.6</ele></trkpt><trkpt lat="48.75259" lon="17.695707"><time>2024-05-01T14:11:22.000Z</time><ele>308.4</ele></trkpt><trkpt lat="48.75253" lon="17.695732"><time>2024-05-01T14:11:23.000Z</time><ele>308</ele></trkpt><trkpt lat="48.752476" lon="17.695782"><time>2024-05-01T14:11:24.000Z</time><ele>307.2</ele></trkpt><trkpt lat="48.752373" lon="17.695948"><time>2024-05-01T14:11:26.000Z</time><ele>305.2</ele></trkpt><trkpt lat="48.75239" lon="17.69603"><time>2024-05-01T14:11:28.000Z</time><ele>304.2</ele></trkpt><trkpt lat="48.752384" lon="17.696104"><time>2024-05-01T14:11:29.000Z</time><ele>303.6</ele></trkpt><trkpt lat="48.752323" lon="17.696207"><time>2024-05-01T14:11:30.000Z</time><ele>302</ele></trkpt><trkpt lat="48.75229" lon="17.696253"><time>2024-05-01T14:11:32.000Z</time><ele>301.6</ele></trkpt><trkpt lat="48.7522" lon="17.696495"><time>2024-05-01T14:11:34.000Z</time><ele>300</ele></trkpt><trkpt lat="48.752163" lon="17.696552"><time>2024-05-01T14:11:35.000Z</time><ele>299.4</ele></trkpt><trkpt lat="48.75199" lon="17.696735"><time>2024-05-01T14:11:38.000Z</time><ele>297.8</ele></trkpt><trkpt lat="48.751865" lon="17.696777"><time>2024-05-01T14:11:40.000Z</time><ele>296.6</ele></trkpt><trkpt lat="48.7516" lon="17.696877"><time>2024-05-01T14:11:44.000Z</time><ele>294.8</ele></trkpt><trkpt lat="48.75152" lon="17.697094"><time>2024-05-01T14:11:46.000Z</time><ele>294</ele></trkpt><trkpt lat="48.751423" lon="17.697277"><time>2024-05-01T14:11:48.000Z</time><ele>292.6</ele></trkpt><trkpt lat="48.75137" lon="17.697268"><time>2024-05-01T14:11:50.000Z</time><ele>292.2</ele></trkpt><trkpt lat="48.751305" lon="17.697292"><time>2024-05-01T14:11:51.000Z</time><ele>291.2</ele></trkpt><trkpt lat="48.751247" lon="17.697308"><time>2024-05-01T14:11:52.000Z</time><ele>290.6</ele></trkpt><trkpt lat="48.751175" lon="17.69731"><time>2024-05-01T14:11:53.000Z</time><ele>290</ele></trkpt><trkpt lat="48.751144" lon="17.697323"><time>2024-05-01T14:11:54.000Z</time><ele>289.2</ele></trkpt><trkpt lat="48.751095" lon="17.697329"><time>2024-05-01T14:11:55.000Z</time><ele>288</ele></trkpt><trkpt lat="48.751022" lon="17.697393"><time>2024-05-01T14:11:56.000Z</time><ele>286.8</ele></trkpt><trkpt lat="48.750916" lon="17.69741"><time>2024-05-01T14:11:58.000Z</time><ele>284.6</ele></trkpt><trkpt lat="48.75083" lon="17.69742"><time>2024-05-01T14:12:00.000Z</time><ele>282.6</ele></trkpt><trkpt lat="48.750744" lon="17.697424"><time>2024-05-01T14:12:02.000Z</time><ele>281</ele></trkpt><trkpt lat="48.750706" lon="17.697445"><time>2024-05-01T14:12:04.000Z</time><ele>280.8</ele></trkpt><trkpt lat="48.75065" lon="17.697538"><time>2024-05-01T14:12:05.000Z</time><ele>280.6</ele></trkpt><trkpt lat="48.7506" lon="17.697563"><time>2024-05-01T14:12:06.000Z</time><ele>280.6</ele></trkpt><trkpt lat="48.75054" lon="17.697634"><time>2024-05-01T14:12:08.000Z</time><ele>280.2</ele></trkpt><trkpt lat="48.75063" lon="17.697687"><time>2024-05-01T14:12:10.000Z</time><ele>280</ele></trkpt><trkpt lat="48.750732" lon="17.69772"><time>2024-05-01T14:12:12.000Z</time><ele>279.8</ele></trkpt><trkpt lat="48.750767" lon="17.697807"><time>2024-05-01T14:12:14.000Z</time><ele>279</ele></trkpt><trkpt lat="48.750824" lon="17.697895"><time>2024-05-01T14:12:16.000Z</time><ele>277.8</ele></trkpt><trkpt lat="48.751022" lon="17.697908"><time>2024-05-01T14:12:19.000Z</time><ele>276.6</ele></trkpt><trkpt lat="48.751087" lon="17.6979"><time>2024-05-01T14:12:21.000Z</time><ele>276</ele></trkpt><trkpt lat="48.75113" lon="17.69784"><time>2024-05-01T14:12:22.000Z</time><ele>275.6</ele></trkpt><trkpt lat="48.75115" lon="17.697805"><time>2024-05-01T14:12:23.000Z</time><ele>274.6</ele></trkpt><trkpt lat="48.751198" lon="17.697765"><time>2024-05-01T14:12:24.000Z</time><ele>274.2</ele></trkpt><trkpt lat="48.751247" lon="17.697756"><time>2024-05-01T14:12:25.000Z</time><ele>274.4</ele></trkpt><trkpt lat="48.751225" lon="17.697857"><time>2024-05-01T14:12:26.000Z</time><ele>274.8</ele></trkpt><trkpt lat="48.751144" lon="17.697952"><time>2024-05-01T14:12:28.000Z</time><ele>275.2</ele></trkpt><trkpt lat="48.751064" lon="17.698027"><time>2024-05-01T14:12:30.000Z</time><ele>275</ele></trkpt><trkpt lat="48.750965" lon="17.698065"><time>2024-05-01T14:12:32.000Z</time><ele>273.2</ele></trkpt><trkpt lat="48.750935" lon="17.698088"><time>2024-05-01T14:12:34.000Z</time><ele>272.4</ele></trkpt><trkpt lat="48.750954" lon="17.698137"><time>2024-05-01T14:12:35.000Z</time><ele>272</ele></trkpt><trkpt lat="48.75096" lon="17.698412"><time>2024-05-01T14:12:38.000Z</time><ele>270.8</ele></trkpt><trkpt lat="48.750908" lon="17.698452"><time>2024-05-01T14:12:40.000Z</time><ele>270.2</ele></trkpt><trkpt lat="48.750813" lon="17.698587"><time>2024-05-01T14:12:42.000Z</time><ele>268.2</ele></trkpt><trkpt lat="48.750786" lon="17.698616"><time>2024-05-01T14:12:44.000Z</time><ele>267.2</ele></trkpt><trkpt lat="48.75069" lon="17.698704"><time>2024-05-01T14:12:46.000Z</time><ele>265</ele></trkpt><trkpt lat="48.75065" lon="17.69876"><time>2024-05-01T14:12:47.000Z</time><ele>264</ele></trkpt><trkpt lat="48.750553" lon="17.6989"><time>2024-05-01T14:12:49.000Z</time><ele>262.4</ele></trkpt><trkpt lat="48.75049" lon="17.698977"><time>2024-05-01T14:12:50.000Z</time><ele>261.6</ele></trkpt><trkpt lat="48.750423" lon="17.698984"><time>2024-05-01T14:12:52.000Z</time><ele>260.2</ele></trkpt><trkpt lat="48.750366" lon="17.698982"><time>2024-05-01T14:12:53.000Z</time><ele>259</ele></trkpt><trkpt lat="48.750286" lon="17.698988"><time>2024-05-01T14:12:54.000Z</time><ele>257.4</ele></trkpt><trkpt lat="48.75022" lon="17.698977"><time>2024-05-01T14:12:55.000Z</time><ele>256</ele></trkpt><trkpt lat="48.750168" lon="17.698984"><time>2024-05-01T14:12:56.000Z</time><ele>255.4</ele></trkpt><trkpt lat="48.75012" lon="17.699032"><time>2024-05-01T14:12:57.000Z</time><ele>255.4</ele></trkpt><trkpt lat="48.750076" lon="17.699053"><time>2024-05-01T14:12:58.000Z</time><ele>255.2</ele></trkpt><trkpt lat="48.749916" lon="17.699123"><time>2024-05-01T14:13:00.000Z</time><ele>254.4</ele></trkpt><trkpt lat="48.74986" lon="17.699175"><time>2024-05-01T14:13:02.000Z</time><ele>253.6</ele></trkpt><trkpt lat="48.74979" lon="17.699167"><time>2024-05-01T14:13:03.000Z</time><ele>253.2</ele></trkpt><trkpt lat="48.749733" lon="17.699207"><time>2024-05-01T14:13:04.000Z</time><ele>253.2</ele></trkpt><trkpt lat="48.749695" lon="17.699244"><time>2024-05-01T14:13:05.000Z</time><ele>252.8</ele></trkpt><trkpt lat="48.74973" lon="17.699291"><time>2024-05-01T14:13:06.000Z</time><ele>252.2</ele></trkpt><trkpt lat="48.749718" lon="17.69938"><time>2024-05-01T14:13:07.000Z</time><ele>250</ele></trkpt><trkpt lat="48.749672" lon="17.699415"><time>2024-05-01T14:13:08.000Z</time><ele>248.2</ele></trkpt><trkpt lat="48.74968" lon="17.69946"><time>2024-05-01T14:13:09.000Z</time><ele>246.6</ele></trkpt><trkpt lat="48.74972" lon="17.69952"><time>2024-05-01T14:13:12.000Z</time><ele>245.2</ele></trkpt><trkpt lat="48.749775" lon="17.699583"><time>2024-05-01T14:13:13.000Z</time><ele>244</ele></trkpt><trkpt lat="48.74981" lon="17.699589"><time>2024-05-01T14:13:16.000Z</time><ele>243.8</ele></trkpt><trkpt lat="48.749847" lon="17.699612"><time>2024-05-01T14:13:17.000Z</time><ele>243.2</ele></trkpt><trkpt lat="48.749985" lon="17.699644"><time>2024-05-01T14:13:21.000Z</time><ele>239.8</ele></trkpt><trkpt lat="48.74995" lon="17.699753"><time>2024-05-01T14:13:23.000Z</time><ele>237.6</ele></trkpt><trkpt lat="48.749924" lon="17.699783"><time>2024-05-01T14:13:24.000Z</time><ele>236.2</ele></trkpt><trkpt lat="48.749905" lon="17.69982"><time>2024-05-01T14:13:25.000Z</time><ele>235</ele></trkpt><trkpt lat="48.749897" lon="17.69992"><time>2024-05-01T14:13:27.000Z</time><ele>233.4</ele></trkpt><trkpt lat="48.74989" lon="17.699976"><time>2024-05-01T14:13:28.000Z</time><ele>232.6</ele></trkpt><trkpt lat="48.749855" lon="17.700136"><time>2024-05-01T14:13:31.000Z</time><ele>231.4</ele></trkpt><trkpt lat="48.749825" lon="17.70033"><time>2024-05-01T14:13:35.000Z</time><ele>232</ele></trkpt><trkpt lat="48.74981" lon="17.700417"><time>2024-05-01T14:13:37.000Z</time><ele>233.4</ele></trkpt><trkpt lat="48.749767" lon="17.700523"><time>2024-05-01T14:13:40.000Z</time><ele>235.2</ele></trkpt><trkpt lat="48.749744" lon="17.700544"><time>2024-05-01T14:13:41.000Z</time><ele>235.6</ele></trkpt><trkpt lat="48.749702" lon="17.700577"><time>2024-05-01T14:13:43.000Z</time><ele>235.8</ele></trkpt><trkpt lat="48.749676" lon="17.700592"><time>2024-05-01T14:13:46.000Z</time><ele>235.2</ele></trkpt><trkpt lat="48.749638" lon="17.700603"><time>2024-05-01T14:13:49.000Z</time><ele>234.2</ele></trkpt><trkpt lat="48.749603" lon="17.700607"><time>2024-05-01T14:13:50.000Z</time><ele>233.2</ele></trkpt><trkpt lat="48.749565" lon="17.70065"><time>2024-05-01T14:13:52.000Z</time><ele>232.8</ele></trkpt><trkpt lat="48.74954" lon="17.700684"><time>2024-05-01T14:13:54.000Z</time><ele>232.8</ele></trkpt><trkpt lat="48.7495" lon="17.700714"><time>2024-05-01T14:13:56.000Z</time><ele>232.8</ele></trkpt><trkpt lat="48.74947" lon="17.700716"><time>2024-05-01T14:13:57.000Z</time><ele>233.2</ele></trkpt><trkpt lat="48.7494" lon="17.700716"><time>2024-05-01T14:13:59.000Z</time><ele>233</ele></trkpt><trkpt lat="48.749367" lon="17.70072"><time>2024-05-01T14:14:00.000Z</time><ele>232.4</ele></trkpt><trkpt lat="48.749332" lon="17.700716"><time>2024-05-01T14:14:01.000Z</time><ele>232.2</ele></trkpt><trkpt lat="48.74926" lon="17.70072"><time>2024-05-01T14:14:03.000Z</time><ele>232</ele></trkpt><trkpt lat="48.749226" lon="17.700727"><time>2024-05-01T14:14:04.000Z</time><ele>232.2</ele></trkpt><trkpt lat="48.74918" lon="17.700733"><time>2024-05-01T14:14:05.000Z</time><ele>232.2</ele></trkpt><trkpt lat="48.749123" lon="17.700745"><time>2024-05-01T14:14:06.000Z</time><ele>232.2</ele></trkpt><trkpt lat="48.749077" lon="17.700752"><time>2024-05-01T14:14:07.000Z</time><ele>232.2</ele></trkpt><trkpt lat="48.748985" lon="17.70078"><time>2024-05-01T14:14:09.000Z</time><ele>232</ele></trkpt><trkpt lat="48.748898" lon="17.700811"><time>2024-05-01T14:14:11.000Z</time><ele>232</ele></trkpt><trkpt lat="48.74879" lon="17.700855"><time>2024-05-01T14:14:13.000Z</time><ele>231.4</ele></trkpt><trkpt lat="48.748676" lon="17.700909"><time>2024-05-01T14:14:15.000Z</time><ele>230.6</ele></trkpt><trkpt lat="48.74857" lon="17.70097"><time>2024-05-01T14:14:17.000Z</time><ele>230.4</ele></trkpt><trkpt lat="48.74844" lon="17.70102"><time>2024-05-01T14:14:19.000Z</time><ele>231.2</ele></trkpt><trkpt lat="48.748375" lon="17.701044"><time>2024-05-01T14:14:20.000Z</time><ele>231.8</ele></trkpt><trkpt lat="48.7483" lon="17.701073"><time>2024-05-01T14:14:21.000Z</time><ele>232</ele></trkpt><trkpt lat="48.748226" lon="17.701097"><time>2024-05-01T14:14:22.000Z</time><ele>232</ele></trkpt><trkpt lat="48.74817" lon="17.701132"><time>2024-05-01T14:14:23.000Z</time><ele>231.6</ele></trkpt><trkpt lat="48.74804" lon="17.701204"><time>2024-05-01T14:14:25.000Z</time><ele>231</ele></trkpt><trkpt lat="48.747974" lon="17.70124"><time>2024-05-01T14:14:26.000Z</time><ele>230.8</ele></trkpt><trkpt lat="48.747913" lon="17.701263"><time>2024-05-01T14:14:27.000Z</time><ele>230.8</ele></trkpt><trkpt lat="48.747677" lon="17.701212"><time>2024-05-01T14:14:31.000Z</time><ele>230.8</ele></trkpt><trkpt lat="48.74761" lon="17.701227"><time>2024-05-01T14:14:32.000Z</time><ele>230.6</ele></trkpt><trkpt lat="48.74754" lon="17.70125"><time>2024-05-01T14:14:33.000Z</time><ele>230.2</ele></trkpt><trkpt lat="48.74748" lon="17.70128"><time>2024-05-01T14:14:34.000Z</time><ele>229.8</ele></trkpt><trkpt lat="48.747417" lon="17.701317"><time>2024-05-01T14:14:35.000Z</time><ele>229.4</ele></trkpt><trkpt lat="48.747356" lon="17.70135"><time>2024-05-01T14:14:36.000Z</time><ele>229.2</ele></trkpt><trkpt lat="48.747295" lon="17.70138"><time>2024-05-01T14:14:37.000Z</time><ele>229</ele></trkpt><trkpt lat="48.747227" lon="17.701426"><time>2024-05-01T14:14:38.000Z</time><ele>229</ele></trkpt><trkpt lat="48.74717" lon="17.70148"><time>2024-05-01T14:14:39.000Z</time><ele>229.2</ele></trkpt><trkpt lat="48.74704" lon="17.7016"><time>2024-05-01T14:14:41.000Z</time><ele>229.6</ele></trkpt><trkpt lat="48.74691" lon="17.701723"><time>2024-05-01T14:14:43.000Z</time><ele>229.6</ele></trkpt><trkpt lat="48.74671" lon="17.701927"><time>2024-05-01T14:14:46.000Z</time><ele>229</ele></trkpt><trkpt lat="48.746643" lon="17.702"><time>2024-05-01T14:14:47.000Z</time><ele>229.2</ele></trkpt><trkpt lat="48.746586" lon="17.702072"><time>2024-05-01T14:14:48.000Z</time><ele>229.4</ele></trkpt><trkpt lat="48.746517" lon="17.702147"><time>2024-05-01T14:14:49.000Z</time><ele>229.6</ele></trkpt><trkpt lat="48.746452" lon="17.70222"><time>2024-05-01T14:14:50.000Z</time><ele>229.8</ele></trkpt><trkpt lat="48.746384" lon="17.702291"><time>2024-05-01T14:14:51.000Z</time><ele>230</ele></trkpt><trkpt lat="48.74632" lon="17.70237"><time>2024-05-01T14:14:52.000Z</time><ele>230</ele></trkpt><trkpt lat="48.746258" lon="17.702446"><time>2024-05-01T14:14:53.000Z</time><ele>230</ele></trkpt><trkpt lat="48.746197" lon="17.702513"><time>2024-05-01T14:14:55.000Z</time><ele>230.2</ele></trkpt><trkpt lat="48.74601" lon="17.702726"><time>2024-05-01T14:14:57.000Z</time><ele>230.8</ele></trkpt><trkpt lat="48.74588" lon="17.702868"><time>2024-05-01T14:14:59.000Z</time><ele>231</ele></trkpt><trkpt lat="48.745815" lon="17.702936"><time>2024-05-01T14:15:00.000Z</time><ele>231.2</ele></trkpt><trkpt lat="48.745747" lon="17.703007"><time>2024-05-01T14:15:01.000Z</time><ele>231.2</ele></trkpt><trkpt lat="48.74568" lon="17.703075"><time>2024-05-01T14:15:02.000Z</time><ele>231.2</ele></trkpt><trkpt lat="48.74561" lon="17.703136"><time>2024-05-01T14:15:03.000Z</time><ele>231.2</ele></trkpt><trkpt lat="48.745464" lon="17.703247"><time>2024-05-01T14:15:05.000Z</time><ele>231</ele></trkpt><trkpt lat="48.74532" lon="17.70336"><time>2024-05-01T14:15:07.000Z</time><ele>231.2</ele></trkpt><trkpt lat="48.74525" lon="17.703411"><time>2024-05-01T14:15:08.000Z</time><ele>231.2</ele></trkpt><trkpt lat="48.74518" lon="17.703451"><time>2024-05-01T14:15:09.000Z</time><ele>231.2</ele></trkpt><trkpt lat="48.745033" lon="17.703531"><time>2024-05-01T14:15:11.000Z</time><ele>230.8</ele></trkpt><trkpt lat="48.744816" lon="17.703678"><time>2024-05-01T14:15:14.000Z</time><ele>230.2</ele></trkpt><trkpt lat="48.74474" lon="17.703728"><time>2024-05-01T14:15:15.000Z</time><ele>230</ele></trkpt><trkpt lat="48.744663" lon="17.703768"><time>2024-05-01T14:15:16.000Z</time><ele>230</ele></trkpt><trkpt lat="48.7446" lon="17.703808"><time>2024-05-01T14:15:17.000Z</time><ele>230.2</ele></trkpt><trkpt lat="48.744534" lon="17.703844"><time>2024-05-01T14:15:18.000Z</time><ele>230.4</ele></trkpt><trkpt lat="48.744465" lon="17.703869"><time>2024-05-01T14:15:19.000Z</time><ele>230.6</ele></trkpt><trkpt lat="48.74418" lon="17.703947"><time>2024-05-01T14:15:23.000Z</time><ele>230</ele></trkpt><trkpt lat="48.744106" lon="17.703964"><time>2024-05-01T14:15:24.000Z</time><ele>229.6</ele></trkpt><trkpt lat="48.74404" lon="17.703987"><time>2024-05-01T14:15:25.000Z</time><ele>229.2</ele></trkpt><trkpt lat="48.743977" lon="17.704008"><time>2024-05-01T14:15:26.000Z</time><ele>229</ele></trkpt><trkpt lat="48.743908" lon="17.704027"><time>2024-05-01T14:15:27.000Z</time><ele>229</ele></trkpt><trkpt lat="48.74384" lon="17.704048"><time>2024-05-01T14:15:28.000Z</time><ele>229.2</ele></trkpt><trkpt lat="48.74378" lon="17.704079"><time>2024-05-01T14:15:29.000Z</time><ele>229.2</ele></trkpt><trkpt lat="48.74365" lon="17.70414"><time>2024-05-01T14:15:31.000Z</time><ele>229.2</ele></trkpt><trkpt lat="48.743587" lon="17.70418"><time>2024-05-01T14:15:32.000Z</time><ele>229.2</ele></trkpt><trkpt lat="48.743526" lon="17.704212"><time>2024-05-01T14:15:33.000Z</time><ele>228.8</ele></trkpt><trkpt lat="48.743465" lon="17.704252"><time>2024-05-01T14:15:35.000Z</time><ele>228.6</ele></trkpt><trkpt lat="48.743404" lon="17.704296"><time>2024-05-01T14:15:36.000Z</time><ele>228.4</ele></trkpt><trkpt lat="48.743347" lon="17.704336"><time>2024-05-01T14:15:37.000Z</time><ele>228.4</ele></trkpt><trkpt lat="48.743298" lon="17.704369"><time>2024-05-01T14:15:38.000Z</time><ele>228.2</ele></trkpt><trkpt lat="48.743248" lon="17.704395"><time>2024-05-01T14:15:39.000Z</time><ele>228.2</ele></trkpt><trkpt lat="48.74321" lon="17.704422"><time>2024-05-01T14:15:40.000Z</time><ele>228.2</ele></trkpt><trkpt lat="48.74313" lon="17.704473"><time>2024-05-01T14:15:41.000Z</time><ele>228.2</ele></trkpt><trkpt lat="48.742977" lon="17.704556"><time>2024-05-01T14:15:44.000Z</time><ele>228.8</ele></trkpt><trkpt lat="48.742817" lon="17.704657"><time>2024-05-01T14:15:47.000Z</time><ele>229</ele></trkpt><trkpt lat="48.74276" lon="17.704695"><time>2024-05-01T14:15:48.000Z</time><ele>229</ele></trkpt><trkpt lat="48.7427" lon="17.704735"><time>2024-05-01T14:15:49.000Z</time><ele>229</ele></trkpt><trkpt lat="48.74259" lon="17.704807"><time>2024-05-01T14:15:51.000Z</time><ele>229</ele></trkpt><trkpt lat="48.742462" lon="17.704857"><time>2024-05-01T14:15:53.000Z</time><ele>229.2</ele></trkpt><trkpt lat="48.742397" lon="17.704868"><time>2024-05-01T14:15:54.000Z</time><ele>229.4</ele></trkpt><trkpt lat="48.742256" lon="17.704897"><time>2024-05-01T14:15:56.000Z</time><ele>229.8</ele></trkpt><trkpt lat="48.742188" lon="17.704897"><time>2024-05-01T14:15:57.000Z</time><ele>229.8</ele></trkpt><trkpt lat="48.741993" lon="17.704899"><time>2024-05-01T14:16:00.000Z</time><ele>228.8</ele></trkpt><trkpt lat="48.741936" lon="17.704906"><time>2024-05-01T14:16:01.000Z</time><ele>228.2</ele></trkpt><trkpt lat="48.74187" lon="17.704916"><time>2024-05-01T14:16:02.000Z</time><ele>227.8</ele></trkpt><trkpt lat="48.741802" lon="17.70492"><time>2024-05-01T14:16:03.000Z</time><ele>227.6</ele></trkpt><trkpt lat="48.741673" lon="17.704924"><time>2024-05-01T14:16:05.000Z</time><ele>227.4</ele></trkpt><trkpt lat="48.74155" lon="17.70493"><time>2024-05-01T14:16:07.000Z</time><ele>227.8</ele></trkpt><trkpt lat="48.741493" lon="17.704924"><time>2024-05-01T14:16:08.000Z</time><ele>228</ele></trkpt><trkpt lat="48.741436" lon="17.704924"><time>2024-05-01T14:16:09.000Z</time><ele>228.2</ele></trkpt><trkpt lat="48.741333" lon="17.70492"><time>2024-05-01T14:16:11.000Z</time><ele>228.4</ele></trkpt><trkpt lat="48.74128" lon="17.70492"><time>2024-05-01T14:16:13.000Z</time><ele>228</ele></trkpt><trkpt lat="48.741234" lon="17.704924"><time>2024-05-01T14:16:14.000Z</time><ele>227.4</ele></trkpt><trkpt lat="48.741184" lon="17.70494"><time>2024-05-01T14:16:15.000Z</time><ele>227</ele></trkpt><trkpt lat="48.741135" lon="17.704952"><time>2024-05-01T14:16:16.000Z</time><ele>226.8</ele></trkpt><trkpt lat="48.74097" lon="17.704992"><time>2024-05-01T14:16:18.000Z</time><ele>227.4</ele></trkpt><trkpt lat="48.740913" lon="17.705011"><time>2024-05-01T14:16:20.000Z</time><ele>227.6</ele></trkpt><trkpt lat="48.74085" lon="17.705032"><time>2024-05-01T14:16:21.000Z</time><ele>228</ele></trkpt><trkpt lat="48.740784" lon="17.705055"><time>2024-05-01T14:16:22.000Z</time><ele>228.4</ele></trkpt><trkpt lat="48.740715" lon="17.70508"><time>2024-05-01T14:16:23.000Z</time><ele>228.6</ele></trkpt><trkpt lat="48.740482" lon="17.705248"><time>2024-05-01T14:16:26.000Z</time><ele>228.6</ele></trkpt><trkpt lat="48.740437" lon="17.705313"><time>2024-05-01T14:16:27.000Z</time><ele>228.4</ele></trkpt><trkpt lat="48.740295" lon="17.705526"><time>2024-05-01T14:16:30.000Z</time><ele>228.2</ele></trkpt><trkpt lat="48.74025" lon="17.705591"><time>2024-05-01T14:16:31.000Z</time><ele>228</ele></trkpt><trkpt lat="48.740143" lon="17.705732"><time>2024-05-01T14:16:33.000Z</time><ele>228</ele></trkpt><trkpt lat="48.740063" lon="17.705896"><time>2024-05-01T14:16:35.000Z</time><ele>228</ele></trkpt><trkpt lat="48.740025" lon="17.705963"><time>2024-05-01T14:16:37.000Z</time><ele>228.2</ele></trkpt><trkpt lat="48.739975" lon="17.706036"><time>2024-05-01T14:16:38.000Z</time><ele>228.4</ele></trkpt><trkpt lat="48.73994" lon="17.706099"><time>2024-05-01T14:16:39.000Z</time><ele>228.8</ele></trkpt><trkpt lat="48.7399" lon="17.706173"><time>2024-05-01T14:16:40.000Z</time><ele>229</ele></trkpt><trkpt lat="48.73986" lon="17.706242"><time>2024-05-01T14:16:41.000Z</time><ele>229</ele></trkpt><trkpt lat="48.739815" lon="17.706312"><time>2024-05-01T14:16:42.000Z</time><ele>228.6</ele></trkpt><trkpt lat="48.739685" lon="17.70656"><time>2024-05-01T14:16:44.000Z</time><ele>227</ele></trkpt><trkpt lat="48.739643" lon="17.706652"><time>2024-05-01T14:16:46.000Z</time><ele>226.6</ele></trkpt><trkpt lat="48.73961" lon="17.706757"><time>2024-05-01T14:16:47.000Z</time><ele>226.4</ele></trkpt><trkpt lat="48.73957" lon="17.70686"><time>2024-05-01T14:16:48.000Z</time><ele>226.2</ele></trkpt><trkpt lat="48.739426" lon="17.707258"><time>2024-05-01T14:16:51.000Z</time><ele>225</ele></trkpt><trkpt lat="48.739376" lon="17.707346"><time>2024-05-01T14:16:52.000Z</time><ele>224.6</ele></trkpt><trkpt lat="48.73932" lon="17.70744"><time>2024-05-01T14:16:53.000Z</time><ele>224.2</ele></trkpt><trkpt lat="48.739273" lon="17.707533"><time>2024-05-01T14:16:54.000Z</time><ele>223.6</ele></trkpt><trkpt lat="48.739216" lon="17.707624"><time>2024-05-01T14:16:55.000Z</time><ele>223.2</ele></trkpt><trkpt lat="48.73916" lon="17.707712"><time>2024-05-01T14:16:56.000Z</time><ele>223</ele></trkpt><trkpt lat="48.73912" lon="17.7078"><time>2024-05-01T14:16:57.000Z</time><ele>222.8</ele></trkpt><trkpt lat="48.739098" lon="17.707905"><time>2024-05-01T14:16:58.000Z</time><ele>223</ele></trkpt><trkpt lat="48.73905" lon="17.708084"><time>2024-05-01T14:17:00.000Z</time><ele>223.6</ele></trkpt><trkpt lat="48.739044" lon="17.708166"><time>2024-05-01T14:17:02.000Z</time><ele>223.6</ele></trkpt><trkpt lat="48.739033" lon="17.708242"><time>2024-05-01T14:17:03.000Z</time><ele>223.6</ele></trkpt><trkpt lat="48.739017" lon="17.70832"><time>2024-05-01T14:17:04.000Z</time><ele>223.4</ele></trkpt><trkpt lat="48.738987" lon="17.70839"><time>2024-05-01T14:17:05.000Z</time><ele>223.2</ele></trkpt><trkpt lat="48.738937" lon="17.70846"><time>2024-05-01T14:17:06.000Z</time><ele>223</ele></trkpt><trkpt lat="48.738895" lon="17.708525"><time>2024-05-01T14:17:07.000Z</time><ele>223</ele></trkpt><trkpt lat="48.73884" lon="17.708588"><time>2024-05-01T14:17:08.000Z</time><ele>223</ele></trkpt><trkpt lat="48.73879" lon="17.708637"><time>2024-05-01T14:17:09.000Z</time><ele>223</ele></trkpt><trkpt lat="48.738728" lon="17.708685"><time>2024-05-01T14:17:10.000Z</time><ele>223</ele></trkpt><trkpt lat="48.73868" lon="17.708744"><time>2024-05-01T14:17:11.000Z</time><ele>223</ele></trkpt><trkpt lat="48.738487" lon="17.708952"><time>2024-05-01T14:17:14.000Z</time><ele>222.8</ele></trkpt><trkpt lat="48.73845" lon="17.708992"><time>2024-05-01T14:17:16.000Z</time><ele>222.6</ele></trkpt><trkpt lat="48.7384" lon="17.70904"><time>2024-05-01T14:17:17.000Z</time><ele>222.4</ele></trkpt><trkpt lat="48.738358" lon="17.709087"><time>2024-05-01T14:17:18.000Z</time><ele>222.4</ele></trkpt><trkpt lat="48.73831" lon="17.709127"><time>2024-05-01T14:17:19.000Z</time><ele>222</ele></trkpt><trkpt lat="48.73826" lon="17.709167"><time>2024-05-01T14:17:20.000Z</time><ele>221.8</ele></trkpt><trkpt lat="48.738216" lon="17.709208"><time>2024-05-01T14:17:21.000Z</time><ele>221.8</ele></trkpt><trkpt lat="48.738075" lon="17.709309"><time>2024-05-01T14:17:23.000Z</time><ele>221.2</ele></trkpt><trkpt lat="48.738014" lon="17.709345"><time>2024-05-01T14:17:24.000Z</time><ele>220.8</ele></trkpt><trkpt lat="48.73796" lon="17.709381"><time>2024-05-01T14:17:25.000Z</time><ele>220.4</ele></trkpt><trkpt lat="48.7378" lon="17.709517"><time>2024-05-01T14:17:28.000Z</time><ele>220</ele></trkpt><trkpt lat="48.73774" lon="17.709574"><time>2024-05-01T14:17:29.000Z</time><ele>219.8</ele></trkpt><trkpt lat="48.73768" lon="17.70962"><time>2024-05-01T14:17:30.000Z</time><ele>219.8</ele></trkpt><trkpt lat="48.737537" lon="17.709751"><time>2024-05-01T14:17:33.000Z</time><ele>219.8</ele></trkpt><trkpt lat="48.73745" lon="17.709827"><time>2024-05-01T14:17:35.000Z</time><ele>220</ele></trkpt><trkpt lat="48.7374" lon="17.709864"><time>2024-05-01T14:17:36.000Z</time><ele>220</ele></trkpt><trkpt lat="48.737255" lon="17.70998"><time>2024-05-01T14:17:39.000Z</time><ele>220</ele></trkpt><trkpt lat="48.73721" lon="17.710024"><time>2024-05-01T14:17:41.000Z</time><ele>220</ele></trkpt><trkpt lat="48.73716" lon="17.710064"><time>2024-05-01T14:17:42.000Z</time><ele>220</ele></trkpt><trkpt lat="48.737064" lon="17.710016"><time>2024-05-01T14:17:43.000Z</time><ele>220</ele></trkpt><trkpt lat="48.737034" lon="17.709951"><time>2024-05-01T14:17:44.000Z</time><ele>220</ele></trkpt><trkpt lat="48.737007" lon="17.709873"><time>2024-05-01T14:17:46.000Z</time><ele>220</ele></trkpt><trkpt lat="48.736977" lon="17.709787"><time>2024-05-01T14:17:47.000Z</time><ele>220</ele></trkpt><trkpt lat="48.736946" lon="17.709703"><time>2024-05-01T14:17:48.000Z</time><ele>220</ele></trkpt><trkpt lat="48.73691" lon="17.709614"><time>2024-05-01T14:17:49.000Z</time><ele>219.8</ele></trkpt><trkpt lat="48.736885" lon="17.709532"><time>2024-05-01T14:17:50.000Z</time><ele>219.6</ele></trkpt><trkpt lat="48.736855" lon="17.70945"><time>2024-05-01T14:17:51.000Z</time><ele>219.4</ele></trkpt><trkpt lat="48.736767" lon="17.709171"><time>2024-05-01T14:17:53.000Z</time><ele>219</ele></trkpt><trkpt lat="48.736736" lon="17.709085"><time>2024-05-01T14:17:54.000Z</time><ele>219</ele></trkpt><trkpt lat="48.73664" lon="17.70882"><time>2024-05-01T14:17:57.000Z</time><ele>219.4</ele></trkpt><trkpt lat="48.736553" lon="17.708555"><time>2024-05-01T14:18:00.000Z</time><ele>219.6</ele></trkpt><trkpt lat="48.73649" lon="17.708372"><time>2024-05-01T14:18:02.000Z</time><ele>219.2</ele></trkpt><trkpt lat="48.736458" lon="17.708284"><time>2024-05-01T14:18:04.000Z</time><ele>219.4</ele></trkpt><trkpt lat="48.73627" lon="17.70777"><time>2024-05-01T14:18:08.000Z</time><ele>220</ele></trkpt><trkpt lat="48.736233" lon="17.70767"><time>2024-05-01T14:18:09.000Z</time><ele>219.8</ele></trkpt><trkpt lat="48.73613" lon="17.707548"><time>2024-05-01T14:18:11.000Z</time><ele>219.6</ele></trkpt><trkpt lat="48.73601" lon="17.707577"><time>2024-05-01T14:18:13.000Z</time><ele>219.2</ele></trkpt><trkpt lat="48.735947" lon="17.707619"><time>2024-05-01T14:18:15.000Z</time><ele>219.2</ele></trkpt><trkpt lat="48.73575" lon="17.707773"><time>2024-05-01T14:18:17.000Z</time><ele>219.8</ele></trkpt><trkpt lat="48.735542" lon="17.707977"><time>2024-05-01T14:18:20.000Z</time><ele>221.4</ele></trkpt><trkpt lat="48.735287" lon="17.708248"><time>2024-05-01T14:18:24.000Z</time><ele>223.4</ele></trkpt><trkpt lat="48.735146" lon="17.708384"><time>2024-05-01T14:18:26.000Z</time><ele>223.4</ele></trkpt><trkpt lat="48.735077" lon="17.708443"><time>2024-05-01T14:18:27.000Z</time><ele>223.4</ele></trkpt><trkpt lat="48.73485" lon="17.708612"><time>2024-05-01T14:18:30.000Z</time><ele>222.4</ele></trkpt><trkpt lat="48.734776" lon="17.708664"><time>2024-05-01T14:18:32.000Z</time><ele>222.2</ele></trkpt><trkpt lat="48.734695" lon="17.708708"><time>2024-05-01T14:18:33.000Z</time><ele>222</ele></trkpt><trkpt lat="48.73462" lon="17.70875"><time>2024-05-01T14:18:34.000Z</time><ele>222</ele></trkpt><trkpt lat="48.73455" lon="17.708794"><time>2024-05-01T14:18:35.000Z</time><ele>221.8</ele></trkpt><trkpt lat="48.73447" lon="17.708828"><time>2024-05-01T14:18:36.000Z</time><ele>221.4</ele></trkpt><trkpt lat="48.734398" lon="17.708866"><time>2024-05-01T14:18:37.000Z</time><ele>221</ele></trkpt><trkpt lat="48.734325" lon="17.708893"><time>2024-05-01T14:18:38.000Z</time><ele>220.4</ele></trkpt><trkpt lat="48.734264" lon="17.708923"><time>2024-05-01T14:18:39.000Z</time><ele>220</ele></trkpt><trkpt lat="48.734196" lon="17.708958"><time>2024-05-01T14:18:40.000Z</time><ele>219.8</ele></trkpt><trkpt lat="48.734135" lon="17.708996"><time>2024-05-01T14:18:41.000Z</time><ele>219.8</ele></trkpt><trkpt lat="48.73368" lon="17.709404"><time>2024-05-01T14:18:51.000Z</time><ele>221</ele></trkpt><trkpt lat="48.733673" lon="17.709423"><time>2024-05-01T14:18:54.000Z</time><ele>221</ele></trkpt><trkpt lat="48.733677" lon="17.709442"><time>2024-05-01T14:19:01.000Z</time><ele>221</ele></trkpt><trkpt lat="48.73369" lon="17.709475"><time>2024-05-01T14:19:04.000Z</time><ele>221</ele></trkpt><trkpt lat="48.733692" lon="17.709476"><time>2024-05-01T14:19:11.000Z</time><ele>220.8</ele></trkpt><trkpt lat="48.733715" lon="17.709517"><time>2024-05-01T14:19:15.000Z</time><ele>220.4</ele></trkpt><trkpt lat="48.733727" lon="17.70951"><time>2024-05-01T14:19:17.000Z</time><ele>220</ele></trkpt><trkpt lat="48.733734" lon="17.709513"><time>2024-05-01T14:19:25.000Z</time><ele>219.6</ele></trkpt><trkpt lat="48.73373" lon="17.709517"><time>2024-05-01T14:19:27.000Z</time><ele>219.2</ele></trkpt><trkpt lat="48.733723" lon="17.709496"><time>2024-05-01T14:19:47.000Z</time><ele>217.8</ele></trkpt><trkpt lat="48.733734" lon="17.709517"><time>2024-05-01T14:19:54.000Z</time><ele>217.4</ele></trkpt></trkseg></trk></gpx>